<?xml version="1.0" encoding="UTF-8" standalone="no" ?>
<gpx xmlns="http://www.topografix.com/GPX/1/1" xmlns:xsi="http://www.w3.org/2001/XMLSchema-instance" xsi:schemaLocation="http://www.topografix.com/GPX/1/1 http://www.topografix.com/GPX/1/1/gpx.xsd" version="1.1" creator="VisuGPX - https://www.visugpx.com">
  <metadata>
    <name>Mercredi 18 mars 2026</name>
  </metadata>
  <trk>
    <name><![CDATA[Mercredi 18 mars 2026]]></name>
    <extensions>
      <line xmlns="http://www.topografix.com/GPX/gpx_style/0/2">
        <width>7</width>
      </line>
    </extensions>
    <trkseg>
      <trkpt lat="43.38308" lon="-1.659">
        <ele>5</ele>
        <time>2026-03-06T10:59:34.000Z</time>
      </trkpt>
      <trkpt lat="43.38298" lon="-1.65877">
        <ele>4</ele>
        <time>2026-03-06T10:59:37.000Z</time>
      </trkpt>
      <trkpt lat="43.38234" lon="-1.65703">
        <ele>4</ele>
        <time>2026-03-06T11:00:03.000Z</time>
      </trkpt>
      <trkpt lat="43.38233" lon="-1.65687">
        <ele>4</ele>
        <time>2026-03-06T11:00:05.000Z</time>
      </trkpt>
      <trkpt lat="43.38236" lon="-1.65679">
        <ele>4</ele>
        <time>2026-03-06T11:00:06.000Z</time>
      </trkpt>
      <trkpt lat="43.38252" lon="-1.65655">
        <ele>4</ele>
        <time>2026-03-06T11:00:10.000Z</time>
      </trkpt>
      <trkpt lat="43.38351" lon="-1.65522">
        <ele>4</ele>
        <time>2026-03-06T11:00:35.000Z</time>
      </trkpt>
      <trkpt lat="43.38357" lon="-1.65509">
        <ele>4</ele>
        <time>2026-03-06T11:00:37.000Z</time>
      </trkpt>
      <trkpt lat="43.38352" lon="-1.65508">
        <ele>4</ele>
        <time>2026-03-06T11:00:38.000Z</time>
      </trkpt>
      <trkpt lat="43.38328" lon="-1.65473">
        <ele>4</ele>
        <time>2026-03-06T11:00:44.000Z</time>
      </trkpt>
      <trkpt lat="43.38325" lon="-1.65465">
        <ele>4</ele>
        <time>2026-03-06T11:00:45.000Z</time>
      </trkpt>
      <trkpt lat="43.38326" lon="-1.65462">
        <ele>4</ele>
        <time>2026-03-06T11:00:45.000Z</time>
      </trkpt>
      <trkpt lat="43.38327" lon="-1.65457">
        <ele>4</ele>
        <time>2026-03-06T11:00:46.000Z</time>
      </trkpt>
      <trkpt lat="43.38331" lon="-1.65453">
        <ele>5</ele>
        <time>2026-03-06T11:00:47.000Z</time>
      </trkpt>
      <trkpt lat="43.3837" lon="-1.65376">
        <ele>5</ele>
        <time>2026-03-06T11:00:59.000Z</time>
      </trkpt>
      <trkpt lat="43.3839" lon="-1.65332">
        <ele>6</ele>
        <time>2026-03-06T11:01:06.000Z</time>
      </trkpt>
      <trkpt lat="43.38394" lon="-1.65317">
        <ele>8</ele>
        <time>2026-03-06T11:01:08.000Z</time>
      </trkpt>
      <trkpt lat="43.38392" lon="-1.65295">
        <ele>10</ele>
        <time>2026-03-06T11:01:11.000Z</time>
      </trkpt>
      <trkpt lat="43.38384" lon="-1.65266">
        <ele>13</ele>
        <time>2026-03-06T11:01:15.000Z</time>
      </trkpt>
      <trkpt lat="43.38365" lon="-1.65248">
        <ele>13</ele>
        <time>2026-03-06T11:01:19.000Z</time>
      </trkpt>
      <trkpt lat="43.3836" lon="-1.65239">
        <ele>13</ele>
        <time>2026-03-06T11:01:20.000Z</time>
      </trkpt>
      <trkpt lat="43.38356" lon="-1.65227">
        <ele>13</ele>
        <time>2026-03-06T11:01:22.000Z</time>
      </trkpt>
      <trkpt lat="43.38343" lon="-1.652">
        <ele>12</ele>
        <time>2026-03-06T11:01:26.000Z</time>
      </trkpt>
      <trkpt lat="43.38302" lon="-1.65087">
        <ele>11</ele>
        <time>2026-03-06T11:01:43.000Z</time>
      </trkpt>
      <trkpt lat="43.38311" lon="-1.6508">
        <ele>12</ele>
        <time>2026-03-06T11:01:44.000Z</time>
      </trkpt>
      <trkpt lat="43.38314" lon="-1.6508">
        <ele>12</ele>
        <time>2026-03-06T11:01:45.000Z</time>
      </trkpt>
      <trkpt lat="43.38326" lon="-1.65083">
        <ele>13</ele>
        <time>2026-03-06T11:01:47.000Z</time>
      </trkpt>
      <trkpt lat="43.38333" lon="-1.6508">
        <ele>14</ele>
        <time>2026-03-06T11:01:48.000Z</time>
      </trkpt>
      <trkpt lat="43.38345" lon="-1.65059">
        <ele>16</ele>
        <time>2026-03-06T11:01:52.000Z</time>
      </trkpt>
      <trkpt lat="43.38372" lon="-1.65026">
        <ele>22</ele>
        <time>2026-03-06T11:01:58.000Z</time>
      </trkpt>
      <trkpt lat="43.38371" lon="-1.65015">
        <ele>21</ele>
        <time>2026-03-06T11:02:00.000Z</time>
      </trkpt>
      <trkpt lat="43.38365" lon="-1.65001">
        <ele>20</ele>
        <time>2026-03-06T11:02:02.000Z</time>
      </trkpt>
      <trkpt lat="43.38317" lon="-1.64983">
        <ele>13</ele>
        <time>2026-03-06T11:02:11.000Z</time>
      </trkpt>
      <trkpt lat="43.38311" lon="-1.64978">
        <ele>13</ele>
        <time>2026-03-06T11:02:12.000Z</time>
      </trkpt>
      <trkpt lat="43.38306" lon="-1.64969">
        <ele>13</ele>
        <time>2026-03-06T11:02:13.000Z</time>
      </trkpt>
      <trkpt lat="43.38304" lon="-1.64959">
        <ele>13</ele>
        <time>2026-03-06T11:02:15.000Z</time>
      </trkpt>
      <trkpt lat="43.38305" lon="-1.64912">
        <ele>16</ele>
        <time>2026-03-06T11:02:21.000Z</time>
      </trkpt>
      <trkpt lat="43.3831" lon="-1.6488">
        <ele>17</ele>
        <time>2026-03-06T11:02:25.000Z</time>
      </trkpt>
      <trkpt lat="43.38313" lon="-1.64875">
        <ele>17</ele>
        <time>2026-03-06T11:02:26.000Z</time>
      </trkpt>
      <trkpt lat="43.38363" lon="-1.6482">
        <ele>25</ele>
        <time>2026-03-06T11:02:37.000Z</time>
      </trkpt>
      <trkpt lat="43.38376" lon="-1.64789">
        <ele>25</ele>
        <time>2026-03-06T11:02:42.000Z</time>
      </trkpt>
      <trkpt lat="43.38388" lon="-1.64774">
        <ele>26</ele>
        <time>2026-03-06T11:02:45.000Z</time>
      </trkpt>
      <trkpt lat="43.38405" lon="-1.64761">
        <ele>29</ele>
        <time>2026-03-06T11:02:48.000Z</time>
      </trkpt>
      <trkpt lat="43.38419" lon="-1.64743">
        <ele>30</ele>
        <time>2026-03-06T11:02:52.000Z</time>
      </trkpt>
      <trkpt lat="43.38439" lon="-1.64686">
        <ele>30</ele>
        <time>2026-03-06T11:03:00.000Z</time>
      </trkpt>
      <trkpt lat="43.38444" lon="-1.64678">
        <ele>30</ele>
        <time>2026-03-06T11:03:01.000Z</time>
      </trkpt>
      <trkpt lat="43.38451" lon="-1.64687">
        <ele>30</ele>
        <time>2026-03-06T11:03:03.000Z</time>
      </trkpt>
      <trkpt lat="43.38464" lon="-1.64693">
        <ele>31</ele>
        <time>2026-03-06T11:03:05.000Z</time>
      </trkpt>
      <trkpt lat="43.3848" lon="-1.64653">
        <ele>31</ele>
        <time>2026-03-06T11:03:11.000Z</time>
      </trkpt>
      <trkpt lat="43.38513" lon="-1.64606">
        <ele>33</ele>
        <time>2026-03-06T11:03:20.000Z</time>
      </trkpt>
      <trkpt lat="43.38534" lon="-1.6458">
        <ele>34</ele>
        <time>2026-03-06T11:03:25.000Z</time>
      </trkpt>
      <trkpt lat="43.38564" lon="-1.64553">
        <ele>33</ele>
        <time>2026-03-06T11:03:31.000Z</time>
      </trkpt>
      <trkpt lat="43.38604" lon="-1.64521">
        <ele>35</ele>
        <time>2026-03-06T11:03:39.000Z</time>
      </trkpt>
      <trkpt lat="43.38694" lon="-1.64479">
        <ele>37</ele>
        <time>2026-03-06T11:03:56.000Z</time>
      </trkpt>
      <trkpt lat="43.38774" lon="-1.64418">
        <ele>39</ele>
        <time>2026-03-06T11:04:13.000Z</time>
      </trkpt>
      <trkpt lat="43.38806" lon="-1.64378">
        <ele>36</ele>
        <time>2026-03-06T11:04:20.000Z</time>
      </trkpt>
      <trkpt lat="43.38826" lon="-1.64347">
        <ele>35</ele>
        <time>2026-03-06T11:04:26.000Z</time>
      </trkpt>
      <trkpt lat="43.38833" lon="-1.64343">
        <ele>34</ele>
        <time>2026-03-06T11:04:27.000Z</time>
      </trkpt>
      <trkpt lat="43.38832" lon="-1.64332">
        <ele>34</ele>
        <time>2026-03-06T11:04:28.000Z</time>
      </trkpt>
      <trkpt lat="43.38836" lon="-1.6431">
        <ele>34</ele>
        <time>2026-03-06T11:04:31.000Z</time>
      </trkpt>
      <trkpt lat="43.38878" lon="-1.64198">
        <ele>39</ele>
        <time>2026-03-06T11:04:48.000Z</time>
      </trkpt>
      <trkpt lat="43.38886" lon="-1.64171">
        <ele>41</ele>
        <time>2026-03-06T11:04:51.000Z</time>
      </trkpt>
      <trkpt lat="43.38888" lon="-1.64153">
        <ele>41</ele>
        <time>2026-03-06T11:04:54.000Z</time>
      </trkpt>
      <trkpt lat="43.38889" lon="-1.6413">
        <ele>40</ele>
        <time>2026-03-06T11:04:57.000Z</time>
      </trkpt>
      <trkpt lat="43.38886" lon="-1.64034">
        <ele>41</ele>
        <time>2026-03-06T11:05:09.000Z</time>
      </trkpt>
      <trkpt lat="43.38889" lon="-1.64006">
        <ele>43</ele>
        <time>2026-03-06T11:05:13.000Z</time>
      </trkpt>
      <trkpt lat="43.38899" lon="-1.63974">
        <ele>43</ele>
        <time>2026-03-06T11:05:17.000Z</time>
      </trkpt>
      <trkpt lat="43.38907" lon="-1.63955">
        <ele>44</ele>
        <time>2026-03-06T11:05:20.000Z</time>
      </trkpt>
      <trkpt lat="43.38919" lon="-1.63936">
        <ele>44</ele>
        <time>2026-03-06T11:05:23.000Z</time>
      </trkpt>
      <trkpt lat="43.38936" lon="-1.63916">
        <ele>45</ele>
        <time>2026-03-06T11:05:27.000Z</time>
      </trkpt>
      <trkpt lat="43.39191" lon="-1.63689">
        <ele>59</ele>
        <time>2026-03-06T11:06:21.000Z</time>
      </trkpt>
      <trkpt lat="43.39208" lon="-1.63665">
        <ele>60</ele>
        <time>2026-03-06T11:06:26.000Z</time>
      </trkpt>
      <trkpt lat="43.3922" lon="-1.63639">
        <ele>61</ele>
        <time>2026-03-06T11:06:30.000Z</time>
      </trkpt>
      <trkpt lat="43.39229" lon="-1.63618">
        <ele>61</ele>
        <time>2026-03-06T11:06:33.000Z</time>
      </trkpt>
      <trkpt lat="43.39233" lon="-1.63599">
        <ele>61</ele>
        <time>2026-03-06T11:06:35.000Z</time>
      </trkpt>
      <trkpt lat="43.39235" lon="-1.63583">
        <ele>61</ele>
        <time>2026-03-06T11:06:38.000Z</time>
      </trkpt>
      <trkpt lat="43.39211" lon="-1.63432">
        <ele>59</ele>
        <time>2026-03-06T11:06:58.000Z</time>
      </trkpt>
      <trkpt lat="43.39199" lon="-1.63367">
        <ele>57</ele>
        <time>2026-03-06T11:07:06.000Z</time>
      </trkpt>
      <trkpt lat="43.39176" lon="-1.63221">
        <ele>62</ele>
        <time>2026-03-06T11:07:26.000Z</time>
      </trkpt>
      <trkpt lat="43.39173" lon="-1.63182">
        <ele>61</ele>
        <time>2026-03-06T11:07:31.000Z</time>
      </trkpt>
      <trkpt lat="43.39176" lon="-1.63124">
        <ele>58</ele>
        <time>2026-03-06T11:07:38.000Z</time>
      </trkpt>
      <trkpt lat="43.39171" lon="-1.63087">
        <ele>56</ele>
        <time>2026-03-06T11:07:43.000Z</time>
      </trkpt>
      <trkpt lat="43.39102" lon="-1.62869">
        <ele>64</ele>
        <time>2026-03-06T11:08:14.000Z</time>
      </trkpt>
      <trkpt lat="43.39069" lon="-1.62811">
        <ele>65</ele>
        <time>2026-03-06T11:08:23.000Z</time>
      </trkpt>
      <trkpt lat="43.38986" lon="-1.62714">
        <ele>60</ele>
        <time>2026-03-06T11:08:43.000Z</time>
      </trkpt>
      <trkpt lat="43.38901" lon="-1.62664">
        <ele>64</ele>
        <time>2026-03-06T11:08:59.000Z</time>
      </trkpt>
      <trkpt lat="43.38886" lon="-1.62651">
        <ele>66</ele>
        <time>2026-03-06T11:09:02.000Z</time>
      </trkpt>
      <trkpt lat="43.38875" lon="-1.62634">
        <ele>67</ele>
        <time>2026-03-06T11:09:05.000Z</time>
      </trkpt>
      <trkpt lat="43.3887" lon="-1.6261">
        <ele>67</ele>
        <time>2026-03-06T11:09:08.000Z</time>
      </trkpt>
      <trkpt lat="43.38873" lon="-1.62537">
        <ele>63</ele>
        <time>2026-03-06T11:09:18.000Z</time>
      </trkpt>
      <trkpt lat="43.38864" lon="-1.62491">
        <ele>61</ele>
        <time>2026-03-06T11:09:24.000Z</time>
      </trkpt>
      <trkpt lat="43.38852" lon="-1.62477">
        <ele>60</ele>
        <time>2026-03-06T11:09:27.000Z</time>
      </trkpt>
      <trkpt lat="43.3882" lon="-1.62464">
        <ele>61</ele>
        <time>2026-03-06T11:09:33.000Z</time>
      </trkpt>
      <trkpt lat="43.3878" lon="-1.62452">
        <ele>62</ele>
        <time>2026-03-06T11:09:40.000Z</time>
      </trkpt>
      <trkpt lat="43.38767" lon="-1.62445">
        <ele>62</ele>
        <time>2026-03-06T11:09:43.000Z</time>
      </trkpt>
      <trkpt lat="43.38756" lon="-1.62436">
        <ele>62</ele>
        <time>2026-03-06T11:09:45.000Z</time>
      </trkpt>
      <trkpt lat="43.3875" lon="-1.6242">
        <ele>62</ele>
        <time>2026-03-06T11:09:47.000Z</time>
      </trkpt>
      <trkpt lat="43.38744" lon="-1.62391">
        <ele>61</ele>
        <time>2026-03-06T11:09:51.000Z</time>
      </trkpt>
      <trkpt lat="43.3874" lon="-1.62345">
        <ele>60</ele>
        <time>2026-03-06T11:09:57.000Z</time>
      </trkpt>
      <trkpt lat="43.3871" lon="-1.62133">
        <ele>61</ele>
        <time>2026-03-06T11:10:25.000Z</time>
      </trkpt>
      <trkpt lat="43.38697" lon="-1.62075">
        <ele>63</ele>
        <time>2026-03-06T11:10:33.000Z</time>
      </trkpt>
      <trkpt lat="43.38687" lon="-1.62043">
        <ele>64</ele>
        <time>2026-03-06T11:10:37.000Z</time>
      </trkpt>
      <trkpt lat="43.38666" lon="-1.61994">
        <ele>67</ele>
        <time>2026-03-06T11:10:45.000Z</time>
      </trkpt>
      <trkpt lat="43.3865" lon="-1.61967">
        <ele>69</ele>
        <time>2026-03-06T11:10:49.000Z</time>
      </trkpt>
      <trkpt lat="43.38636" lon="-1.61948">
        <ele>71</ele>
        <time>2026-03-06T11:10:53.000Z</time>
      </trkpt>
      <trkpt lat="43.3862" lon="-1.61929">
        <ele>73</ele>
        <time>2026-03-06T11:10:56.000Z</time>
      </trkpt>
      <trkpt lat="43.38584" lon="-1.61895">
        <ele>75</ele>
        <time>2026-03-06T11:11:04.000Z</time>
      </trkpt>
      <trkpt lat="43.38566" lon="-1.61881">
        <ele>75</ele>
        <time>2026-03-06T11:11:08.000Z</time>
      </trkpt>
      <trkpt lat="43.38555" lon="-1.61875">
        <ele>76</ele>
        <time>2026-03-06T11:11:10.000Z</time>
      </trkpt>
      <trkpt lat="43.38487" lon="-1.6185">
        <ele>78</ele>
        <time>2026-03-06T11:11:22.000Z</time>
      </trkpt>
      <trkpt lat="43.38468" lon="-1.61846">
        <ele>78</ele>
        <time>2026-03-06T11:11:26.000Z</time>
      </trkpt>
      <trkpt lat="43.38452" lon="-1.61846">
        <ele>78</ele>
        <time>2026-03-06T11:11:29.000Z</time>
      </trkpt>
      <trkpt lat="43.38354" lon="-1.61859">
        <ele>78</ele>
        <time>2026-03-06T11:11:46.000Z</time>
      </trkpt>
      <trkpt lat="43.38335" lon="-1.61855">
        <ele>78</ele>
        <time>2026-03-06T11:11:50.000Z</time>
      </trkpt>
      <trkpt lat="43.38303" lon="-1.6184">
        <ele>79</ele>
        <time>2026-03-06T11:11:56.000Z</time>
      </trkpt>
      <trkpt lat="43.38131" lon="-1.61673">
        <ele>74</ele>
        <time>2026-03-06T11:12:33.000Z</time>
      </trkpt>
      <trkpt lat="43.38102" lon="-1.61637">
        <ele>74</ele>
        <time>2026-03-06T11:12:40.000Z</time>
      </trkpt>
      <trkpt lat="43.38088" lon="-1.61593">
        <ele>76</ele>
        <time>2026-03-06T11:12:46.000Z</time>
      </trkpt>
      <trkpt lat="43.38082" lon="-1.61527">
        <ele>78</ele>
        <time>2026-03-06T11:12:55.000Z</time>
      </trkpt>
      <trkpt lat="43.38084" lon="-1.61464">
        <ele>78</ele>
        <time>2026-03-06T11:13:03.000Z</time>
      </trkpt>
      <trkpt lat="43.38096" lon="-1.61353">
        <ele>78</ele>
        <time>2026-03-06T11:13:18.000Z</time>
      </trkpt>
      <trkpt lat="43.38114" lon="-1.61112">
        <ele>78</ele>
        <time>2026-03-06T11:13:49.000Z</time>
      </trkpt>
      <trkpt lat="43.38107" lon="-1.61061">
        <ele>79</ele>
        <time>2026-03-06T11:13:56.000Z</time>
      </trkpt>
      <trkpt lat="43.38098" lon="-1.60992">
        <ele>78</ele>
        <time>2026-03-06T11:14:05.000Z</time>
      </trkpt>
      <trkpt lat="43.38055" lon="-1.6092">
        <ele>77</ele>
        <time>2026-03-06T11:14:17.000Z</time>
      </trkpt>
      <trkpt lat="43.3805" lon="-1.60899">
        <ele>78</ele>
        <time>2026-03-06T11:14:20.000Z</time>
      </trkpt>
      <trkpt lat="43.38051" lon="-1.60873">
        <ele>79</ele>
        <time>2026-03-06T11:14:23.000Z</time>
      </trkpt>
      <trkpt lat="43.38065" lon="-1.60831">
        <ele>79</ele>
        <time>2026-03-06T11:14:29.000Z</time>
      </trkpt>
      <trkpt lat="43.38072" lon="-1.60794">
        <ele>80</ele>
        <time>2026-03-06T11:14:34.000Z</time>
      </trkpt>
      <trkpt lat="43.38074" lon="-1.60737">
        <ele>83</ele>
        <time>2026-03-06T11:14:41.000Z</time>
      </trkpt>
      <trkpt lat="43.3807" lon="-1.60651">
        <ele>84</ele>
        <time>2026-03-06T11:14:52.000Z</time>
      </trkpt>
      <trkpt lat="43.38091" lon="-1.60474">
        <ele>82</ele>
        <time>2026-03-06T11:15:16.000Z</time>
      </trkpt>
      <trkpt lat="43.38087" lon="-1.60427">
        <ele>81</ele>
        <time>2026-03-06T11:15:22.000Z</time>
      </trkpt>
      <trkpt lat="43.38054" lon="-1.6027">
        <ele>78</ele>
        <time>2026-03-06T11:15:43.000Z</time>
      </trkpt>
      <trkpt lat="43.38045" lon="-1.60246">
        <ele>78</ele>
        <time>2026-03-06T11:15:46.000Z</time>
      </trkpt>
      <trkpt lat="43.38037" lon="-1.60229">
        <ele>78</ele>
        <time>2026-03-06T11:15:49.000Z</time>
      </trkpt>
      <trkpt lat="43.37864" lon="-1.60003">
        <ele>83</ele>
        <time>2026-03-06T11:16:31.000Z</time>
      </trkpt>
      <trkpt lat="43.37847" lon="-1.59972">
        <ele>82</ele>
        <time>2026-03-06T11:16:36.000Z</time>
      </trkpt>
      <trkpt lat="43.37839" lon="-1.59949">
        <ele>82</ele>
        <time>2026-03-06T11:16:40.000Z</time>
      </trkpt>
      <trkpt lat="43.37815" lon="-1.59712">
        <ele>84</ele>
        <time>2026-03-06T11:17:11.000Z</time>
      </trkpt>
      <trkpt lat="43.37805" lon="-1.59672">
        <ele>84</ele>
        <time>2026-03-06T11:17:16.000Z</time>
      </trkpt>
      <trkpt lat="43.37724" lon="-1.5947">
        <ele>81</ele>
        <time>2026-03-06T11:17:46.000Z</time>
      </trkpt>
      <trkpt lat="43.37715" lon="-1.59453">
        <ele>80</ele>
        <time>2026-03-06T11:17:49.000Z</time>
      </trkpt>
      <trkpt lat="43.37701" lon="-1.5944">
        <ele>80</ele>
        <time>2026-03-06T11:17:52.000Z</time>
      </trkpt>
      <trkpt lat="43.37687" lon="-1.59434">
        <ele>79</ele>
        <time>2026-03-06T11:17:54.000Z</time>
      </trkpt>
      <trkpt lat="43.37671" lon="-1.59432">
        <ele>80</ele>
        <time>2026-03-06T11:17:57.000Z</time>
      </trkpt>
      <trkpt lat="43.3759" lon="-1.59439">
        <ele>86</ele>
        <time>2026-03-06T11:18:12.000Z</time>
      </trkpt>
      <trkpt lat="43.37553" lon="-1.59439">
        <ele>87</ele>
        <time>2026-03-06T11:18:18.000Z</time>
      </trkpt>
      <trkpt lat="43.37538" lon="-1.59436">
        <ele>87</ele>
        <time>2026-03-06T11:18:21.000Z</time>
      </trkpt>
      <trkpt lat="43.37527" lon="-1.5943">
        <ele>87</ele>
        <time>2026-03-06T11:18:23.000Z</time>
      </trkpt>
      <trkpt lat="43.37512" lon="-1.59415">
        <ele>88</ele>
        <time>2026-03-06T11:18:26.000Z</time>
      </trkpt>
      <trkpt lat="43.37507" lon="-1.59403">
        <ele>88</ele>
        <time>2026-03-06T11:18:28.000Z</time>
      </trkpt>
      <trkpt lat="43.37502" lon="-1.59383">
        <ele>88</ele>
        <time>2026-03-06T11:18:31.000Z</time>
      </trkpt>
      <trkpt lat="43.3747" lon="-1.59186">
        <ele>84</ele>
        <time>2026-03-06T11:18:57.000Z</time>
      </trkpt>
      <trkpt lat="43.37458" lon="-1.59156">
        <ele>84</ele>
        <time>2026-03-06T11:19:01.000Z</time>
      </trkpt>
      <trkpt lat="43.37407" lon="-1.59079">
        <ele>84</ele>
        <time>2026-03-06T11:19:15.000Z</time>
      </trkpt>
      <trkpt lat="43.37384" lon="-1.59038">
        <ele>80</ele>
        <time>2026-03-06T11:19:22.000Z</time>
      </trkpt>
      <trkpt lat="43.37376" lon="-1.59018">
        <ele>80</ele>
        <time>2026-03-06T11:19:24.000Z</time>
      </trkpt>
      <trkpt lat="43.37359" lon="-1.58958">
        <ele>76</ele>
        <time>2026-03-06T11:19:33.000Z</time>
      </trkpt>
      <trkpt lat="43.37339" lon="-1.58918">
        <ele>72</ele>
        <time>2026-03-06T11:19:39.000Z</time>
      </trkpt>
      <trkpt lat="43.37324" lon="-1.58902">
        <ele>70</ele>
        <time>2026-03-06T11:19:42.000Z</time>
      </trkpt>
      <trkpt lat="43.37308" lon="-1.58889">
        <ele>68</ele>
        <time>2026-03-06T11:19:46.000Z</time>
      </trkpt>
      <trkpt lat="43.3725" lon="-1.58867">
        <ele>62</ele>
        <time>2026-03-06T11:19:56.000Z</time>
      </trkpt>
      <trkpt lat="43.37173" lon="-1.58816">
        <ele>59</ele>
        <time>2026-03-06T11:20:12.000Z</time>
      </trkpt>
      <trkpt lat="43.37157" lon="-1.58797">
        <ele>58</ele>
        <time>2026-03-06T11:20:15.000Z</time>
      </trkpt>
      <trkpt lat="43.37149" lon="-1.58777">
        <ele>57</ele>
        <time>2026-03-06T11:20:18.000Z</time>
      </trkpt>
      <trkpt lat="43.37143" lon="-1.58747">
        <ele>57</ele>
        <time>2026-03-06T11:20:22.000Z</time>
      </trkpt>
      <trkpt lat="43.37139" lon="-1.5872">
        <ele>57</ele>
        <time>2026-03-06T11:20:26.000Z</time>
      </trkpt>
      <trkpt lat="43.3714" lon="-1.58674">
        <ele>56</ele>
        <time>2026-03-06T11:20:32.000Z</time>
      </trkpt>
      <trkpt lat="43.37139" lon="-1.58644">
        <ele>55</ele>
        <time>2026-03-06T11:20:36.000Z</time>
      </trkpt>
      <trkpt lat="43.37135" lon="-1.58619">
        <ele>54</ele>
        <time>2026-03-06T11:20:39.000Z</time>
      </trkpt>
      <trkpt lat="43.37129" lon="-1.58604">
        <ele>54</ele>
        <time>2026-03-06T11:20:41.000Z</time>
      </trkpt>
      <trkpt lat="43.37106" lon="-1.5858">
        <ele>53</ele>
        <time>2026-03-06T11:20:46.000Z</time>
      </trkpt>
      <trkpt lat="43.3707" lon="-1.58552">
        <ele>50</ele>
        <time>2026-03-06T11:20:54.000Z</time>
      </trkpt>
      <trkpt lat="43.36965" lon="-1.58483">
        <ele>44</ele>
        <time>2026-03-06T11:21:15.000Z</time>
      </trkpt>
      <trkpt lat="43.36875" lon="-1.5844">
        <ele>45</ele>
        <time>2026-03-06T11:21:32.000Z</time>
      </trkpt>
      <trkpt lat="43.36848" lon="-1.58431">
        <ele>47</ele>
        <time>2026-03-06T11:21:36.000Z</time>
      </trkpt>
      <trkpt lat="43.36763" lon="-1.58439">
        <ele>53</ele>
        <time>2026-03-06T11:21:52.000Z</time>
      </trkpt>
      <trkpt lat="43.36737" lon="-1.58433">
        <ele>53</ele>
        <time>2026-03-06T11:21:56.000Z</time>
      </trkpt>
      <trkpt lat="43.36713" lon="-1.58412">
        <ele>52</ele>
        <time>2026-03-06T11:22:01.000Z</time>
      </trkpt>
      <trkpt lat="43.36702" lon="-1.58382">
        <ele>47</ele>
        <time>2026-03-06T11:22:06.000Z</time>
      </trkpt>
      <trkpt lat="43.3669" lon="-1.58356">
        <ele>43</ele>
        <time>2026-03-06T11:22:10.000Z</time>
      </trkpt>
      <trkpt lat="43.36671" lon="-1.58337">
        <ele>40</ele>
        <time>2026-03-06T11:22:14.000Z</time>
      </trkpt>
      <trkpt lat="43.36646" lon="-1.58317">
        <ele>37</ele>
        <time>2026-03-06T11:22:19.000Z</time>
      </trkpt>
      <trkpt lat="43.36628" lon="-1.58312">
        <ele>35</ele>
        <time>2026-03-06T11:22:22.000Z</time>
      </trkpt>
      <trkpt lat="43.36599" lon="-1.58308">
        <ele>34</ele>
        <time>2026-03-06T11:22:27.000Z</time>
      </trkpt>
      <trkpt lat="43.36497" lon="-1.58308">
        <ele>26</ele>
        <time>2026-03-06T11:22:46.000Z</time>
      </trkpt>
      <trkpt lat="43.36314" lon="-1.5834">
        <ele>16</ele>
        <time>2026-03-06T11:23:18.000Z</time>
      </trkpt>
      <trkpt lat="43.36191" lon="-1.58365">
        <ele>13</ele>
        <time>2026-03-06T11:23:41.000Z</time>
      </trkpt>
      <trkpt lat="43.36178" lon="-1.58364">
        <ele>13</ele>
        <time>2026-03-06T11:23:43.000Z</time>
      </trkpt>
      <trkpt lat="43.36169" lon="-1.58358">
        <ele>13</ele>
        <time>2026-03-06T11:23:45.000Z</time>
      </trkpt>
      <trkpt lat="43.36162" lon="-1.58354">
        <ele>13</ele>
        <time>2026-03-06T11:23:46.000Z</time>
      </trkpt>
      <trkpt lat="43.36159" lon="-1.58352">
        <ele>12</ele>
        <time>2026-03-06T11:23:47.000Z</time>
      </trkpt>
      <trkpt lat="43.3615" lon="-1.58355">
        <ele>12</ele>
        <time>2026-03-06T11:23:48.000Z</time>
      </trkpt>
      <trkpt lat="43.36139" lon="-1.58363">
        <ele>12</ele>
        <time>2026-03-06T11:23:50.000Z</time>
      </trkpt>
      <trkpt lat="43.36109" lon="-1.58303">
        <ele>12</ele>
        <time>2026-03-06T11:24:00.000Z</time>
      </trkpt>
      <trkpt lat="43.36003" lon="-1.58148">
        <ele>11</ele>
        <time>2026-03-06T11:24:27.000Z</time>
      </trkpt>
      <trkpt lat="43.35894" lon="-1.57993">
        <ele>11</ele>
        <time>2026-03-06T11:24:55.000Z</time>
      </trkpt>
      <trkpt lat="43.35882" lon="-1.57972">
        <ele>11</ele>
        <time>2026-03-06T11:24:59.000Z</time>
      </trkpt>
      <trkpt lat="43.35852" lon="-1.57913">
        <ele>12</ele>
        <time>2026-03-06T11:25:08.000Z</time>
      </trkpt>
      <trkpt lat="43.35838" lon="-1.57869">
        <ele>11</ele>
        <time>2026-03-06T11:25:14.000Z</time>
      </trkpt>
      <trkpt lat="43.35807" lon="-1.5772">
        <ele>12</ele>
        <time>2026-03-06T11:25:34.000Z</time>
      </trkpt>
      <trkpt lat="43.35783" lon="-1.57586">
        <ele>13</ele>
        <time>2026-03-06T11:25:52.000Z</time>
      </trkpt>
      <trkpt lat="43.35779" lon="-1.57552">
        <ele>13</ele>
        <time>2026-03-06T11:25:57.000Z</time>
      </trkpt>
      <trkpt lat="43.35779" lon="-1.57526">
        <ele>13</ele>
        <time>2026-03-06T11:26:00.000Z</time>
      </trkpt>
      <trkpt lat="43.35773" lon="-1.57481">
        <ele>13</ele>
        <time>2026-03-06T11:26:06.000Z</time>
      </trkpt>
      <trkpt lat="43.3577" lon="-1.57476">
        <ele>13</ele>
        <time>2026-03-06T11:26:07.000Z</time>
      </trkpt>
      <trkpt lat="43.35768" lon="-1.57469">
        <ele>13</ele>
        <time>2026-03-06T11:26:08.000Z</time>
      </trkpt>
      <trkpt lat="43.35771" lon="-1.57458">
        <ele>13</ele>
        <time>2026-03-06T11:26:09.000Z</time>
      </trkpt>
      <trkpt lat="43.35767" lon="-1.57433">
        <ele>13</ele>
        <time>2026-03-06T11:26:13.000Z</time>
      </trkpt>
      <trkpt lat="43.35763" lon="-1.57418">
        <ele>13</ele>
        <time>2026-03-06T11:26:15.000Z</time>
      </trkpt>
      <trkpt lat="43.35745" lon="-1.57225">
        <ele>14</ele>
        <time>2026-03-06T11:26:40.000Z</time>
      </trkpt>
      <trkpt lat="43.3574" lon="-1.57189">
        <ele>15</ele>
        <time>2026-03-06T11:26:45.000Z</time>
      </trkpt>
      <trkpt lat="43.35733" lon="-1.5716">
        <ele>15</ele>
        <time>2026-03-06T11:26:49.000Z</time>
      </trkpt>
      <trkpt lat="43.35723" lon="-1.57132">
        <ele>15</ele>
        <time>2026-03-06T11:26:53.000Z</time>
      </trkpt>
      <trkpt lat="43.35625" lon="-1.56922">
        <ele>17</ele>
        <time>2026-03-06T11:27:25.000Z</time>
      </trkpt>
      <trkpt lat="43.35597" lon="-1.56872">
        <ele>17</ele>
        <time>2026-03-06T11:27:33.000Z</time>
      </trkpt>
      <trkpt lat="43.35588" lon="-1.56851">
        <ele>17</ele>
        <time>2026-03-06T11:27:36.000Z</time>
      </trkpt>
      <trkpt lat="43.35586" lon="-1.56839">
        <ele>17</ele>
        <time>2026-03-06T11:27:38.000Z</time>
      </trkpt>
      <trkpt lat="43.35585" lon="-1.56813">
        <ele>17</ele>
        <time>2026-03-06T11:27:41.000Z</time>
      </trkpt>
      <trkpt lat="43.35589" lon="-1.56787">
        <ele>17</ele>
        <time>2026-03-06T11:27:45.000Z</time>
      </trkpt>
      <trkpt lat="43.35608" lon="-1.56729">
        <ele>18</ele>
        <time>2026-03-06T11:27:53.000Z</time>
      </trkpt>
      <trkpt lat="43.35617" lon="-1.56692">
        <ele>19</ele>
        <time>2026-03-06T11:27:58.000Z</time>
      </trkpt>
      <trkpt lat="43.35625" lon="-1.56642">
        <ele>19</ele>
        <time>2026-03-06T11:28:04.000Z</time>
      </trkpt>
      <trkpt lat="43.35624" lon="-1.56615">
        <ele>19</ele>
        <time>2026-03-06T11:28:08.000Z</time>
      </trkpt>
      <trkpt lat="43.35619" lon="-1.56612">
        <ele>19</ele>
        <time>2026-03-06T11:28:09.000Z</time>
      </trkpt>
      <trkpt lat="43.35615" lon="-1.56601">
        <ele>19</ele>
        <time>2026-03-06T11:28:11.000Z</time>
      </trkpt>
      <trkpt lat="43.35617" lon="-1.56593">
        <ele>19</ele>
        <time>2026-03-06T11:28:12.000Z</time>
      </trkpt>
      <trkpt lat="43.35624" lon="-1.56587">
        <ele>19</ele>
        <time>2026-03-06T11:28:13.000Z</time>
      </trkpt>
      <trkpt lat="43.35622" lon="-1.56558">
        <ele>19</ele>
        <time>2026-03-06T11:28:17.000Z</time>
      </trkpt>
      <trkpt lat="43.35622" lon="-1.56509">
        <ele>19</ele>
        <time>2026-03-06T11:28:23.000Z</time>
      </trkpt>
      <trkpt lat="43.35616" lon="-1.56498">
        <ele>18</ele>
        <time>2026-03-06T11:28:25.000Z</time>
      </trkpt>
      <trkpt lat="43.3561" lon="-1.56297">
        <ele>18</ele>
        <time>2026-03-06T11:28:51.000Z</time>
      </trkpt>
      <trkpt lat="43.35609" lon="-1.56223">
        <ele>18</ele>
        <time>2026-03-06T11:29:01.000Z</time>
      </trkpt>
      <trkpt lat="43.35614" lon="-1.56149">
        <ele>19</ele>
        <time>2026-03-06T11:29:10.000Z</time>
      </trkpt>
      <trkpt lat="43.35618" lon="-1.56125">
        <ele>18</ele>
        <time>2026-03-06T11:29:13.000Z</time>
      </trkpt>
      <trkpt lat="43.35635" lon="-1.56094">
        <ele>18</ele>
        <time>2026-03-06T11:29:18.000Z</time>
      </trkpt>
      <trkpt lat="43.35642" lon="-1.56085">
        <ele>17</ele>
        <time>2026-03-06T11:29:20.000Z</time>
      </trkpt>
      <trkpt lat="43.35648" lon="-1.5608">
        <ele>17</ele>
        <time>2026-03-06T11:29:21.000Z</time>
      </trkpt>
      <trkpt lat="43.35652" lon="-1.56087">
        <ele>18</ele>
        <time>2026-03-06T11:29:22.000Z</time>
      </trkpt>
      <trkpt lat="43.35721" lon="-1.56041">
        <ele>19</ele>
        <time>2026-03-06T11:29:36.000Z</time>
      </trkpt>
      <trkpt lat="43.3573" lon="-1.56032">
        <ele>19</ele>
        <time>2026-03-06T11:29:38.000Z</time>
      </trkpt>
      <trkpt lat="43.35734" lon="-1.56023">
        <ele>19</ele>
        <time>2026-03-06T11:29:39.000Z</time>
      </trkpt>
      <trkpt lat="43.35739" lon="-1.56006">
        <ele>18</ele>
        <time>2026-03-06T11:29:42.000Z</time>
      </trkpt>
      <trkpt lat="43.35737" lon="-1.55994">
        <ele>17</ele>
        <time>2026-03-06T11:29:43.000Z</time>
      </trkpt>
      <trkpt lat="43.35718" lon="-1.5597">
        <ele>16</ele>
        <time>2026-03-06T11:29:48.000Z</time>
      </trkpt>
      <trkpt lat="43.35682" lon="-1.55941">
        <ele>16</ele>
        <time>2026-03-06T11:29:55.000Z</time>
      </trkpt>
      <trkpt lat="43.35646" lon="-1.55913">
        <ele>16</ele>
        <time>2026-03-06T11:30:03.000Z</time>
      </trkpt>
      <trkpt lat="43.35632" lon="-1.55899">
        <ele>15</ele>
        <time>2026-03-06T11:30:06.000Z</time>
      </trkpt>
      <trkpt lat="43.35606" lon="-1.55857">
        <ele>15</ele>
        <time>2026-03-06T11:30:13.000Z</time>
      </trkpt>
      <trkpt lat="43.35592" lon="-1.55814">
        <ele>15</ele>
        <time>2026-03-06T11:30:19.000Z</time>
      </trkpt>
      <trkpt lat="43.35588" lon="-1.55791">
        <ele>16</ele>
        <time>2026-03-06T11:30:22.000Z</time>
      </trkpt>
      <trkpt lat="43.35585" lon="-1.55731">
        <ele>16</ele>
        <time>2026-03-06T11:30:30.000Z</time>
      </trkpt>
      <trkpt lat="43.35581" lon="-1.55514">
        <ele>13</ele>
        <time>2026-03-06T11:30:58.000Z</time>
      </trkpt>
      <trkpt lat="43.35579" lon="-1.55487">
        <ele>14</ele>
        <time>2026-03-06T11:31:02.000Z</time>
      </trkpt>
      <trkpt lat="43.35576" lon="-1.5547">
        <ele>14</ele>
        <time>2026-03-06T11:31:04.000Z</time>
      </trkpt>
      <trkpt lat="43.35575" lon="-1.55466">
        <ele>14</ele>
        <time>2026-03-06T11:31:04.000Z</time>
      </trkpt>
      <trkpt lat="43.35561" lon="-1.55442">
        <ele>15</ele>
        <time>2026-03-06T11:31:08.000Z</time>
      </trkpt>
      <trkpt lat="43.35552" lon="-1.55434">
        <ele>15</ele>
        <time>2026-03-06T11:31:10.000Z</time>
      </trkpt>
      <trkpt lat="43.35547" lon="-1.55433">
        <ele>15</ele>
        <time>2026-03-06T11:31:11.000Z</time>
      </trkpt>
      <trkpt lat="43.3554" lon="-1.55426">
        <ele>15</ele>
        <time>2026-03-06T11:31:13.000Z</time>
      </trkpt>
      <trkpt lat="43.35537" lon="-1.55419">
        <ele>15</ele>
        <time>2026-03-06T11:31:14.000Z</time>
      </trkpt>
      <trkpt lat="43.35537" lon="-1.55411">
        <ele>16</ele>
        <time>2026-03-06T11:31:15.000Z</time>
      </trkpt>
      <trkpt lat="43.35523" lon="-1.55388">
        <ele>16</ele>
        <time>2026-03-06T11:31:19.000Z</time>
      </trkpt>
      <trkpt lat="43.35509" lon="-1.55378">
        <ele>16</ele>
        <time>2026-03-06T11:31:21.000Z</time>
      </trkpt>
      <trkpt lat="43.35483" lon="-1.5537">
        <ele>16</ele>
        <time>2026-03-06T11:31:26.000Z</time>
      </trkpt>
      <trkpt lat="43.35456" lon="-1.55371">
        <ele>16</ele>
        <time>2026-03-06T11:31:31.000Z</time>
      </trkpt>
      <trkpt lat="43.35398" lon="-1.5538">
        <ele>16</ele>
        <time>2026-03-06T11:31:41.000Z</time>
      </trkpt>
      <trkpt lat="43.35369" lon="-1.55382">
        <ele>16</ele>
        <time>2026-03-06T11:31:47.000Z</time>
      </trkpt>
      <trkpt lat="43.35338" lon="-1.55377">
        <ele>16</ele>
        <time>2026-03-06T11:31:52.000Z</time>
      </trkpt>
      <trkpt lat="43.35313" lon="-1.55363">
        <ele>17</ele>
        <time>2026-03-06T11:31:57.000Z</time>
      </trkpt>
      <trkpt lat="43.35293" lon="-1.55347">
        <ele>17</ele>
        <time>2026-03-06T11:32:01.000Z</time>
      </trkpt>
      <trkpt lat="43.35274" lon="-1.55324">
        <ele>18</ele>
        <time>2026-03-06T11:32:06.000Z</time>
      </trkpt>
      <trkpt lat="43.3524" lon="-1.55257">
        <ele>17</ele>
        <time>2026-03-06T11:32:16.000Z</time>
      </trkpt>
      <trkpt lat="43.35209" lon="-1.55187">
        <ele>16</ele>
        <time>2026-03-06T11:32:27.000Z</time>
      </trkpt>
      <trkpt lat="43.35174" lon="-1.55105">
        <ele>16</ele>
        <time>2026-03-06T11:32:39.000Z</time>
      </trkpt>
      <trkpt lat="43.35123" lon="-1.5499">
        <ele>18</ele>
        <time>2026-03-06T11:32:56.000Z</time>
      </trkpt>
      <trkpt lat="43.35117" lon="-1.54993">
        <ele>18</ele>
        <time>2026-03-06T11:32:58.000Z</time>
      </trkpt>
      <trkpt lat="43.3511" lon="-1.54994">
        <ele>18</ele>
        <time>2026-03-06T11:32:59.000Z</time>
      </trkpt>
      <trkpt lat="43.35104" lon="-1.54993">
        <ele>18</ele>
        <time>2026-03-06T11:33:00.000Z</time>
      </trkpt>
      <trkpt lat="43.35098" lon="-1.54988">
        <ele>18</ele>
        <time>2026-03-06T11:33:01.000Z</time>
      </trkpt>
      <trkpt lat="43.35078" lon="-1.54991">
        <ele>19</ele>
        <time>2026-03-06T11:33:05.000Z</time>
      </trkpt>
      <trkpt lat="43.34874" lon="-1.55162">
        <ele>21</ele>
        <time>2026-03-06T11:33:47.000Z</time>
      </trkpt>
      <trkpt lat="43.34865" lon="-1.55186">
        <ele>20</ele>
        <time>2026-03-06T11:33:51.000Z</time>
      </trkpt>
      <trkpt lat="43.34859" lon="-1.55222">
        <ele>19</ele>
        <time>2026-03-06T11:33:56.000Z</time>
      </trkpt>
      <trkpt lat="43.34857" lon="-1.5523">
        <ele>19</ele>
        <time>2026-03-06T11:33:57.000Z</time>
      </trkpt>
      <trkpt lat="43.34847" lon="-1.55243">
        <ele>18</ele>
        <time>2026-03-06T11:33:59.000Z</time>
      </trkpt>
      <trkpt lat="43.34831" lon="-1.55248">
        <ele>18</ele>
        <time>2026-03-06T11:34:02.000Z</time>
      </trkpt>
      <trkpt lat="43.34821" lon="-1.55247">
        <ele>18</ele>
        <time>2026-03-06T11:34:04.000Z</time>
      </trkpt>
      <trkpt lat="43.34801" lon="-1.55235">
        <ele>19</ele>
        <time>2026-03-06T11:34:08.000Z</time>
      </trkpt>
      <trkpt lat="43.34597" lon="-1.55214">
        <ele>19</ele>
        <time>2026-03-06T11:34:44.000Z</time>
      </trkpt>
      <trkpt lat="43.34571" lon="-1.55205">
        <ele>19</ele>
        <time>2026-03-06T11:34:49.000Z</time>
      </trkpt>
      <trkpt lat="43.34548" lon="-1.55189">
        <ele>20</ele>
        <time>2026-03-06T11:34:53.000Z</time>
      </trkpt>
      <trkpt lat="43.3449" lon="-1.55114">
        <ele>22</ele>
        <time>2026-03-06T11:35:08.000Z</time>
      </trkpt>
      <trkpt lat="43.3434" lon="-1.5491">
        <ele>30</ele>
        <time>2026-03-06T11:35:45.000Z</time>
      </trkpt>
      <trkpt lat="43.34316" lon="-1.54886">
        <ele>30</ele>
        <time>2026-03-06T11:35:50.000Z</time>
      </trkpt>
      <trkpt lat="43.34293" lon="-1.54871">
        <ele>30</ele>
        <time>2026-03-06T11:35:55.000Z</time>
      </trkpt>
      <trkpt lat="43.34268" lon="-1.54861">
        <ele>31</ele>
        <time>2026-03-06T11:36:00.000Z</time>
      </trkpt>
      <trkpt lat="43.34239" lon="-1.54859">
        <ele>32</ele>
        <time>2026-03-06T11:36:05.000Z</time>
      </trkpt>
      <trkpt lat="43.34212" lon="-1.54863">
        <ele>33</ele>
        <time>2026-03-06T11:36:10.000Z</time>
      </trkpt>
      <trkpt lat="43.34189" lon="-1.54871">
        <ele>34</ele>
        <time>2026-03-06T11:36:14.000Z</time>
      </trkpt>
      <trkpt lat="43.33917" lon="-1.55038">
        <ele>45</ele>
        <time>2026-03-06T11:37:07.000Z</time>
      </trkpt>
      <trkpt lat="43.33903" lon="-1.55043">
        <ele>44</ele>
        <time>2026-03-06T11:37:09.000Z</time>
      </trkpt>
      <trkpt lat="43.33883" lon="-1.55045">
        <ele>42</ele>
        <time>2026-03-06T11:37:13.000Z</time>
      </trkpt>
      <trkpt lat="43.33864" lon="-1.55037">
        <ele>40</ele>
        <time>2026-03-06T11:37:16.000Z</time>
      </trkpt>
      <trkpt lat="43.33759" lon="-1.54975">
        <ele>34</ele>
        <time>2026-03-06T11:37:37.000Z</time>
      </trkpt>
      <trkpt lat="43.33749" lon="-1.54969">
        <ele>33</ele>
        <time>2026-03-06T11:37:39.000Z</time>
      </trkpt>
      <trkpt lat="43.33689" lon="-1.54934">
        <ele>34</ele>
        <time>2026-03-06T11:37:50.000Z</time>
      </trkpt>
      <trkpt lat="43.33606" lon="-1.54902">
        <ele>38</ele>
        <time>2026-03-06T11:38:06.000Z</time>
      </trkpt>
      <trkpt lat="43.33531" lon="-1.54866">
        <ele>36</ele>
        <time>2026-03-06T11:38:20.000Z</time>
      </trkpt>
      <trkpt lat="43.33451" lon="-1.54835">
        <ele>35</ele>
        <time>2026-03-06T11:38:35.000Z</time>
      </trkpt>
      <trkpt lat="43.33342" lon="-1.5481">
        <ele>40</ele>
        <time>2026-03-06T11:38:54.000Z</time>
      </trkpt>
      <trkpt lat="43.33317" lon="-1.54798">
        <ele>42</ele>
        <time>2026-03-06T11:38:59.000Z</time>
      </trkpt>
      <trkpt lat="43.33226" lon="-1.54715">
        <ele>40</ele>
        <time>2026-03-06T11:39:18.000Z</time>
      </trkpt>
      <trkpt lat="43.3321" lon="-1.54694">
        <ele>39</ele>
        <time>2026-03-06T11:39:22.000Z</time>
      </trkpt>
      <trkpt lat="43.332" lon="-1.54673">
        <ele>38</ele>
        <time>2026-03-06T11:39:26.000Z</time>
      </trkpt>
      <trkpt lat="43.3317" lon="-1.54594">
        <ele>35</ele>
        <time>2026-03-06T11:39:37.000Z</time>
      </trkpt>
      <trkpt lat="43.33146" lon="-1.54555">
        <ele>34</ele>
        <time>2026-03-06T11:39:44.000Z</time>
      </trkpt>
      <trkpt lat="43.3308" lon="-1.54478">
        <ele>32</ele>
        <time>2026-03-06T11:39:59.000Z</time>
      </trkpt>
      <trkpt lat="43.33056" lon="-1.54454">
        <ele>32</ele>
        <time>2026-03-06T11:40:04.000Z</time>
      </trkpt>
      <trkpt lat="43.33034" lon="-1.54441">
        <ele>31</ele>
        <time>2026-03-06T11:40:09.000Z</time>
      </trkpt>
      <trkpt lat="43.33014" lon="-1.54435">
        <ele>31</ele>
        <time>2026-03-06T11:40:12.000Z</time>
      </trkpt>
      <trkpt lat="43.32992" lon="-1.54437">
        <ele>31</ele>
        <time>2026-03-06T11:40:16.000Z</time>
      </trkpt>
      <trkpt lat="43.32973" lon="-1.54445">
        <ele>31</ele>
        <time>2026-03-06T11:40:20.000Z</time>
      </trkpt>
      <trkpt lat="43.32897" lon="-1.54492">
        <ele>33</ele>
        <time>2026-03-06T11:40:35.000Z</time>
      </trkpt>
      <trkpt lat="43.32876" lon="-1.54504">
        <ele>34</ele>
        <time>2026-03-06T11:40:39.000Z</time>
      </trkpt>
      <trkpt lat="43.32846" lon="-1.54527">
        <ele>37</ele>
        <time>2026-03-06T11:40:45.000Z</time>
      </trkpt>
      <trkpt lat="43.32564" lon="-1.54806">
        <ele>36</ele>
        <time>2026-03-06T11:41:47.000Z</time>
      </trkpt>
      <trkpt lat="43.32463" lon="-1.54893">
        <ele>34</ele>
        <time>2026-03-06T11:42:08.000Z</time>
      </trkpt>
      <trkpt lat="43.32445" lon="-1.54904">
        <ele>34</ele>
        <time>2026-03-06T11:42:11.000Z</time>
      </trkpt>
      <trkpt lat="43.32245" lon="-1.54992">
        <ele>30</ele>
        <time>2026-03-06T11:42:49.000Z</time>
      </trkpt>
      <trkpt lat="43.32183" lon="-1.55023">
        <ele>30</ele>
        <time>2026-03-06T11:43:00.000Z</time>
      </trkpt>
      <trkpt lat="43.32153" lon="-1.55042">
        <ele>31</ele>
        <time>2026-03-06T11:43:06.000Z</time>
      </trkpt>
      <trkpt lat="43.32153" lon="-1.55046">
        <ele>31</ele>
        <time>2026-03-06T11:43:07.000Z</time>
      </trkpt>
      <trkpt lat="43.32151" lon="-1.55053">
        <ele>31</ele>
        <time>2026-03-06T11:43:08.000Z</time>
      </trkpt>
      <trkpt lat="43.32146" lon="-1.55056">
        <ele>31</ele>
        <time>2026-03-06T11:43:09.000Z</time>
      </trkpt>
      <trkpt lat="43.32143" lon="-1.55056">
        <ele>31</ele>
        <time>2026-03-06T11:43:09.000Z</time>
      </trkpt>
      <trkpt lat="43.32091" lon="-1.55274">
        <ele>33</ele>
        <time>2026-03-06T11:43:39.000Z</time>
      </trkpt>
      <trkpt lat="43.32078" lon="-1.55312">
        <ele>33</ele>
        <time>2026-03-06T11:43:44.000Z</time>
      </trkpt>
      <trkpt lat="43.32064" lon="-1.55338">
        <ele>34</ele>
        <time>2026-03-06T11:43:49.000Z</time>
      </trkpt>
      <trkpt lat="43.32054" lon="-1.5535">
        <ele>34</ele>
        <time>2026-03-06T11:43:51.000Z</time>
      </trkpt>
      <trkpt lat="43.32007" lon="-1.55395">
        <ele>35</ele>
        <time>2026-03-06T11:44:01.000Z</time>
      </trkpt>
      <trkpt lat="43.32003" lon="-1.55401">
        <ele>35</ele>
        <time>2026-03-06T11:44:02.000Z</time>
      </trkpt>
      <trkpt lat="43.31996" lon="-1.55417">
        <ele>35</ele>
        <time>2026-03-06T11:44:05.000Z</time>
      </trkpt>
      <trkpt lat="43.3199" lon="-1.55439">
        <ele>35</ele>
        <time>2026-03-06T11:44:08.000Z</time>
      </trkpt>
      <trkpt lat="43.31976" lon="-1.5551">
        <ele>36</ele>
        <time>2026-03-06T11:44:17.000Z</time>
      </trkpt>
      <trkpt lat="43.31946" lon="-1.55635">
        <ele>40</ele>
        <time>2026-03-06T11:44:34.000Z</time>
      </trkpt>
      <trkpt lat="43.31935" lon="-1.55665">
        <ele>41</ele>
        <time>2026-03-06T11:44:39.000Z</time>
      </trkpt>
      <trkpt lat="43.3192" lon="-1.55689">
        <ele>43</ele>
        <time>2026-03-06T11:44:43.000Z</time>
      </trkpt>
      <trkpt lat="43.3188" lon="-1.5574">
        <ele>45</ele>
        <time>2026-03-06T11:44:52.000Z</time>
      </trkpt>
      <trkpt lat="43.31864" lon="-1.55764">
        <ele>46</ele>
        <time>2026-03-06T11:44:57.000Z</time>
      </trkpt>
      <trkpt lat="43.31836" lon="-1.5581">
        <ele>46</ele>
        <time>2026-03-06T11:45:04.000Z</time>
      </trkpt>
      <trkpt lat="43.3181" lon="-1.55859">
        <ele>48</ele>
        <time>2026-03-06T11:45:12.000Z</time>
      </trkpt>
      <trkpt lat="43.31774" lon="-1.55909">
        <ele>50</ele>
        <time>2026-03-06T11:45:21.000Z</time>
      </trkpt>
      <trkpt lat="43.31763" lon="-1.55933">
        <ele>51</ele>
        <time>2026-03-06T11:45:25.000Z</time>
      </trkpt>
      <trkpt lat="43.31756" lon="-1.55967">
        <ele>52</ele>
        <time>2026-03-06T11:45:30.000Z</time>
      </trkpt>
      <trkpt lat="43.31748" lon="-1.55985">
        <ele>52</ele>
        <time>2026-03-06T11:45:32.000Z</time>
      </trkpt>
      <trkpt lat="43.31735" lon="-1.56002">
        <ele>53</ele>
        <time>2026-03-06T11:45:35.000Z</time>
      </trkpt>
      <trkpt lat="43.31661" lon="-1.5608">
        <ele>57</ele>
        <time>2026-03-06T11:45:52.000Z</time>
      </trkpt>
      <trkpt lat="43.31616" lon="-1.5613">
        <ele>55</ele>
        <time>2026-03-06T11:46:02.000Z</time>
      </trkpt>
      <trkpt lat="43.3159" lon="-1.56152">
        <ele>53</ele>
        <time>2026-03-06T11:46:08.000Z</time>
      </trkpt>
      <trkpt lat="43.31574" lon="-1.56157">
        <ele>53</ele>
        <time>2026-03-06T11:46:11.000Z</time>
      </trkpt>
      <trkpt lat="43.3156" lon="-1.56155">
        <ele>53</ele>
        <time>2026-03-06T11:46:13.000Z</time>
      </trkpt>
      <trkpt lat="43.31552" lon="-1.56152">
        <ele>52</ele>
        <time>2026-03-06T11:46:15.000Z</time>
      </trkpt>
      <trkpt lat="43.31492" lon="-1.56109">
        <ele>48</ele>
        <time>2026-03-06T11:46:27.000Z</time>
      </trkpt>
      <trkpt lat="43.31485" lon="-1.56107">
        <ele>48</ele>
        <time>2026-03-06T11:46:28.000Z</time>
      </trkpt>
      <trkpt lat="43.31477" lon="-1.56106">
        <ele>47</ele>
        <time>2026-03-06T11:46:29.000Z</time>
      </trkpt>
      <trkpt lat="43.31468" lon="-1.56113">
        <ele>46</ele>
        <time>2026-03-06T11:46:31.000Z</time>
      </trkpt>
      <trkpt lat="43.31461" lon="-1.56126">
        <ele>46</ele>
        <time>2026-03-06T11:46:33.000Z</time>
      </trkpt>
      <trkpt lat="43.31458" lon="-1.56134">
        <ele>46</ele>
        <time>2026-03-06T11:46:35.000Z</time>
      </trkpt>
      <trkpt lat="43.31448" lon="-1.56194">
        <ele>46</ele>
        <time>2026-03-06T11:46:42.000Z</time>
      </trkpt>
      <trkpt lat="43.31439" lon="-1.56228">
        <ele>45</ele>
        <time>2026-03-06T11:46:47.000Z</time>
      </trkpt>
      <trkpt lat="43.31429" lon="-1.56255">
        <ele>44</ele>
        <time>2026-03-06T11:46:51.000Z</time>
      </trkpt>
      <trkpt lat="43.31417" lon="-1.56278">
        <ele>44</ele>
        <time>2026-03-06T11:46:55.000Z</time>
      </trkpt>
      <trkpt lat="43.31401" lon="-1.56299">
        <ele>44</ele>
        <time>2026-03-06T11:46:59.000Z</time>
      </trkpt>
      <trkpt lat="43.31391" lon="-1.56308">
        <ele>44</ele>
        <time>2026-03-06T11:47:01.000Z</time>
      </trkpt>
      <trkpt lat="43.31331" lon="-1.56357">
        <ele>44</ele>
        <time>2026-03-06T11:47:13.000Z</time>
      </trkpt>
      <trkpt lat="43.31316" lon="-1.56371">
        <ele>45</ele>
        <time>2026-03-06T11:47:16.000Z</time>
      </trkpt>
      <trkpt lat="43.31305" lon="-1.56386">
        <ele>46</ele>
        <time>2026-03-06T11:47:19.000Z</time>
      </trkpt>
      <trkpt lat="43.31264" lon="-1.56459">
        <ele>47</ele>
        <time>2026-03-06T11:47:31.000Z</time>
      </trkpt>
      <trkpt lat="43.31245" lon="-1.56484">
        <ele>47</ele>
        <time>2026-03-06T11:47:36.000Z</time>
      </trkpt>
      <trkpt lat="43.31226" lon="-1.56498">
        <ele>47</ele>
        <time>2026-03-06T11:47:40.000Z</time>
      </trkpt>
      <trkpt lat="43.31137" lon="-1.56551">
        <ele>48</ele>
        <time>2026-03-06T11:47:57.000Z</time>
      </trkpt>
      <trkpt lat="43.31059" lon="-1.56599">
        <ele>47</ele>
        <time>2026-03-06T11:48:12.000Z</time>
      </trkpt>
      <trkpt lat="43.31033" lon="-1.56626">
        <ele>48</ele>
        <time>2026-03-06T11:48:18.000Z</time>
      </trkpt>
      <trkpt lat="43.30981" lon="-1.5672">
        <ele>50</ele>
        <time>2026-03-06T11:48:33.000Z</time>
      </trkpt>
      <trkpt lat="43.30953" lon="-1.56764">
        <ele>49</ele>
        <time>2026-03-06T11:48:41.000Z</time>
      </trkpt>
      <trkpt lat="43.30947" lon="-1.56775">
        <ele>49</ele>
        <time>2026-03-06T11:48:43.000Z</time>
      </trkpt>
      <trkpt lat="43.3094" lon="-1.56798">
        <ele>49</ele>
        <time>2026-03-06T11:48:46.000Z</time>
      </trkpt>
      <trkpt lat="43.30918" lon="-1.56887">
        <ele>50</ele>
        <time>2026-03-06T11:48:58.000Z</time>
      </trkpt>
      <trkpt lat="43.30918" lon="-1.56908">
        <ele>51</ele>
        <time>2026-03-06T11:49:01.000Z</time>
      </trkpt>
      <trkpt lat="43.30921" lon="-1.56933">
        <ele>51</ele>
        <time>2026-03-06T11:49:04.000Z</time>
      </trkpt>
      <trkpt lat="43.30933" lon="-1.56976">
        <ele>50</ele>
        <time>2026-03-06T11:49:10.000Z</time>
      </trkpt>
      <trkpt lat="43.30952" lon="-1.57024">
        <ele>50</ele>
        <time>2026-03-06T11:49:17.000Z</time>
      </trkpt>
      <trkpt lat="43.30978" lon="-1.57064">
        <ele>50</ele>
        <time>2026-03-06T11:49:24.000Z</time>
      </trkpt>
      <trkpt lat="43.30984" lon="-1.57075">
        <ele>50</ele>
        <time>2026-03-06T11:49:26.000Z</time>
      </trkpt>
      <trkpt lat="43.30988" lon="-1.57086">
        <ele>49</ele>
        <time>2026-03-06T11:49:27.000Z</time>
      </trkpt>
      <trkpt lat="43.30989" lon="-1.57111">
        <ele>49</ele>
        <time>2026-03-06T11:49:31.000Z</time>
      </trkpt>
      <trkpt lat="43.30987" lon="-1.57138">
        <ele>48</ele>
        <time>2026-03-06T11:49:34.000Z</time>
      </trkpt>
      <trkpt lat="43.3098" lon="-1.57165">
        <ele>47</ele>
        <time>2026-03-06T11:49:38.000Z</time>
      </trkpt>
      <trkpt lat="43.30968" lon="-1.57201">
        <ele>47</ele>
        <time>2026-03-06T11:49:43.000Z</time>
      </trkpt>
      <trkpt lat="43.30967" lon="-1.57219">
        <ele>47</ele>
        <time>2026-03-06T11:49:45.000Z</time>
      </trkpt>
      <trkpt lat="43.30968" lon="-1.57222">
        <ele>47</ele>
        <time>2026-03-06T11:49:46.000Z</time>
      </trkpt>
      <trkpt lat="43.30966" lon="-1.57231">
        <ele>47</ele>
        <time>2026-03-06T11:49:47.000Z</time>
      </trkpt>
      <trkpt lat="43.30959" lon="-1.57235">
        <ele>47</ele>
        <time>2026-03-06T11:49:48.000Z</time>
      </trkpt>
      <trkpt lat="43.30956" lon="-1.57234">
        <ele>47</ele>
        <time>2026-03-06T11:49:49.000Z</time>
      </trkpt>
      <trkpt lat="43.30882" lon="-1.57267">
        <ele>48</ele>
        <time>2026-03-06T11:50:03.000Z</time>
      </trkpt>
      <trkpt lat="43.30864" lon="-1.57271">
        <ele>48</ele>
        <time>2026-03-06T11:50:06.000Z</time>
      </trkpt>
      <trkpt lat="43.30792" lon="-1.57267">
        <ele>48</ele>
        <time>2026-03-06T11:50:19.000Z</time>
      </trkpt>
      <trkpt lat="43.30782" lon="-1.57268">
        <ele>48</ele>
        <time>2026-03-06T11:50:20.000Z</time>
      </trkpt>
      <trkpt lat="43.30747" lon="-1.57272">
        <ele>48</ele>
        <time>2026-03-06T11:50:27.000Z</time>
      </trkpt>
      <trkpt lat="43.30732" lon="-1.57272">
        <ele>47</ele>
        <time>2026-03-06T11:50:29.000Z</time>
      </trkpt>
      <trkpt lat="43.30718" lon="-1.57268">
        <ele>47</ele>
        <time>2026-03-06T11:50:32.000Z</time>
      </trkpt>
      <trkpt lat="43.30667" lon="-1.57243">
        <ele>45</ele>
        <time>2026-03-06T11:50:42.000Z</time>
      </trkpt>
      <trkpt lat="43.30646" lon="-1.57239">
        <ele>45</ele>
        <time>2026-03-06T11:50:45.000Z</time>
      </trkpt>
      <trkpt lat="43.30597" lon="-1.57239">
        <ele>45</ele>
        <time>2026-03-06T11:50:54.000Z</time>
      </trkpt>
      <trkpt lat="43.30576" lon="-1.57247">
        <ele>45</ele>
        <time>2026-03-06T11:50:58.000Z</time>
      </trkpt>
      <trkpt lat="43.30509" lon="-1.57281">
        <ele>49</ele>
        <time>2026-03-06T11:51:11.000Z</time>
      </trkpt>
      <trkpt lat="43.30479" lon="-1.57306">
        <ele>50</ele>
        <time>2026-03-06T11:51:17.000Z</time>
      </trkpt>
      <trkpt lat="43.30416" lon="-1.57342">
        <ele>48</ele>
        <time>2026-03-06T11:51:29.000Z</time>
      </trkpt>
      <trkpt lat="43.30399" lon="-1.57356">
        <ele>50</ele>
        <time>2026-03-06T11:51:33.000Z</time>
      </trkpt>
      <trkpt lat="43.30367" lon="-1.57388">
        <ele>52</ele>
        <time>2026-03-06T11:51:40.000Z</time>
      </trkpt>
      <trkpt lat="43.30329" lon="-1.57434">
        <ele>53</ele>
        <time>2026-03-06T11:51:49.000Z</time>
      </trkpt>
      <trkpt lat="43.30313" lon="-1.57448">
        <ele>53</ele>
        <time>2026-03-06T11:51:52.000Z</time>
      </trkpt>
      <trkpt lat="43.30303" lon="-1.57455">
        <ele>53</ele>
        <time>2026-03-06T11:51:54.000Z</time>
      </trkpt>
      <trkpt lat="43.30282" lon="-1.57459">
        <ele>51</ele>
        <time>2026-03-06T11:51:58.000Z</time>
      </trkpt>
      <trkpt lat="43.30256" lon="-1.57461">
        <ele>50</ele>
        <time>2026-03-06T11:52:02.000Z</time>
      </trkpt>
      <trkpt lat="43.30223" lon="-1.57458">
        <ele>55</ele>
        <time>2026-03-06T11:52:08.000Z</time>
      </trkpt>
      <trkpt lat="43.30215" lon="-1.57454">
        <ele>56</ele>
        <time>2026-03-06T11:52:10.000Z</time>
      </trkpt>
      <trkpt lat="43.3021" lon="-1.57449">
        <ele>56</ele>
        <time>2026-03-06T11:52:11.000Z</time>
      </trkpt>
      <trkpt lat="43.30176" lon="-1.57403">
        <ele>54</ele>
        <time>2026-03-06T11:52:19.000Z</time>
      </trkpt>
      <trkpt lat="43.30167" lon="-1.57388">
        <ele>53</ele>
        <time>2026-03-06T11:52:22.000Z</time>
      </trkpt>
      <trkpt lat="43.30133" lon="-1.5732">
        <ele>53</ele>
        <time>2026-03-06T11:52:33.000Z</time>
      </trkpt>
      <trkpt lat="43.30127" lon="-1.57309">
        <ele>53</ele>
        <time>2026-03-06T11:52:34.000Z</time>
      </trkpt>
      <trkpt lat="43.30114" lon="-1.57292">
        <ele>53</ele>
        <time>2026-03-06T11:52:38.000Z</time>
      </trkpt>
      <trkpt lat="43.30077" lon="-1.57259">
        <ele>51</ele>
        <time>2026-03-06T11:52:45.000Z</time>
      </trkpt>
      <trkpt lat="43.30046" lon="-1.57219">
        <ele>52</ele>
        <time>2026-03-06T11:52:53.000Z</time>
      </trkpt>
      <trkpt lat="43.30018" lon="-1.57189">
        <ele>52</ele>
        <time>2026-03-06T11:52:59.000Z</time>
      </trkpt>
      <trkpt lat="43.29996" lon="-1.57171">
        <ele>50</ele>
        <time>2026-03-06T11:53:04.000Z</time>
      </trkpt>
      <trkpt lat="43.29977" lon="-1.57164">
        <ele>50</ele>
        <time>2026-03-06T11:53:07.000Z</time>
      </trkpt>
      <trkpt lat="43.29956" lon="-1.57166">
        <ele>51</ele>
        <time>2026-03-06T11:53:11.000Z</time>
      </trkpt>
      <trkpt lat="43.29896" lon="-1.57202">
        <ele>56</ele>
        <time>2026-03-06T11:53:23.000Z</time>
      </trkpt>
      <trkpt lat="43.29866" lon="-1.5721">
        <ele>56</ele>
        <time>2026-03-06T11:53:28.000Z</time>
      </trkpt>
      <trkpt lat="43.29853" lon="-1.57218">
        <ele>56</ele>
        <time>2026-03-06T11:53:31.000Z</time>
      </trkpt>
      <trkpt lat="43.29844" lon="-1.57232">
        <ele>56</ele>
        <time>2026-03-06T11:53:33.000Z</time>
      </trkpt>
      <trkpt lat="43.29828" lon="-1.57282">
        <ele>57</ele>
        <time>2026-03-06T11:53:40.000Z</time>
      </trkpt>
      <trkpt lat="43.29812" lon="-1.57304">
        <ele>57</ele>
        <time>2026-03-06T11:53:44.000Z</time>
      </trkpt>
      <trkpt lat="43.29723" lon="-1.57347">
        <ele>55</ele>
        <time>2026-03-06T11:54:01.000Z</time>
      </trkpt>
      <trkpt lat="43.29634" lon="-1.57366">
        <ele>56</ele>
        <time>2026-03-06T11:54:17.000Z</time>
      </trkpt>
      <trkpt lat="43.29611" lon="-1.57386">
        <ele>56</ele>
        <time>2026-03-06T11:54:22.000Z</time>
      </trkpt>
      <trkpt lat="43.29566" lon="-1.57447">
        <ele>56</ele>
        <time>2026-03-06T11:54:33.000Z</time>
      </trkpt>
      <trkpt lat="43.29543" lon="-1.57489">
        <ele>57</ele>
        <time>2026-03-06T11:54:40.000Z</time>
      </trkpt>
      <trkpt lat="43.29496" lon="-1.57602">
        <ele>58</ele>
        <time>2026-03-06T11:54:57.000Z</time>
      </trkpt>
      <trkpt lat="43.29479" lon="-1.57628">
        <ele>59</ele>
        <time>2026-03-06T11:55:01.000Z</time>
      </trkpt>
      <trkpt lat="43.29395" lon="-1.5772">
        <ele>65</ele>
        <time>2026-03-06T11:55:20.000Z</time>
      </trkpt>
      <trkpt lat="43.29344" lon="-1.5777">
        <ele>67</ele>
        <time>2026-03-06T11:55:32.000Z</time>
      </trkpt>
      <trkpt lat="43.29299" lon="-1.57811">
        <ele>68</ele>
        <time>2026-03-06T11:55:41.000Z</time>
      </trkpt>
      <trkpt lat="43.29245" lon="-1.57844">
        <ele>66</ele>
        <time>2026-03-06T11:55:52.000Z</time>
      </trkpt>
      <trkpt lat="43.29177" lon="-1.57898">
        <ele>65</ele>
        <time>2026-03-06T11:56:06.000Z</time>
      </trkpt>
      <trkpt lat="43.29157" lon="-1.57909">
        <ele>63</ele>
        <time>2026-03-06T11:56:10.000Z</time>
      </trkpt>
      <trkpt lat="43.29048" lon="-1.57926">
        <ele>65</ele>
        <time>2026-03-06T11:56:29.000Z</time>
      </trkpt>
      <trkpt lat="43.29031" lon="-1.57936">
        <ele>65</ele>
        <time>2026-03-06T11:56:32.000Z</time>
      </trkpt>
      <trkpt lat="43.28885" lon="-1.58043">
        <ele>69</ele>
        <time>2026-03-06T11:57:02.000Z</time>
      </trkpt>
      <trkpt lat="43.28851" lon="-1.58062">
        <ele>70</ele>
        <time>2026-03-06T11:57:08.000Z</time>
      </trkpt>
      <trkpt lat="43.28784" lon="-1.58093">
        <ele>72</ele>
        <time>2026-03-06T11:57:21.000Z</time>
      </trkpt>
      <trkpt lat="43.28737" lon="-1.58121">
        <ele>74</ele>
        <time>2026-03-06T11:57:30.000Z</time>
      </trkpt>
      <trkpt lat="43.28706" lon="-1.58158">
        <ele>75</ele>
        <time>2026-03-06T11:57:37.000Z</time>
      </trkpt>
      <trkpt lat="43.28648" lon="-1.58243">
        <ele>77</ele>
        <time>2026-03-06T11:57:52.000Z</time>
      </trkpt>
      <trkpt lat="43.28527" lon="-1.58436">
        <ele>76</ele>
        <time>2026-03-06T11:58:25.000Z</time>
      </trkpt>
      <trkpt lat="43.28439" lon="-1.58607">
        <ele>82</ele>
        <time>2026-03-06T11:58:53.000Z</time>
      </trkpt>
      <trkpt lat="43.28439" lon="-1.58613">
        <ele>82</ele>
        <time>2026-03-06T11:58:53.000Z</time>
      </trkpt>
      <trkpt lat="43.2841" lon="-1.58664">
        <ele>84</ele>
        <time>2026-03-06T11:59:02.000Z</time>
      </trkpt>
      <trkpt lat="43.28355" lon="-1.58791">
        <ele>84</ele>
        <time>2026-03-06T11:59:21.000Z</time>
      </trkpt>
      <trkpt lat="43.2834" lon="-1.58823">
        <ele>83</ele>
        <time>2026-03-06T11:59:26.000Z</time>
      </trkpt>
      <trkpt lat="43.28283" lon="-1.58918">
        <ele>85</ele>
        <time>2026-03-06T11:59:42.000Z</time>
      </trkpt>
      <trkpt lat="43.28237" lon="-1.59004">
        <ele>89</ele>
        <time>2026-03-06T11:59:56.000Z</time>
      </trkpt>
      <trkpt lat="43.28173" lon="-1.59115">
        <ele>90</ele>
        <time>2026-03-06T12:00:14.000Z</time>
      </trkpt>
      <trkpt lat="43.28163" lon="-1.59143">
        <ele>91</ele>
        <time>2026-03-06T12:00:18.000Z</time>
      </trkpt>
      <trkpt lat="43.2816" lon="-1.59158">
        <ele>92</ele>
        <time>2026-03-06T12:00:20.000Z</time>
      </trkpt>
      <trkpt lat="43.28158" lon="-1.59236">
        <ele>96</ele>
        <time>2026-03-06T12:00:30.000Z</time>
      </trkpt>
      <trkpt lat="43.28154" lon="-1.5926">
        <ele>97</ele>
        <time>2026-03-06T12:00:33.000Z</time>
      </trkpt>
      <trkpt lat="43.28141" lon="-1.59292">
        <ele>99</ele>
        <time>2026-03-06T12:00:38.000Z</time>
      </trkpt>
      <trkpt lat="43.28088" lon="-1.59396">
        <ele>96</ele>
        <time>2026-03-06T12:00:54.000Z</time>
      </trkpt>
      <trkpt lat="43.28029" lon="-1.59479">
        <ele>100</ele>
        <time>2026-03-06T12:01:09.000Z</time>
      </trkpt>
      <trkpt lat="43.27976" lon="-1.5956">
        <ele>108</ele>
        <time>2026-03-06T12:01:24.000Z</time>
      </trkpt>
      <trkpt lat="43.27929" lon="-1.59614">
        <ele>112</ele>
        <time>2026-03-06T12:01:34.000Z</time>
      </trkpt>
      <trkpt lat="43.27925" lon="-1.59631">
        <ele>112</ele>
        <time>2026-03-06T12:01:37.000Z</time>
      </trkpt>
      <trkpt lat="43.27926" lon="-1.59668">
        <ele>111</ele>
        <time>2026-03-06T12:01:42.000Z</time>
      </trkpt>
      <trkpt lat="43.27932" lon="-1.5972">
        <ele>109</ele>
        <time>2026-03-06T12:01:48.000Z</time>
      </trkpt>
      <trkpt lat="43.27936" lon="-1.598">
        <ele>108</ele>
        <time>2026-03-06T12:01:59.000Z</time>
      </trkpt>
      <trkpt lat="43.27933" lon="-1.5989">
        <ele>109</ele>
        <time>2026-03-06T12:02:10.000Z</time>
      </trkpt>
      <trkpt lat="43.27934" lon="-1.59924">
        <ele>111</ele>
        <time>2026-03-06T12:02:15.000Z</time>
      </trkpt>
      <trkpt lat="43.27939" lon="-1.59981">
        <ele>114</ele>
        <time>2026-03-06T12:02:22.000Z</time>
      </trkpt>
      <trkpt lat="43.27952" lon="-1.60018">
        <ele>116</ele>
        <time>2026-03-06T12:02:28.000Z</time>
      </trkpt>
      <trkpt lat="43.27956" lon="-1.60039">
        <ele>117</ele>
        <time>2026-03-06T12:02:30.000Z</time>
      </trkpt>
      <trkpt lat="43.27955" lon="-1.60085">
        <ele>119</ele>
        <time>2026-03-06T12:02:36.000Z</time>
      </trkpt>
      <trkpt lat="43.27948" lon="-1.60145">
        <ele>122</ele>
        <time>2026-03-06T12:02:44.000Z</time>
      </trkpt>
      <trkpt lat="43.27943" lon="-1.60176">
        <ele>123</ele>
        <time>2026-03-06T12:02:48.000Z</time>
      </trkpt>
      <trkpt lat="43.27936" lon="-1.60191">
        <ele>123</ele>
        <time>2026-03-06T12:02:51.000Z</time>
      </trkpt>
      <trkpt lat="43.27925" lon="-1.60201">
        <ele>121</ele>
        <time>2026-03-06T12:02:53.000Z</time>
      </trkpt>
      <trkpt lat="43.27914" lon="-1.60201">
        <ele>120</ele>
        <time>2026-03-06T12:02:55.000Z</time>
      </trkpt>
      <trkpt lat="43.2785" lon="-1.60192">
        <ele>123</ele>
        <time>2026-03-06T12:03:06.000Z</time>
      </trkpt>
      <trkpt lat="43.27835" lon="-1.60192">
        <ele>124</ele>
        <time>2026-03-06T12:03:09.000Z</time>
      </trkpt>
      <trkpt lat="43.27785" lon="-1.60223">
        <ele>132</ele>
        <time>2026-03-06T12:03:19.000Z</time>
      </trkpt>
      <trkpt lat="43.27757" lon="-1.60233">
        <ele>136</ele>
        <time>2026-03-06T12:03:24.000Z</time>
      </trkpt>
      <trkpt lat="43.27708" lon="-1.60237">
        <ele>137</ele>
        <time>2026-03-06T12:03:33.000Z</time>
      </trkpt>
      <trkpt lat="43.27689" lon="-1.60244">
        <ele>137</ele>
        <time>2026-03-06T12:03:36.000Z</time>
      </trkpt>
      <trkpt lat="43.27675" lon="-1.60254">
        <ele>138</ele>
        <time>2026-03-06T12:03:39.000Z</time>
      </trkpt>
      <trkpt lat="43.27652" lon="-1.60278">
        <ele>142</ele>
        <time>2026-03-06T12:03:44.000Z</time>
      </trkpt>
      <trkpt lat="43.27639" lon="-1.60288">
        <ele>142</ele>
        <time>2026-03-06T12:03:47.000Z</time>
      </trkpt>
      <trkpt lat="43.276" lon="-1.60299">
        <ele>140</ele>
        <time>2026-03-06T12:03:54.000Z</time>
      </trkpt>
      <trkpt lat="43.27592" lon="-1.60307">
        <ele>139</ele>
        <time>2026-03-06T12:03:56.000Z</time>
      </trkpt>
      <trkpt lat="43.27583" lon="-1.60325">
        <ele>140</ele>
        <time>2026-03-06T12:03:58.000Z</time>
      </trkpt>
      <trkpt lat="43.27575" lon="-1.60365">
        <ele>144</ele>
        <time>2026-03-06T12:04:04.000Z</time>
      </trkpt>
      <trkpt lat="43.27574" lon="-1.60392">
        <ele>146</ele>
        <time>2026-03-06T12:04:07.000Z</time>
      </trkpt>
      <trkpt lat="43.27579" lon="-1.60423">
        <ele>148</ele>
        <time>2026-03-06T12:04:11.000Z</time>
      </trkpt>
      <trkpt lat="43.2759" lon="-1.60469">
        <ele>150</ele>
        <time>2026-03-06T12:04:18.000Z</time>
      </trkpt>
      <trkpt lat="43.2759" lon="-1.60492">
        <ele>151</ele>
        <time>2026-03-06T12:04:21.000Z</time>
      </trkpt>
      <trkpt lat="43.27588" lon="-1.60563">
        <ele>156</ele>
        <time>2026-03-06T12:04:30.000Z</time>
      </trkpt>
      <trkpt lat="43.2759" lon="-1.60594">
        <ele>161</ele>
        <time>2026-03-06T12:04:34.000Z</time>
      </trkpt>
      <trkpt lat="43.27585" lon="-1.60601">
        <ele>161</ele>
        <time>2026-03-06T12:04:35.000Z</time>
      </trkpt>
      <trkpt lat="43.27552" lon="-1.60606">
        <ele>166</ele>
        <time>2026-03-06T12:04:41.000Z</time>
      </trkpt>
      <trkpt lat="43.2754" lon="-1.60603">
        <ele>168</ele>
        <time>2026-03-06T12:04:43.000Z</time>
      </trkpt>
      <trkpt lat="43.27534" lon="-1.60596">
        <ele>167</ele>
        <time>2026-03-06T12:04:45.000Z</time>
      </trkpt>
      <trkpt lat="43.27529" lon="-1.60582">
        <ele>165</ele>
        <time>2026-03-06T12:04:47.000Z</time>
      </trkpt>
      <trkpt lat="43.27526" lon="-1.60558">
        <ele>164</ele>
        <time>2026-03-06T12:04:50.000Z</time>
      </trkpt>
      <trkpt lat="43.27529" lon="-1.60514">
        <ele>160</ele>
        <time>2026-03-06T12:04:56.000Z</time>
      </trkpt>
      <trkpt lat="43.27523" lon="-1.60479">
        <ele>159</ele>
        <time>2026-03-06T12:05:00.000Z</time>
      </trkpt>
      <trkpt lat="43.27509" lon="-1.60446">
        <ele>161</ele>
        <time>2026-03-06T12:05:05.000Z</time>
      </trkpt>
      <trkpt lat="43.27496" lon="-1.60419">
        <ele>162</ele>
        <time>2026-03-06T12:05:09.000Z</time>
      </trkpt>
      <trkpt lat="43.27458" lon="-1.60373">
        <ele>161</ele>
        <time>2026-03-06T12:05:18.000Z</time>
      </trkpt>
      <trkpt lat="43.27451" lon="-1.60372">
        <ele>162</ele>
        <time>2026-03-06T12:05:20.000Z</time>
      </trkpt>
      <trkpt lat="43.2741" lon="-1.60379">
        <ele>169</ele>
        <time>2026-03-06T12:05:27.000Z</time>
      </trkpt>
      <trkpt lat="43.27373" lon="-1.60365">
        <ele>167</ele>
        <time>2026-03-06T12:05:34.000Z</time>
      </trkpt>
      <trkpt lat="43.27351" lon="-1.60366">
        <ele>168</ele>
        <time>2026-03-06T12:05:38.000Z</time>
      </trkpt>
      <trkpt lat="43.27324" lon="-1.60379">
        <ele>172</ele>
        <time>2026-03-06T12:05:43.000Z</time>
      </trkpt>
      <trkpt lat="43.27304" lon="-1.60381">
        <ele>174</ele>
        <time>2026-03-06T12:05:46.000Z</time>
      </trkpt>
      <trkpt lat="43.27279" lon="-1.6039">
        <ele>178</ele>
        <time>2026-03-06T12:05:51.000Z</time>
      </trkpt>
      <trkpt lat="43.27264" lon="-1.60392">
        <ele>180</ele>
        <time>2026-03-06T12:05:54.000Z</time>
      </trkpt>
      <trkpt lat="43.27236" lon="-1.60385">
        <ele>180</ele>
        <time>2026-03-06T12:05:59.000Z</time>
      </trkpt>
      <trkpt lat="43.27227" lon="-1.60386">
        <ele>181</ele>
        <time>2026-03-06T12:06:00.000Z</time>
      </trkpt>
      <trkpt lat="43.27221" lon="-1.60389">
        <ele>182</ele>
        <time>2026-03-06T12:06:02.000Z</time>
      </trkpt>
      <trkpt lat="43.27198" lon="-1.6041">
        <ele>189</ele>
        <time>2026-03-06T12:06:06.000Z</time>
      </trkpt>
      <trkpt lat="43.2714" lon="-1.60422">
        <ele>195</ele>
        <time>2026-03-06T12:06:17.000Z</time>
      </trkpt>
      <trkpt lat="43.27108" lon="-1.60435">
        <ele>200</ele>
        <time>2026-03-06T12:06:23.000Z</time>
      </trkpt>
      <trkpt lat="43.27096" lon="-1.6043">
        <ele>199</ele>
        <time>2026-03-06T12:06:25.000Z</time>
      </trkpt>
      <trkpt lat="43.27082" lon="-1.60419">
        <ele>197</ele>
        <time>2026-03-06T12:06:28.000Z</time>
      </trkpt>
      <trkpt lat="43.27061" lon="-1.60411">
        <ele>194</ele>
        <time>2026-03-06T12:06:32.000Z</time>
      </trkpt>
      <trkpt lat="43.27049" lon="-1.60409">
        <ele>193</ele>
        <time>2026-03-06T12:06:34.000Z</time>
      </trkpt>
      <trkpt lat="43.27028" lon="-1.60412">
        <ele>193</ele>
        <time>2026-03-06T12:06:38.000Z</time>
      </trkpt>
      <trkpt lat="43.2702" lon="-1.60418">
        <ele>193</ele>
        <time>2026-03-06T12:06:39.000Z</time>
      </trkpt>
      <trkpt lat="43.2701" lon="-1.60428">
        <ele>195</ele>
        <time>2026-03-06T12:06:42.000Z</time>
      </trkpt>
      <trkpt lat="43.26999" lon="-1.60445">
        <ele>199</ele>
        <time>2026-03-06T12:06:44.000Z</time>
      </trkpt>
      <trkpt lat="43.26972" lon="-1.60476">
        <ele>205</ele>
        <time>2026-03-06T12:06:51.000Z</time>
      </trkpt>
      <trkpt lat="43.26897" lon="-1.60549">
        <ele>218</ele>
        <time>2026-03-06T12:07:07.000Z</time>
      </trkpt>
      <trkpt lat="43.26877" lon="-1.60578">
        <ele>224</ele>
        <time>2026-03-06T12:07:12.000Z</time>
      </trkpt>
      <trkpt lat="43.26828" lon="-1.60618">
        <ele>232</ele>
        <time>2026-03-06T12:07:22.000Z</time>
      </trkpt>
      <trkpt lat="43.26823" lon="-1.60617">
        <ele>233</ele>
        <time>2026-03-06T12:07:23.000Z</time>
      </trkpt>
      <trkpt lat="43.26821" lon="-1.60613">
        <ele>232</ele>
        <time>2026-03-06T12:07:24.000Z</time>
      </trkpt>
      <trkpt lat="43.26821" lon="-1.60606">
        <ele>231</ele>
        <time>2026-03-06T12:07:25.000Z</time>
      </trkpt>
      <trkpt lat="43.2686" lon="-1.60521">
        <ele>218</ele>
        <time>2026-03-06T12:07:38.000Z</time>
      </trkpt>
      <trkpt lat="43.26874" lon="-1.60475">
        <ele>210</ele>
        <time>2026-03-06T12:07:44.000Z</time>
      </trkpt>
      <trkpt lat="43.26877" lon="-1.60453">
        <ele>206</ele>
        <time>2026-03-06T12:07:47.000Z</time>
      </trkpt>
      <trkpt lat="43.26877" lon="-1.6044">
        <ele>204</ele>
        <time>2026-03-06T12:07:49.000Z</time>
      </trkpt>
      <trkpt lat="43.26875" lon="-1.60433">
        <ele>204</ele>
        <time>2026-03-06T12:07:50.000Z</time>
      </trkpt>
      <trkpt lat="43.2687" lon="-1.60427">
        <ele>205</ele>
        <time>2026-03-06T12:07:51.000Z</time>
      </trkpt>
      <trkpt lat="43.2686" lon="-1.60423">
        <ele>206</ele>
        <time>2026-03-06T12:07:53.000Z</time>
      </trkpt>
      <trkpt lat="43.26847" lon="-1.60425">
        <ele>210</ele>
        <time>2026-03-06T12:07:55.000Z</time>
      </trkpt>
      <trkpt lat="43.26811" lon="-1.60435">
        <ele>217</ele>
        <time>2026-03-06T12:08:02.000Z</time>
      </trkpt>
      <trkpt lat="43.26771" lon="-1.60449">
        <ele>223</ele>
        <time>2026-03-06T12:08:09.000Z</time>
      </trkpt>
      <trkpt lat="43.26743" lon="-1.60463">
        <ele>229</ele>
        <time>2026-03-06T12:08:14.000Z</time>
      </trkpt>
      <trkpt lat="43.26723" lon="-1.60478">
        <ele>233</ele>
        <time>2026-03-06T12:08:18.000Z</time>
      </trkpt>
      <trkpt lat="43.26712" lon="-1.60489">
        <ele>235</ele>
        <time>2026-03-06T12:08:21.000Z</time>
      </trkpt>
      <trkpt lat="43.267" lon="-1.60492">
        <ele>236</ele>
        <time>2026-03-06T12:08:23.000Z</time>
      </trkpt>
      <trkpt lat="43.26677" lon="-1.60492">
        <ele>236</ele>
        <time>2026-03-06T12:08:27.000Z</time>
      </trkpt>
      <trkpt lat="43.26634" lon="-1.6048">
        <ele>239</ele>
        <time>2026-03-06T12:08:35.000Z</time>
      </trkpt>
      <trkpt lat="43.26614" lon="-1.60478">
        <ele>242</ele>
        <time>2026-03-06T12:08:39.000Z</time>
      </trkpt>
      <trkpt lat="43.26588" lon="-1.6048">
        <ele>245</ele>
        <time>2026-03-06T12:08:43.000Z</time>
      </trkpt>
      <trkpt lat="43.26556" lon="-1.60489">
        <ele>250</ele>
        <time>2026-03-06T12:08:49.000Z</time>
      </trkpt>
      <trkpt lat="43.26515" lon="-1.60481">
        <ele>254</ele>
        <time>2026-03-06T12:08:56.000Z</time>
      </trkpt>
      <trkpt lat="43.265" lon="-1.60483">
        <ele>255</ele>
        <time>2026-03-06T12:08:59.000Z</time>
      </trkpt>
      <trkpt lat="43.2644" lon="-1.60497">
        <ele>256</ele>
        <time>2026-03-06T12:09:10.000Z</time>
      </trkpt>
      <trkpt lat="43.26413" lon="-1.60498">
        <ele>255</ele>
        <time>2026-03-06T12:09:15.000Z</time>
      </trkpt>
      <trkpt lat="43.26401" lon="-1.60507">
        <ele>256</ele>
        <time>2026-03-06T12:09:17.000Z</time>
      </trkpt>
      <trkpt lat="43.26366" lon="-1.60571">
        <ele>267</ele>
        <time>2026-03-06T12:09:27.000Z</time>
      </trkpt>
      <trkpt lat="43.26354" lon="-1.60584">
        <ele>267</ele>
        <time>2026-03-06T12:09:30.000Z</time>
      </trkpt>
      <trkpt lat="43.26331" lon="-1.60588">
        <ele>264</ele>
        <time>2026-03-06T12:09:34.000Z</time>
      </trkpt>
      <trkpt lat="43.2632" lon="-1.60585">
        <ele>263</ele>
        <time>2026-03-06T12:09:36.000Z</time>
      </trkpt>
      <trkpt lat="43.263" lon="-1.60573">
        <ele>262</ele>
        <time>2026-03-06T12:09:40.000Z</time>
      </trkpt>
      <trkpt lat="43.26281" lon="-1.6057">
        <ele>262</ele>
        <time>2026-03-06T12:09:44.000Z</time>
      </trkpt>
      <trkpt lat="43.26259" lon="-1.60586">
        <ele>264</ele>
        <time>2026-03-06T12:09:48.000Z</time>
      </trkpt>
      <trkpt lat="43.26251" lon="-1.60583">
        <ele>263</ele>
        <time>2026-03-06T12:09:49.000Z</time>
      </trkpt>
      <trkpt lat="43.26244" lon="-1.60577">
        <ele>263</ele>
        <time>2026-03-06T12:09:51.000Z</time>
      </trkpt>
      <trkpt lat="43.26232" lon="-1.60556">
        <ele>261</ele>
        <time>2026-03-06T12:09:54.000Z</time>
      </trkpt>
      <trkpt lat="43.26228" lon="-1.60554">
        <ele>261</ele>
        <time>2026-03-06T12:09:55.000Z</time>
      </trkpt>
      <trkpt lat="43.26217" lon="-1.60556">
        <ele>262</ele>
        <time>2026-03-06T12:09:57.000Z</time>
      </trkpt>
      <trkpt lat="43.26211" lon="-1.60571">
        <ele>264</ele>
        <time>2026-03-06T12:09:59.000Z</time>
      </trkpt>
      <trkpt lat="43.26212" lon="-1.60594">
        <ele>267</ele>
        <time>2026-03-06T12:10:02.000Z</time>
      </trkpt>
      <trkpt lat="43.26209" lon="-1.60616">
        <ele>270</ele>
        <time>2026-03-06T12:10:05.000Z</time>
      </trkpt>
      <trkpt lat="43.26195" lon="-1.60669">
        <ele>279</ele>
        <time>2026-03-06T12:10:13.000Z</time>
      </trkpt>
      <trkpt lat="43.26189" lon="-1.60726">
        <ele>285</ele>
        <time>2026-03-06T12:10:20.000Z</time>
      </trkpt>
      <trkpt lat="43.26188" lon="-1.60786">
        <ele>293</ele>
        <time>2026-03-06T12:10:28.000Z</time>
      </trkpt>
      <trkpt lat="43.26193" lon="-1.6083">
        <ele>299</ele>
        <time>2026-03-06T12:10:34.000Z</time>
      </trkpt>
      <trkpt lat="43.26212" lon="-1.60927">
        <ele>306</ele>
        <time>2026-03-06T12:10:47.000Z</time>
      </trkpt>
      <trkpt lat="43.26218" lon="-1.60932">
        <ele>306</ele>
        <time>2026-03-06T12:10:48.000Z</time>
      </trkpt>
      <trkpt lat="43.26224" lon="-1.60931">
        <ele>306</ele>
        <time>2026-03-06T12:10:49.000Z</time>
      </trkpt>
      <trkpt lat="43.26225" lon="-1.60921">
        <ele>304</ele>
        <time>2026-03-06T12:10:50.000Z</time>
      </trkpt>
      <trkpt lat="43.26216" lon="-1.60885">
        <ele>302</ele>
        <time>2026-03-06T12:10:55.000Z</time>
      </trkpt>
      <trkpt lat="43.26212" lon="-1.60822">
        <ele>298</ele>
        <time>2026-03-06T12:11:03.000Z</time>
      </trkpt>
      <trkpt lat="43.26217" lon="-1.60777">
        <ele>293</ele>
        <time>2026-03-06T12:11:09.000Z</time>
      </trkpt>
      <trkpt lat="43.26226" lon="-1.60748">
        <ele>290</ele>
        <time>2026-03-06T12:11:13.000Z</time>
      </trkpt>
      <trkpt lat="43.26233" lon="-1.60735">
        <ele>289</ele>
        <time>2026-03-06T12:11:15.000Z</time>
      </trkpt>
      <trkpt lat="43.26241" lon="-1.60731">
        <ele>289</ele>
        <time>2026-03-06T12:11:17.000Z</time>
      </trkpt>
      <trkpt lat="43.26249" lon="-1.60734">
        <ele>289</ele>
        <time>2026-03-06T12:11:18.000Z</time>
      </trkpt>
      <trkpt lat="43.26254" lon="-1.60738">
        <ele>291</ele>
        <time>2026-03-06T12:11:19.000Z</time>
      </trkpt>
      <trkpt lat="43.26258" lon="-1.60746">
        <ele>293</ele>
        <time>2026-03-06T12:11:21.000Z</time>
      </trkpt>
      <trkpt lat="43.26256" lon="-1.60757">
        <ele>294</ele>
        <time>2026-03-06T12:11:22.000Z</time>
      </trkpt>
      <trkpt lat="43.26238" lon="-1.60788">
        <ele>295</ele>
        <time>2026-03-06T12:11:27.000Z</time>
      </trkpt>
      <trkpt lat="43.26235" lon="-1.60803">
        <ele>297</ele>
        <time>2026-03-06T12:11:29.000Z</time>
      </trkpt>
      <trkpt lat="43.26241" lon="-1.60828">
        <ele>299</ele>
        <time>2026-03-06T12:11:33.000Z</time>
      </trkpt>
      <trkpt lat="43.26248" lon="-1.60866">
        <ele>301</ele>
        <time>2026-03-06T12:11:38.000Z</time>
      </trkpt>
      <trkpt lat="43.26263" lon="-1.60904">
        <ele>306</ele>
        <time>2026-03-06T12:11:43.000Z</time>
      </trkpt>
      <trkpt lat="43.26279" lon="-1.6092">
        <ele>312</ele>
        <time>2026-03-06T12:11:47.000Z</time>
      </trkpt>
      <trkpt lat="43.26284" lon="-1.60933">
        <ele>315</ele>
        <time>2026-03-06T12:11:49.000Z</time>
      </trkpt>
      <trkpt lat="43.2628" lon="-1.60947">
        <ele>316</ele>
        <time>2026-03-06T12:11:51.000Z</time>
      </trkpt>
      <trkpt lat="43.26266" lon="-1.60963">
        <ele>315</ele>
        <time>2026-03-06T12:11:54.000Z</time>
      </trkpt>
      <trkpt lat="43.26258" lon="-1.60981">
        <ele>316</ele>
        <time>2026-03-06T12:11:57.000Z</time>
      </trkpt>
      <trkpt lat="43.26231" lon="-1.6106">
        <ele>326</ele>
        <time>2026-03-06T12:12:08.000Z</time>
      </trkpt>
      <trkpt lat="43.26221" lon="-1.61101">
        <ele>329</ele>
        <time>2026-03-06T12:12:14.000Z</time>
      </trkpt>
      <trkpt lat="43.26205" lon="-1.61136">
        <ele>329</ele>
        <time>2026-03-06T12:12:19.000Z</time>
      </trkpt>
      <trkpt lat="43.26199" lon="-1.61155">
        <ele>329</ele>
        <time>2026-03-06T12:12:22.000Z</time>
      </trkpt>
      <trkpt lat="43.26198" lon="-1.61179">
        <ele>332</ele>
        <time>2026-03-06T12:12:25.000Z</time>
      </trkpt>
      <trkpt lat="43.26207" lon="-1.61253">
        <ele>346</ele>
        <time>2026-03-06T12:12:35.000Z</time>
      </trkpt>
      <trkpt lat="43.26206" lon="-1.6126">
        <ele>347</ele>
        <time>2026-03-06T12:12:35.000Z</time>
      </trkpt>
      <trkpt lat="43.26199" lon="-1.61263">
        <ele>346</ele>
        <time>2026-03-06T12:12:37.000Z</time>
      </trkpt>
      <trkpt lat="43.26185" lon="-1.61263">
        <ele>342</ele>
        <time>2026-03-06T12:12:39.000Z</time>
      </trkpt>
      <trkpt lat="43.26167" lon="-1.61252">
        <ele>335</ele>
        <time>2026-03-06T12:12:43.000Z</time>
      </trkpt>
      <trkpt lat="43.2616" lon="-1.61252">
        <ele>333</ele>
        <time>2026-03-06T12:12:44.000Z</time>
      </trkpt>
      <trkpt lat="43.26153" lon="-1.6126">
        <ele>333</ele>
        <time>2026-03-06T12:12:46.000Z</time>
      </trkpt>
      <trkpt lat="43.26127" lon="-1.61298">
        <ele>336</ele>
        <time>2026-03-06T12:12:52.000Z</time>
      </trkpt>
      <trkpt lat="43.26113" lon="-1.61321">
        <ele>337</ele>
        <time>2026-03-06T12:12:56.000Z</time>
      </trkpt>
      <trkpt lat="43.26107" lon="-1.61337">
        <ele>338</ele>
        <time>2026-03-06T12:12:59.000Z</time>
      </trkpt>
      <trkpt lat="43.26106" lon="-1.61355">
        <ele>341</ele>
        <time>2026-03-06T12:13:01.000Z</time>
      </trkpt>
      <trkpt lat="43.26114" lon="-1.61425">
        <ele>352</ele>
        <time>2026-03-06T12:13:10.000Z</time>
      </trkpt>
      <trkpt lat="43.26118" lon="-1.61441">
        <ele>355</ele>
        <time>2026-03-06T12:13:12.000Z</time>
      </trkpt>
      <trkpt lat="43.26124" lon="-1.61496">
        <ele>362</ele>
        <time>2026-03-06T12:13:20.000Z</time>
      </trkpt>
      <trkpt lat="43.26122" lon="-1.61539">
        <ele>368</ele>
        <time>2026-03-06T12:13:25.000Z</time>
      </trkpt>
      <trkpt lat="43.26126" lon="-1.61554">
        <ele>370</ele>
        <time>2026-03-06T12:13:27.000Z</time>
      </trkpt>
      <trkpt lat="43.26128" lon="-1.61584">
        <ele>374</ele>
        <time>2026-03-06T12:13:31.000Z</time>
      </trkpt>
      <trkpt lat="43.26128" lon="-1.61598">
        <ele>377</ele>
        <time>2026-03-06T12:13:33.000Z</time>
      </trkpt>
      <trkpt lat="43.26125" lon="-1.61606">
        <ele>378</ele>
        <time>2026-03-06T12:13:34.000Z</time>
      </trkpt>
      <trkpt lat="43.26119" lon="-1.61606">
        <ele>378</ele>
        <time>2026-03-06T12:13:35.000Z</time>
      </trkpt>
      <trkpt lat="43.26112" lon="-1.61601">
        <ele>378</ele>
        <time>2026-03-06T12:13:37.000Z</time>
      </trkpt>
      <trkpt lat="43.26104" lon="-1.6158">
        <ele>375</ele>
        <time>2026-03-06T12:13:40.000Z</time>
      </trkpt>
      <trkpt lat="43.26097" lon="-1.61571">
        <ele>373</ele>
        <time>2026-03-06T12:13:41.000Z</time>
      </trkpt>
      <trkpt lat="43.26084" lon="-1.61562">
        <ele>371</ele>
        <time>2026-03-06T12:13:44.000Z</time>
      </trkpt>
      <trkpt lat="43.26079" lon="-1.61553">
        <ele>370</ele>
        <time>2026-03-06T12:13:45.000Z</time>
      </trkpt>
      <trkpt lat="43.26071" lon="-1.61527">
        <ele>367</ele>
        <time>2026-03-06T12:13:49.000Z</time>
      </trkpt>
      <trkpt lat="43.26066" lon="-1.61517">
        <ele>366</ele>
        <time>2026-03-06T12:13:51.000Z</time>
      </trkpt>
      <trkpt lat="43.26047" lon="-1.61488">
        <ele>365</ele>
        <time>2026-03-06T12:13:56.000Z</time>
      </trkpt>
      <trkpt lat="43.26033" lon="-1.6146">
        <ele>364</ele>
        <time>2026-03-06T12:14:00.000Z</time>
      </trkpt>
      <trkpt lat="43.26025" lon="-1.6145">
        <ele>364</ele>
        <time>2026-03-06T12:14:02.000Z</time>
      </trkpt>
      <trkpt lat="43.26021" lon="-1.61448">
        <ele>364</ele>
        <time>2026-03-06T12:14:03.000Z</time>
      </trkpt>
      <trkpt lat="43.26009" lon="-1.61448">
        <ele>368</ele>
        <time>2026-03-06T12:14:05.000Z</time>
      </trkpt>
      <trkpt lat="43.25995" lon="-1.6145">
        <ele>371</ele>
        <time>2026-03-06T12:14:07.000Z</time>
      </trkpt>
      <trkpt lat="43.25973" lon="-1.61443">
        <ele>373</ele>
        <time>2026-03-06T12:14:11.000Z</time>
      </trkpt>
      <trkpt lat="43.2596" lon="-1.61441">
        <ele>375</ele>
        <time>2026-03-06T12:14:14.000Z</time>
      </trkpt>
      <trkpt lat="43.25949" lon="-1.6143">
        <ele>374</ele>
        <time>2026-03-06T12:14:16.000Z</time>
      </trkpt>
      <trkpt lat="43.2595" lon="-1.61411">
        <ele>369</ele>
        <time>2026-03-06T12:14:19.000Z</time>
      </trkpt>
      <trkpt lat="43.2595" lon="-1.61381">
        <ele>362</ele>
        <time>2026-03-06T12:14:22.000Z</time>
      </trkpt>
      <trkpt lat="43.25945" lon="-1.61373">
        <ele>361</ele>
        <time>2026-03-06T12:14:24.000Z</time>
      </trkpt>
      <trkpt lat="43.25936" lon="-1.61371">
        <ele>362</ele>
        <time>2026-03-06T12:14:25.000Z</time>
      </trkpt>
      <trkpt lat="43.2593" lon="-1.61377">
        <ele>365</ele>
        <time>2026-03-06T12:14:27.000Z</time>
      </trkpt>
      <trkpt lat="43.25926" lon="-1.61386">
        <ele>367</ele>
        <time>2026-03-06T12:14:28.000Z</time>
      </trkpt>
      <trkpt lat="43.25926" lon="-1.61399">
        <ele>370</ele>
        <time>2026-03-06T12:14:30.000Z</time>
      </trkpt>
      <trkpt lat="43.2593" lon="-1.6142">
        <ele>375</ele>
        <time>2026-03-06T12:14:33.000Z</time>
      </trkpt>
      <trkpt lat="43.25929" lon="-1.61437">
        <ele>379</ele>
        <time>2026-03-06T12:14:35.000Z</time>
      </trkpt>
      <trkpt lat="43.25931" lon="-1.61448">
        <ele>382</ele>
        <time>2026-03-06T12:14:36.000Z</time>
      </trkpt>
      <trkpt lat="43.25937" lon="-1.61456">
        <ele>383</ele>
        <time>2026-03-06T12:14:38.000Z</time>
      </trkpt>
      <trkpt lat="43.25955" lon="-1.61459">
        <ele>381</ele>
        <time>2026-03-06T12:14:41.000Z</time>
      </trkpt>
      <trkpt lat="43.25976" lon="-1.61481">
        <ele>382</ele>
        <time>2026-03-06T12:14:46.000Z</time>
      </trkpt>
      <trkpt lat="43.25983" lon="-1.61485">
        <ele>382</ele>
        <time>2026-03-06T12:14:47.000Z</time>
      </trkpt>
      <trkpt lat="43.25998" lon="-1.61487">
        <ele>380</ele>
        <time>2026-03-06T12:14:50.000Z</time>
      </trkpt>
      <trkpt lat="43.26007" lon="-1.61492">
        <ele>379</ele>
        <time>2026-03-06T12:14:52.000Z</time>
      </trkpt>
      <trkpt lat="43.26011" lon="-1.615">
        <ele>379</ele>
        <time>2026-03-06T12:14:53.000Z</time>
      </trkpt>
      <trkpt lat="43.26012" lon="-1.61516">
        <ele>384</ele>
        <time>2026-03-06T12:14:55.000Z</time>
      </trkpt>
      <trkpt lat="43.26015" lon="-1.61526">
        <ele>385</ele>
        <time>2026-03-06T12:14:56.000Z</time>
      </trkpt>
      <trkpt lat="43.2603" lon="-1.61543">
        <ele>385</ele>
        <time>2026-03-06T12:15:00.000Z</time>
      </trkpt>
      <trkpt lat="43.26035" lon="-1.61554">
        <ele>386</ele>
        <time>2026-03-06T12:15:01.000Z</time>
      </trkpt>
      <trkpt lat="43.26039" lon="-1.61592">
        <ele>394</ele>
        <time>2026-03-06T12:15:06.000Z</time>
      </trkpt>
      <trkpt lat="43.26046" lon="-1.61608">
        <ele>395</ele>
        <time>2026-03-06T12:15:09.000Z</time>
      </trkpt>
      <trkpt lat="43.26065" lon="-1.61638">
        <ele>394</ele>
        <time>2026-03-06T12:15:14.000Z</time>
      </trkpt>
      <trkpt lat="43.2608" lon="-1.61669">
        <ele>395</ele>
        <time>2026-03-06T12:15:19.000Z</time>
      </trkpt>
      <trkpt lat="43.26082" lon="-1.61678">
        <ele>396</ele>
        <time>2026-03-06T12:15:20.000Z</time>
      </trkpt>
      <trkpt lat="43.26081" lon="-1.61705">
        <ele>402</ele>
        <time>2026-03-06T12:15:23.000Z</time>
      </trkpt>
      <trkpt lat="43.26084" lon="-1.61714">
        <ele>403</ele>
        <time>2026-03-06T12:15:25.000Z</time>
      </trkpt>
      <trkpt lat="43.26097" lon="-1.61724">
        <ele>403</ele>
        <time>2026-03-06T12:15:27.000Z</time>
      </trkpt>
      <trkpt lat="43.26102" lon="-1.61743">
        <ele>406</ele>
        <time>2026-03-06T12:15:30.000Z</time>
      </trkpt>
      <trkpt lat="43.26107" lon="-1.61752">
        <ele>407</ele>
        <time>2026-03-06T12:15:32.000Z</time>
      </trkpt>
      <trkpt lat="43.26114" lon="-1.61756">
        <ele>407</ele>
        <time>2026-03-06T12:15:33.000Z</time>
      </trkpt>
      <trkpt lat="43.26132" lon="-1.61758">
        <ele>404</ele>
        <time>2026-03-06T12:15:36.000Z</time>
      </trkpt>
      <trkpt lat="43.26145" lon="-1.61766">
        <ele>403</ele>
        <time>2026-03-06T12:15:39.000Z</time>
      </trkpt>
      <trkpt lat="43.26155" lon="-1.61777">
        <ele>404</ele>
        <time>2026-03-06T12:15:41.000Z</time>
      </trkpt>
      <trkpt lat="43.26167" lon="-1.61794">
        <ele>405</ele>
        <time>2026-03-06T12:15:44.000Z</time>
      </trkpt>
      <trkpt lat="43.26178" lon="-1.61822">
        <ele>411</ele>
        <time>2026-03-06T12:15:48.000Z</time>
      </trkpt>
      <trkpt lat="43.26185" lon="-1.61845">
        <ele>416</ele>
        <time>2026-03-06T12:15:51.000Z</time>
      </trkpt>
      <trkpt lat="43.26187" lon="-1.61862">
        <ele>419</ele>
        <time>2026-03-06T12:15:54.000Z</time>
      </trkpt>
      <trkpt lat="43.26191" lon="-1.6187">
        <ele>420</ele>
        <time>2026-03-06T12:15:55.000Z</time>
      </trkpt>
      <trkpt lat="43.26222" lon="-1.61892">
        <ele>424</ele>
        <time>2026-03-06T12:16:01.000Z</time>
      </trkpt>
      <trkpt lat="43.26231" lon="-1.61892">
        <ele>423</ele>
        <time>2026-03-06T12:16:03.000Z</time>
      </trkpt>
      <trkpt lat="43.26237" lon="-1.61881">
        <ele>421</ele>
        <time>2026-03-06T12:16:04.000Z</time>
      </trkpt>
      <trkpt lat="43.26252" lon="-1.61838">
        <ele>415</ele>
        <time>2026-03-06T12:16:11.000Z</time>
      </trkpt>
      <trkpt lat="43.26266" lon="-1.61812">
        <ele>412</ele>
        <time>2026-03-06T12:16:15.000Z</time>
      </trkpt>
      <trkpt lat="43.26276" lon="-1.61799">
        <ele>411</ele>
        <time>2026-03-06T12:16:17.000Z</time>
      </trkpt>
      <trkpt lat="43.26284" lon="-1.61797">
        <ele>411</ele>
        <time>2026-03-06T12:16:19.000Z</time>
      </trkpt>
      <trkpt lat="43.2629" lon="-1.61799">
        <ele>411</ele>
        <time>2026-03-06T12:16:20.000Z</time>
      </trkpt>
      <trkpt lat="43.26293" lon="-1.61805">
        <ele>412</ele>
        <time>2026-03-06T12:16:21.000Z</time>
      </trkpt>
      <trkpt lat="43.26295" lon="-1.61812">
        <ele>413</ele>
        <time>2026-03-06T12:16:22.000Z</time>
      </trkpt>
      <trkpt lat="43.26292" lon="-1.61819">
        <ele>414</ele>
        <time>2026-03-06T12:16:23.000Z</time>
      </trkpt>
      <trkpt lat="43.26273" lon="-1.61845">
        <ele>417</ele>
        <time>2026-03-06T12:16:27.000Z</time>
      </trkpt>
      <trkpt lat="43.26266" lon="-1.61858">
        <ele>418</ele>
        <time>2026-03-06T12:16:30.000Z</time>
      </trkpt>
      <trkpt lat="43.26262" lon="-1.61882">
        <ele>422</ele>
        <time>2026-03-06T12:16:33.000Z</time>
      </trkpt>
      <trkpt lat="43.26262" lon="-1.61923">
        <ele>428</ele>
        <time>2026-03-06T12:16:38.000Z</time>
      </trkpt>
      <trkpt lat="43.26259" lon="-1.61931">
        <ele>429</ele>
        <time>2026-03-06T12:16:39.000Z</time>
      </trkpt>
      <trkpt lat="43.26255" lon="-1.61935">
        <ele>430</ele>
        <time>2026-03-06T12:16:40.000Z</time>
      </trkpt>
      <trkpt lat="43.26226" lon="-1.61944">
        <ele>431</ele>
        <time>2026-03-06T12:16:45.000Z</time>
      </trkpt>
      <trkpt lat="43.26217" lon="-1.61945">
        <ele>432</ele>
        <time>2026-03-06T12:16:47.000Z</time>
      </trkpt>
      <trkpt lat="43.26193" lon="-1.61934">
        <ele>431</ele>
        <time>2026-03-06T12:16:52.000Z</time>
      </trkpt>
      <trkpt lat="43.26165" lon="-1.61929">
        <ele>432</ele>
        <time>2026-03-06T12:16:57.000Z</time>
      </trkpt>
      <trkpt lat="43.26157" lon="-1.61926">
        <ele>432</ele>
        <time>2026-03-06T12:16:58.000Z</time>
      </trkpt>
      <trkpt lat="43.26144" lon="-1.61915">
        <ele>433</ele>
        <time>2026-03-06T12:17:01.000Z</time>
      </trkpt>
      <trkpt lat="43.26126" lon="-1.61894">
        <ele>431</ele>
        <time>2026-03-06T12:17:05.000Z</time>
      </trkpt>
      <trkpt lat="43.26116" lon="-1.61887">
        <ele>431</ele>
        <time>2026-03-06T12:17:07.000Z</time>
      </trkpt>
      <trkpt lat="43.26097" lon="-1.61883">
        <ele>433</ele>
        <time>2026-03-06T12:17:10.000Z</time>
      </trkpt>
      <trkpt lat="43.26085" lon="-1.61884">
        <ele>435</ele>
        <time>2026-03-06T12:17:13.000Z</time>
      </trkpt>
      <trkpt lat="43.26055" lon="-1.61918">
        <ele>437</ele>
        <time>2026-03-06T12:17:19.000Z</time>
      </trkpt>
      <trkpt lat="43.26042" lon="-1.61925">
        <ele>435</ele>
        <time>2026-03-06T12:17:22.000Z</time>
      </trkpt>
      <trkpt lat="43.26021" lon="-1.61922">
        <ele>435</ele>
        <time>2026-03-06T12:17:26.000Z</time>
      </trkpt>
      <trkpt lat="43.26012" lon="-1.61917">
        <ele>436</ele>
        <time>2026-03-06T12:17:27.000Z</time>
      </trkpt>
      <trkpt lat="43.25979" lon="-1.61884">
        <ele>443</ele>
        <time>2026-03-06T12:17:35.000Z</time>
      </trkpt>
      <trkpt lat="43.25962" lon="-1.61875">
        <ele>446</ele>
        <time>2026-03-06T12:17:38.000Z</time>
      </trkpt>
      <trkpt lat="43.25952" lon="-1.61872">
        <ele>448</ele>
        <time>2026-03-06T12:17:40.000Z</time>
      </trkpt>
      <trkpt lat="43.25948" lon="-1.61875">
        <ele>448</ele>
        <time>2026-03-06T12:17:41.000Z</time>
      </trkpt>
      <trkpt lat="43.25941" lon="-1.61882">
        <ele>448</ele>
        <time>2026-03-06T12:17:42.000Z</time>
      </trkpt>
      <trkpt lat="43.25934" lon="-1.61896">
        <ele>449</ele>
        <time>2026-03-06T12:17:44.000Z</time>
      </trkpt>
      <trkpt lat="43.25925" lon="-1.61943">
        <ele>444</ele>
        <time>2026-03-06T12:17:51.000Z</time>
      </trkpt>
      <trkpt lat="43.2591" lon="-1.62">
        <ele>439</ele>
        <time>2026-03-06T12:17:58.000Z</time>
      </trkpt>
      <trkpt lat="43.25901" lon="-1.62018">
        <ele>438</ele>
        <time>2026-03-06T12:18:01.000Z</time>
      </trkpt>
      <trkpt lat="43.25881" lon="-1.62046">
        <ele>440</ele>
        <time>2026-03-06T12:18:06.000Z</time>
      </trkpt>
      <trkpt lat="43.25865" lon="-1.62077">
        <ele>440</ele>
        <time>2026-03-06T12:18:11.000Z</time>
      </trkpt>
      <trkpt lat="43.25859" lon="-1.62093">
        <ele>441</ele>
        <time>2026-03-06T12:18:14.000Z</time>
      </trkpt>
      <trkpt lat="43.25855" lon="-1.62113">
        <ele>441</ele>
        <time>2026-03-06T12:18:16.000Z</time>
      </trkpt>
      <trkpt lat="43.25852" lon="-1.62159">
        <ele>439</ele>
        <time>2026-03-06T12:18:22.000Z</time>
      </trkpt>
      <trkpt lat="43.25846" lon="-1.62197">
        <ele>435</ele>
        <time>2026-03-06T12:18:27.000Z</time>
      </trkpt>
      <trkpt lat="43.25838" lon="-1.62219">
        <ele>434</ele>
        <time>2026-03-06T12:18:30.000Z</time>
      </trkpt>
      <trkpt lat="43.2583" lon="-1.62233">
        <ele>434</ele>
        <time>2026-03-06T12:18:33.000Z</time>
      </trkpt>
      <trkpt lat="43.25805" lon="-1.62264">
        <ele>431</ele>
        <time>2026-03-06T12:18:39.000Z</time>
      </trkpt>
      <trkpt lat="43.25759" lon="-1.6231">
        <ele>429</ele>
        <time>2026-03-06T12:18:49.000Z</time>
      </trkpt>
      <trkpt lat="43.25741" lon="-1.62322">
        <ele>428</ele>
        <time>2026-03-06T12:18:52.000Z</time>
      </trkpt>
      <trkpt lat="43.25697" lon="-1.62344">
        <ele>422</ele>
        <time>2026-03-06T12:19:01.000Z</time>
      </trkpt>
      <trkpt lat="43.25685" lon="-1.62356">
        <ele>420</ele>
        <time>2026-03-06T12:19:03.000Z</time>
      </trkpt>
      <trkpt lat="43.25661" lon="-1.62397">
        <ele>415</ele>
        <time>2026-03-06T12:19:10.000Z</time>
      </trkpt>
      <trkpt lat="43.25611" lon="-1.62461">
        <ele>410</ele>
        <time>2026-03-06T12:19:22.000Z</time>
      </trkpt>
      <trkpt lat="43.25604" lon="-1.62467">
        <ele>411</ele>
        <time>2026-03-06T12:19:24.000Z</time>
      </trkpt>
      <trkpt lat="43.2556" lon="-1.62493">
        <ele>411</ele>
        <time>2026-03-06T12:19:32.000Z</time>
      </trkpt>
      <trkpt lat="43.25549" lon="-1.62495">
        <ele>410</ele>
        <time>2026-03-06T12:19:34.000Z</time>
      </trkpt>
      <trkpt lat="43.25544" lon="-1.62491">
        <ele>409</ele>
        <time>2026-03-06T12:19:35.000Z</time>
      </trkpt>
      <trkpt lat="43.2554" lon="-1.62484">
        <ele>408</ele>
        <time>2026-03-06T12:19:37.000Z</time>
      </trkpt>
      <trkpt lat="43.25539" lon="-1.62474">
        <ele>407</ele>
        <time>2026-03-06T12:19:38.000Z</time>
      </trkpt>
      <trkpt lat="43.2554" lon="-1.62463">
        <ele>407</ele>
        <time>2026-03-06T12:19:39.000Z</time>
      </trkpt>
      <trkpt lat="43.25552" lon="-1.62438">
        <ele>407</ele>
        <time>2026-03-06T12:19:43.000Z</time>
      </trkpt>
      <trkpt lat="43.2556" lon="-1.62431">
        <ele>408</ele>
        <time>2026-03-06T12:19:45.000Z</time>
      </trkpt>
      <trkpt lat="43.25603" lon="-1.62407">
        <ele>411</ele>
        <time>2026-03-06T12:19:53.000Z</time>
      </trkpt>
      <trkpt lat="43.25622" lon="-1.62388">
        <ele>411</ele>
        <time>2026-03-06T12:19:57.000Z</time>
      </trkpt>
      <trkpt lat="43.25629" lon="-1.62374">
        <ele>412</ele>
        <time>2026-03-06T12:20:00.000Z</time>
      </trkpt>
      <trkpt lat="43.25639" lon="-1.62339">
        <ele>413</ele>
        <time>2026-03-06T12:20:04.000Z</time>
      </trkpt>
      <trkpt lat="43.25642" lon="-1.62327">
        <ele>414</ele>
        <time>2026-03-06T12:20:06.000Z</time>
      </trkpt>
      <trkpt lat="43.25643" lon="-1.62303">
        <ele>415</ele>
        <time>2026-03-06T12:20:09.000Z</time>
      </trkpt>
      <trkpt lat="43.25636" lon="-1.62242">
        <ele>412</ele>
        <time>2026-03-06T12:20:17.000Z</time>
      </trkpt>
      <trkpt lat="43.25628" lon="-1.62193">
        <ele>407</ele>
        <time>2026-03-06T12:20:24.000Z</time>
      </trkpt>
      <trkpt lat="43.25627" lon="-1.62178">
        <ele>407</ele>
        <time>2026-03-06T12:20:26.000Z</time>
      </trkpt>
      <trkpt lat="43.25629" lon="-1.62165">
        <ele>407</ele>
        <time>2026-03-06T12:20:27.000Z</time>
      </trkpt>
      <trkpt lat="43.25637" lon="-1.6213">
        <ele>405</ele>
        <time>2026-03-06T12:20:32.000Z</time>
      </trkpt>
      <trkpt lat="43.25644" lon="-1.6211">
        <ele>404</ele>
        <time>2026-03-06T12:20:35.000Z</time>
      </trkpt>
      <trkpt lat="43.2565" lon="-1.62098">
        <ele>405</ele>
        <time>2026-03-06T12:20:37.000Z</time>
      </trkpt>
      <trkpt lat="43.25686" lon="-1.62053">
        <ele>415</ele>
        <time>2026-03-06T12:20:46.000Z</time>
      </trkpt>
      <trkpt lat="43.25689" lon="-1.62043">
        <ele>416</ele>
        <time>2026-03-06T12:20:47.000Z</time>
      </trkpt>
      <trkpt lat="43.2569" lon="-1.62037">
        <ele>416</ele>
        <time>2026-03-06T12:20:48.000Z</time>
      </trkpt>
      <trkpt lat="43.25689" lon="-1.62026">
        <ele>415</ele>
        <time>2026-03-06T12:20:49.000Z</time>
      </trkpt>
      <trkpt lat="43.25686" lon="-1.62019">
        <ele>413</ele>
        <time>2026-03-06T12:20:50.000Z</time>
      </trkpt>
      <trkpt lat="43.25664" lon="-1.61988">
        <ele>406</ele>
        <time>2026-03-06T12:20:56.000Z</time>
      </trkpt>
      <trkpt lat="43.25653" lon="-1.61976">
        <ele>405</ele>
        <time>2026-03-06T12:20:58.000Z</time>
      </trkpt>
      <trkpt lat="43.25602" lon="-1.61936">
        <ele>393</ele>
        <time>2026-03-06T12:21:09.000Z</time>
      </trkpt>
      <trkpt lat="43.25596" lon="-1.61926">
        <ele>393</ele>
        <time>2026-03-06T12:21:10.000Z</time>
      </trkpt>
      <trkpt lat="43.25592" lon="-1.61916">
        <ele>394</ele>
        <time>2026-03-06T12:21:12.000Z</time>
      </trkpt>
      <trkpt lat="43.2559" lon="-1.61897">
        <ele>396</ele>
        <time>2026-03-06T12:21:14.000Z</time>
      </trkpt>
      <trkpt lat="43.25588" lon="-1.61888">
        <ele>397</ele>
        <time>2026-03-06T12:21:16.000Z</time>
      </trkpt>
      <trkpt lat="43.25558" lon="-1.61803">
        <ele>396</ele>
        <time>2026-03-06T12:21:28.000Z</time>
      </trkpt>
      <trkpt lat="43.25541" lon="-1.61758">
        <ele>395</ele>
        <time>2026-03-06T12:21:34.000Z</time>
      </trkpt>
      <trkpt lat="43.25529" lon="-1.61735">
        <ele>393</ele>
        <time>2026-03-06T12:21:38.000Z</time>
      </trkpt>
      <trkpt lat="43.25522" lon="-1.61729">
        <ele>391</ele>
        <time>2026-03-06T12:21:40.000Z</time>
      </trkpt>
      <trkpt lat="43.25515" lon="-1.61725">
        <ele>388</ele>
        <time>2026-03-06T12:21:41.000Z</time>
      </trkpt>
      <trkpt lat="43.2549" lon="-1.61723">
        <ele>377</ele>
        <time>2026-03-06T12:21:45.000Z</time>
      </trkpt>
      <trkpt lat="43.25484" lon="-1.6172">
        <ele>375</ele>
        <time>2026-03-06T12:21:47.000Z</time>
      </trkpt>
      <trkpt lat="43.2548" lon="-1.61714">
        <ele>374</ele>
        <time>2026-03-06T12:21:48.000Z</time>
      </trkpt>
      <trkpt lat="43.25475" lon="-1.617">
        <ele>376</ele>
        <time>2026-03-06T12:21:50.000Z</time>
      </trkpt>
      <trkpt lat="43.25474" lon="-1.6164">
        <ele>391</ele>
        <time>2026-03-06T12:21:57.000Z</time>
      </trkpt>
      <trkpt lat="43.25471" lon="-1.61633">
        <ele>392</ele>
        <time>2026-03-06T12:21:58.000Z</time>
      </trkpt>
      <trkpt lat="43.25466" lon="-1.61627">
        <ele>392</ele>
        <time>2026-03-06T12:22:00.000Z</time>
      </trkpt>
      <trkpt lat="43.25455" lon="-1.61621">
        <ele>389</ele>
        <time>2026-03-06T12:22:02.000Z</time>
      </trkpt>
      <trkpt lat="43.25406" lon="-1.61601">
        <ele>380</ele>
        <time>2026-03-06T12:22:11.000Z</time>
      </trkpt>
      <trkpt lat="43.25385" lon="-1.61595">
        <ele>379</ele>
        <time>2026-03-06T12:22:15.000Z</time>
      </trkpt>
      <trkpt lat="43.25364" lon="-1.61592">
        <ele>377</ele>
        <time>2026-03-06T12:22:18.000Z</time>
      </trkpt>
      <trkpt lat="43.25341" lon="-1.61593">
        <ele>373</ele>
        <time>2026-03-06T12:22:22.000Z</time>
      </trkpt>
      <trkpt lat="43.25325" lon="-1.616">
        <ele>368</ele>
        <time>2026-03-06T12:22:25.000Z</time>
      </trkpt>
      <trkpt lat="43.25307" lon="-1.61612">
        <ele>360</ele>
        <time>2026-03-06T12:22:29.000Z</time>
      </trkpt>
      <trkpt lat="43.25293" lon="-1.61616">
        <ele>356</ele>
        <time>2026-03-06T12:22:32.000Z</time>
      </trkpt>
      <trkpt lat="43.25272" lon="-1.61615">
        <ele>353</ele>
        <time>2026-03-06T12:22:35.000Z</time>
      </trkpt>
      <trkpt lat="43.25266" lon="-1.61612">
        <ele>352</ele>
        <time>2026-03-06T12:22:36.000Z</time>
      </trkpt>
      <trkpt lat="43.2526" lon="-1.61607">
        <ele>352</ele>
        <time>2026-03-06T12:22:38.000Z</time>
      </trkpt>
      <trkpt lat="43.25257" lon="-1.61599">
        <ele>353</ele>
        <time>2026-03-06T12:22:39.000Z</time>
      </trkpt>
      <trkpt lat="43.25256" lon="-1.61589">
        <ele>354</ele>
        <time>2026-03-06T12:22:40.000Z</time>
      </trkpt>
      <trkpt lat="43.25259" lon="-1.61577">
        <ele>355</ele>
        <time>2026-03-06T12:22:42.000Z</time>
      </trkpt>
      <trkpt lat="43.25275" lon="-1.61541">
        <ele>359</ele>
        <time>2026-03-06T12:22:47.000Z</time>
      </trkpt>
      <trkpt lat="43.2528" lon="-1.61498">
        <ele>362</ele>
        <time>2026-03-06T12:22:53.000Z</time>
      </trkpt>
      <trkpt lat="43.25282" lon="-1.61458">
        <ele>365</ele>
        <time>2026-03-06T12:22:58.000Z</time>
      </trkpt>
      <trkpt lat="43.2528" lon="-1.61451">
        <ele>364</ele>
        <time>2026-03-06T12:22:59.000Z</time>
      </trkpt>
      <trkpt lat="43.2525" lon="-1.61417">
        <ele>349</ele>
        <time>2026-03-06T12:23:06.000Z</time>
      </trkpt>
      <trkpt lat="43.25242" lon="-1.61398">
        <ele>347</ele>
        <time>2026-03-06T12:23:09.000Z</time>
      </trkpt>
      <trkpt lat="43.2524" lon="-1.61372">
        <ele>347</ele>
        <time>2026-03-06T12:23:12.000Z</time>
      </trkpt>
      <trkpt lat="43.2525" lon="-1.6131">
        <ele>357</ele>
        <time>2026-03-06T12:23:20.000Z</time>
      </trkpt>
      <trkpt lat="43.2525" lon="-1.61289">
        <ele>358</ele>
        <time>2026-03-06T12:23:23.000Z</time>
      </trkpt>
      <trkpt lat="43.25245" lon="-1.61263">
        <ele>358</ele>
        <time>2026-03-06T12:23:27.000Z</time>
      </trkpt>
      <trkpt lat="43.25219" lon="-1.6121">
        <ele>357</ele>
        <time>2026-03-06T12:23:35.000Z</time>
      </trkpt>
      <trkpt lat="43.25212" lon="-1.61204">
        <ele>356</ele>
        <time>2026-03-06T12:23:36.000Z</time>
      </trkpt>
      <trkpt lat="43.25208" lon="-1.61205">
        <ele>355</ele>
        <time>2026-03-06T12:23:37.000Z</time>
      </trkpt>
      <trkpt lat="43.25205" lon="-1.61208">
        <ele>353</ele>
        <time>2026-03-06T12:23:38.000Z</time>
      </trkpt>
      <trkpt lat="43.25203" lon="-1.61217">
        <ele>350</ele>
        <time>2026-03-06T12:23:39.000Z</time>
      </trkpt>
      <trkpt lat="43.25205" lon="-1.61228">
        <ele>349</ele>
        <time>2026-03-06T12:23:40.000Z</time>
      </trkpt>
      <trkpt lat="43.25223" lon="-1.61245">
        <ele>352</ele>
        <time>2026-03-06T12:23:44.000Z</time>
      </trkpt>
      <trkpt lat="43.25234" lon="-1.61263">
        <ele>354</ele>
        <time>2026-03-06T12:23:47.000Z</time>
      </trkpt>
      <trkpt lat="43.25237" lon="-1.61277">
        <ele>354</ele>
        <time>2026-03-06T12:23:49.000Z</time>
      </trkpt>
      <trkpt lat="43.25239" lon="-1.61292">
        <ele>353</ele>
        <time>2026-03-06T12:23:51.000Z</time>
      </trkpt>
      <trkpt lat="43.25236" lon="-1.61312">
        <ele>350</ele>
        <time>2026-03-06T12:23:54.000Z</time>
      </trkpt>
      <trkpt lat="43.25216" lon="-1.61392">
        <ele>334</ele>
        <time>2026-03-06T12:24:05.000Z</time>
      </trkpt>
      <trkpt lat="43.25216" lon="-1.61403">
        <ele>334</ele>
        <time>2026-03-06T12:24:06.000Z</time>
      </trkpt>
      <trkpt lat="43.2522" lon="-1.61419">
        <ele>335</ele>
        <time>2026-03-06T12:24:09.000Z</time>
      </trkpt>
      <trkpt lat="43.2523" lon="-1.61439">
        <ele>339</ele>
        <time>2026-03-06T12:24:12.000Z</time>
      </trkpt>
      <trkpt lat="43.25239" lon="-1.6145">
        <ele>343</ele>
        <time>2026-03-06T12:24:14.000Z</time>
      </trkpt>
      <trkpt lat="43.25243" lon="-1.61461">
        <ele>344</ele>
        <time>2026-03-06T12:24:15.000Z</time>
      </trkpt>
      <trkpt lat="43.25243" lon="-1.61472">
        <ele>344</ele>
        <time>2026-03-06T12:24:17.000Z</time>
      </trkpt>
      <trkpt lat="43.25221" lon="-1.61513">
        <ele>334</ele>
        <time>2026-03-06T12:24:23.000Z</time>
      </trkpt>
      <trkpt lat="43.25199" lon="-1.61559">
        <ele>328</ele>
        <time>2026-03-06T12:24:31.000Z</time>
      </trkpt>
      <trkpt lat="43.25194" lon="-1.61583">
        <ele>329</ele>
        <time>2026-03-06T12:24:34.000Z</time>
      </trkpt>
      <trkpt lat="43.25182" lon="-1.61664">
        <ele>327</ele>
        <time>2026-03-06T12:24:45.000Z</time>
      </trkpt>
      <trkpt lat="43.25173" lon="-1.61677">
        <ele>325</ele>
        <time>2026-03-06T12:24:47.000Z</time>
      </trkpt>
      <trkpt lat="43.25141" lon="-1.61695">
        <ele>317</ele>
        <time>2026-03-06T12:24:53.000Z</time>
      </trkpt>
      <trkpt lat="43.25131" lon="-1.61701">
        <ele>314</ele>
        <time>2026-03-06T12:24:55.000Z</time>
      </trkpt>
      <trkpt lat="43.25123" lon="-1.61712">
        <ele>313</ele>
        <time>2026-03-06T12:24:57.000Z</time>
      </trkpt>
      <trkpt lat="43.25112" lon="-1.61737">
        <ele>311</ele>
        <time>2026-03-06T12:25:01.000Z</time>
      </trkpt>
      <trkpt lat="43.25107" lon="-1.61742">
        <ele>310</ele>
        <time>2026-03-06T12:25:02.000Z</time>
      </trkpt>
      <trkpt lat="43.25101" lon="-1.61742">
        <ele>309</ele>
        <time>2026-03-06T12:25:03.000Z</time>
      </trkpt>
      <trkpt lat="43.25099" lon="-1.61736">
        <ele>308</ele>
        <time>2026-03-06T12:25:04.000Z</time>
      </trkpt>
      <trkpt lat="43.25099" lon="-1.61729">
        <ele>308</ele>
        <time>2026-03-06T12:25:05.000Z</time>
      </trkpt>
      <trkpt lat="43.25104" lon="-1.61721">
        <ele>309</ele>
        <time>2026-03-06T12:25:06.000Z</time>
      </trkpt>
      <trkpt lat="43.25131" lon="-1.61687">
        <ele>314</ele>
        <time>2026-03-06T12:25:13.000Z</time>
      </trkpt>
      <trkpt lat="43.25162" lon="-1.61663">
        <ele>322</ele>
        <time>2026-03-06T12:25:19.000Z</time>
      </trkpt>
      <trkpt lat="43.25167" lon="-1.61655">
        <ele>323</ele>
        <time>2026-03-06T12:25:20.000Z</time>
      </trkpt>
      <trkpt lat="43.25172" lon="-1.6163">
        <ele>323</ele>
        <time>2026-03-06T12:25:24.000Z</time>
      </trkpt>
      <trkpt lat="43.2517" lon="-1.6157">
        <ele>317</ele>
        <time>2026-03-06T12:25:31.000Z</time>
      </trkpt>
      <trkpt lat="43.25171" lon="-1.61552">
        <ele>315</ele>
        <time>2026-03-06T12:25:34.000Z</time>
      </trkpt>
      <trkpt lat="43.25173" lon="-1.61539">
        <ele>315</ele>
        <time>2026-03-06T12:25:35.000Z</time>
      </trkpt>
      <trkpt lat="43.25179" lon="-1.61523">
        <ele>315</ele>
        <time>2026-03-06T12:25:38.000Z</time>
      </trkpt>
      <trkpt lat="43.25196" lon="-1.61493">
        <ele>321</ele>
        <time>2026-03-06T12:25:43.000Z</time>
      </trkpt>
      <trkpt lat="43.25199" lon="-1.61477">
        <ele>323</ele>
        <time>2026-03-06T12:25:45.000Z</time>
      </trkpt>
      <trkpt lat="43.25192" lon="-1.61466">
        <ele>320</ele>
        <time>2026-03-06T12:25:47.000Z</time>
      </trkpt>
      <trkpt lat="43.25176" lon="-1.61453">
        <ele>313</ele>
        <time>2026-03-06T12:25:50.000Z</time>
      </trkpt>
      <trkpt lat="43.25169" lon="-1.61417">
        <ele>310</ele>
        <time>2026-03-06T12:25:55.000Z</time>
      </trkpt>
      <trkpt lat="43.25165" lon="-1.61378">
        <ele>311</ele>
        <time>2026-03-06T12:26:00.000Z</time>
      </trkpt>
      <trkpt lat="43.25178" lon="-1.61338">
        <ele>320</ele>
        <time>2026-03-06T12:26:06.000Z</time>
      </trkpt>
      <trkpt lat="43.25178" lon="-1.61323">
        <ele>322</ele>
        <time>2026-03-06T12:26:08.000Z</time>
      </trkpt>
      <trkpt lat="43.25167" lon="-1.61319">
        <ele>318</ele>
        <time>2026-03-06T12:26:10.000Z</time>
      </trkpt>
      <trkpt lat="43.25145" lon="-1.61321">
        <ele>312</ele>
        <time>2026-03-06T12:26:14.000Z</time>
      </trkpt>
      <trkpt lat="43.25131" lon="-1.61313">
        <ele>311</ele>
        <time>2026-03-06T12:26:16.000Z</time>
      </trkpt>
      <trkpt lat="43.2512" lon="-1.61296">
        <ele>312</ele>
        <time>2026-03-06T12:26:19.000Z</time>
      </trkpt>
      <trkpt lat="43.25105" lon="-1.6124">
        <ele>323</ele>
        <time>2026-03-06T12:26:27.000Z</time>
      </trkpt>
      <trkpt lat="43.25098" lon="-1.61233">
        <ele>325</ele>
        <time>2026-03-06T12:26:28.000Z</time>
      </trkpt>
      <trkpt lat="43.25089" lon="-1.61231">
        <ele>324</ele>
        <time>2026-03-06T12:26:30.000Z</time>
      </trkpt>
      <trkpt lat="43.25054" lon="-1.61292">
        <ele>303</ele>
        <time>2026-03-06T12:26:40.000Z</time>
      </trkpt>
      <trkpt lat="43.25034" lon="-1.6137">
        <ele>281</ele>
        <time>2026-03-06T12:26:51.000Z</time>
      </trkpt>
      <trkpt lat="43.25027" lon="-1.61379">
        <ele>278</ele>
        <time>2026-03-06T12:26:53.000Z</time>
      </trkpt>
      <trkpt lat="43.25018" lon="-1.61377">
        <ele>278</ele>
        <time>2026-03-06T12:26:54.000Z</time>
      </trkpt>
      <trkpt lat="43.25011" lon="-1.61366">
        <ele>279</ele>
        <time>2026-03-06T12:26:56.000Z</time>
      </trkpt>
      <trkpt lat="43.25007" lon="-1.61335">
        <ele>286</ele>
        <time>2026-03-06T12:27:00.000Z</time>
      </trkpt>
      <trkpt lat="43.24999" lon="-1.61308">
        <ele>292</ele>
        <time>2026-03-06T12:27:04.000Z</time>
      </trkpt>
      <trkpt lat="43.24983" lon="-1.61263">
        <ele>306</ele>
        <time>2026-03-06T12:27:10.000Z</time>
      </trkpt>
      <trkpt lat="43.24974" lon="-1.61248">
        <ele>312</ele>
        <time>2026-03-06T12:27:13.000Z</time>
      </trkpt>
      <trkpt lat="43.2496" lon="-1.61235">
        <ele>319</ele>
        <time>2026-03-06T12:27:16.000Z</time>
      </trkpt>
      <trkpt lat="43.24945" lon="-1.61243">
        <ele>320</ele>
        <time>2026-03-06T12:27:19.000Z</time>
      </trkpt>
      <trkpt lat="43.2494" lon="-1.61275">
        <ele>311</ele>
        <time>2026-03-06T12:27:23.000Z</time>
      </trkpt>
      <trkpt lat="43.2494" lon="-1.61304">
        <ele>301</ele>
        <time>2026-03-06T12:27:27.000Z</time>
      </trkpt>
      <trkpt lat="43.24932" lon="-1.61341">
        <ele>290</ele>
        <time>2026-03-06T12:27:32.000Z</time>
      </trkpt>
      <trkpt lat="43.24921" lon="-1.61352">
        <ele>288</ele>
        <time>2026-03-06T12:27:34.000Z</time>
      </trkpt>
      <trkpt lat="43.24903" lon="-1.61362">
        <ele>291</ele>
        <time>2026-03-06T12:27:38.000Z</time>
      </trkpt>
      <trkpt lat="43.24899" lon="-1.61369">
        <ele>290</ele>
        <time>2026-03-06T12:27:39.000Z</time>
      </trkpt>
      <trkpt lat="43.24896" lon="-1.61403">
        <ele>280</ele>
        <time>2026-03-06T12:27:43.000Z</time>
      </trkpt>
      <trkpt lat="43.24891" lon="-1.61417">
        <ele>277</ele>
        <time>2026-03-06T12:27:45.000Z</time>
      </trkpt>
      <trkpt lat="43.24863" lon="-1.61456">
        <ele>275</ele>
        <time>2026-03-06T12:27:52.000Z</time>
      </trkpt>
      <trkpt lat="43.24856" lon="-1.61483">
        <ele>271</ele>
        <time>2026-03-06T12:27:56.000Z</time>
      </trkpt>
      <trkpt lat="43.2485" lon="-1.61498">
        <ele>269</ele>
        <time>2026-03-06T12:27:58.000Z</time>
      </trkpt>
      <trkpt lat="43.24829" lon="-1.61516">
        <ele>271</ele>
        <time>2026-03-06T12:28:03.000Z</time>
      </trkpt>
      <trkpt lat="43.24813" lon="-1.61527">
        <ele>275</ele>
        <time>2026-03-06T12:28:06.000Z</time>
      </trkpt>
      <trkpt lat="43.2481" lon="-1.61559">
        <ele>269</ele>
        <time>2026-03-06T12:28:10.000Z</time>
      </trkpt>
      <trkpt lat="43.24799" lon="-1.61591">
        <ele>266</ele>
        <time>2026-03-06T12:28:15.000Z</time>
      </trkpt>
      <trkpt lat="43.24777" lon="-1.61615">
        <ele>271</ele>
        <time>2026-03-06T12:28:20.000Z</time>
      </trkpt>
      <trkpt lat="43.24769" lon="-1.61648">
        <ele>268</ele>
        <time>2026-03-06T12:28:24.000Z</time>
      </trkpt>
      <trkpt lat="43.24764" lon="-1.61688">
        <ele>260</ele>
        <time>2026-03-06T12:28:29.000Z</time>
      </trkpt>
      <trkpt lat="43.2476" lon="-1.61703">
        <ele>257</ele>
        <time>2026-03-06T12:28:32.000Z</time>
      </trkpt>
      <trkpt lat="43.24728" lon="-1.61756">
        <ele>251</ele>
        <time>2026-03-06T12:28:40.000Z</time>
      </trkpt>
      <trkpt lat="43.24715" lon="-1.61773">
        <ele>252</ele>
        <time>2026-03-06T12:28:44.000Z</time>
      </trkpt>
      <trkpt lat="43.24688" lon="-1.61806">
        <ele>256</ele>
        <time>2026-03-06T12:28:50.000Z</time>
      </trkpt>
      <trkpt lat="43.24681" lon="-1.61827">
        <ele>256</ele>
        <time>2026-03-06T12:28:53.000Z</time>
      </trkpt>
      <trkpt lat="43.24673" lon="-1.61846">
        <ele>256</ele>
        <time>2026-03-06T12:28:56.000Z</time>
      </trkpt>
      <trkpt lat="43.24673" lon="-1.61902">
        <ele>243</ele>
        <time>2026-03-06T12:29:03.000Z</time>
      </trkpt>
      <trkpt lat="43.24665" lon="-1.61927">
        <ele>242</ele>
        <time>2026-03-06T12:29:07.000Z</time>
      </trkpt>
      <trkpt lat="43.24659" lon="-1.61937">
        <ele>242</ele>
        <time>2026-03-06T12:29:08.000Z</time>
      </trkpt>
      <trkpt lat="43.24631" lon="-1.61983">
        <ele>245</ele>
        <time>2026-03-06T12:29:16.000Z</time>
      </trkpt>
      <trkpt lat="43.24628" lon="-1.62">
        <ele>244</ele>
        <time>2026-03-06T12:29:18.000Z</time>
      </trkpt>
      <trkpt lat="43.24628" lon="-1.62023">
        <ele>243</ele>
        <time>2026-03-06T12:29:21.000Z</time>
      </trkpt>
      <trkpt lat="43.24639" lon="-1.62074">
        <ele>234</ele>
        <time>2026-03-06T12:29:28.000Z</time>
      </trkpt>
      <trkpt lat="43.24637" lon="-1.62093">
        <ele>232</ele>
        <time>2026-03-06T12:29:31.000Z</time>
      </trkpt>
      <trkpt lat="43.24632" lon="-1.62104">
        <ele>231</ele>
        <time>2026-03-06T12:29:32.000Z</time>
      </trkpt>
      <trkpt lat="43.24619" lon="-1.62126">
        <ele>233</ele>
        <time>2026-03-06T12:29:36.000Z</time>
      </trkpt>
      <trkpt lat="43.24601" lon="-1.62152">
        <ele>236</ele>
        <time>2026-03-06T12:29:41.000Z</time>
      </trkpt>
      <trkpt lat="43.24596" lon="-1.62165">
        <ele>236</ele>
        <time>2026-03-06T12:29:43.000Z</time>
      </trkpt>
      <trkpt lat="43.24597" lon="-1.62171">
        <ele>234</ele>
        <time>2026-03-06T12:29:44.000Z</time>
      </trkpt>
      <trkpt lat="43.24603" lon="-1.62171">
        <ele>231</ele>
        <time>2026-03-06T12:29:45.000Z</time>
      </trkpt>
      <trkpt lat="43.24607" lon="-1.62167">
        <ele>230</ele>
        <time>2026-03-06T12:29:45.000Z</time>
      </trkpt>
      <trkpt lat="43.24618" lon="-1.62152">
        <ele>227</ele>
        <time>2026-03-06T12:29:48.000Z</time>
      </trkpt>
      <trkpt lat="43.24633" lon="-1.62129">
        <ele>225</ele>
        <time>2026-03-06T12:29:52.000Z</time>
      </trkpt>
      <trkpt lat="43.24653" lon="-1.6209">
        <ele>225</ele>
        <time>2026-03-06T12:29:58.000Z</time>
      </trkpt>
      <trkpt lat="43.24658" lon="-1.62063">
        <ele>226</ele>
        <time>2026-03-06T12:30:02.000Z</time>
      </trkpt>
      <trkpt lat="43.24659" lon="-1.62007">
        <ele>231</ele>
        <time>2026-03-06T12:30:09.000Z</time>
      </trkpt>
      <trkpt lat="43.24665" lon="-1.6198">
        <ele>232</ele>
        <time>2026-03-06T12:30:13.000Z</time>
      </trkpt>
      <trkpt lat="43.24691" lon="-1.61938">
        <ele>228</ele>
        <time>2026-03-06T12:30:20.000Z</time>
      </trkpt>
      <trkpt lat="43.24718" lon="-1.61864">
        <ele>229</ele>
        <time>2026-03-06T12:30:31.000Z</time>
      </trkpt>
      <trkpt lat="43.24728" lon="-1.61847">
        <ele>227</ele>
        <time>2026-03-06T12:30:34.000Z</time>
      </trkpt>
      <trkpt lat="43.24743" lon="-1.61831">
        <ele>223</ele>
        <time>2026-03-06T12:30:37.000Z</time>
      </trkpt>
      <trkpt lat="43.2476" lon="-1.61826">
        <ele>220</ele>
        <time>2026-03-06T12:30:40.000Z</time>
      </trkpt>
      <trkpt lat="43.24782" lon="-1.61815">
        <ele>220</ele>
        <time>2026-03-06T12:30:44.000Z</time>
      </trkpt>
      <trkpt lat="43.24805" lon="-1.61796">
        <ele>219</ele>
        <time>2026-03-06T12:30:49.000Z</time>
      </trkpt>
      <trkpt lat="43.24812" lon="-1.61784">
        <ele>219</ele>
        <time>2026-03-06T12:30:51.000Z</time>
      </trkpt>
      <trkpt lat="43.24831" lon="-1.61755">
        <ele>216</ele>
        <time>2026-03-06T12:30:56.000Z</time>
      </trkpt>
      <trkpt lat="43.24836" lon="-1.61723">
        <ele>221</ele>
        <time>2026-03-06T12:31:00.000Z</time>
      </trkpt>
      <trkpt lat="43.24846" lon="-1.61714">
        <ele>224</ele>
        <time>2026-03-06T12:31:02.000Z</time>
      </trkpt>
      <trkpt lat="43.24853" lon="-1.6173">
        <ele>223</ele>
        <time>2026-03-06T12:31:05.000Z</time>
      </trkpt>
      <trkpt lat="43.24851" lon="-1.61759">
        <ele>220</ele>
        <time>2026-03-06T12:31:09.000Z</time>
      </trkpt>
      <trkpt lat="43.24842" lon="-1.61791">
        <ele>217</ele>
        <time>2026-03-06T12:31:13.000Z</time>
      </trkpt>
      <trkpt lat="43.24821" lon="-1.61831">
        <ele>213</ele>
        <time>2026-03-06T12:31:19.000Z</time>
      </trkpt>
      <trkpt lat="43.24778" lon="-1.61868">
        <ele>213</ele>
        <time>2026-03-06T12:31:29.000Z</time>
      </trkpt>
      <trkpt lat="43.24765" lon="-1.61883">
        <ele>210</ele>
        <time>2026-03-06T12:31:32.000Z</time>
      </trkpt>
      <trkpt lat="43.24753" lon="-1.6192">
        <ele>202</ele>
        <time>2026-03-06T12:31:37.000Z</time>
      </trkpt>
      <trkpt lat="43.24746" lon="-1.61977">
        <ele>199</ele>
        <time>2026-03-06T12:31:44.000Z</time>
      </trkpt>
      <trkpt lat="43.24748" lon="-1.62">
        <ele>197</ele>
        <time>2026-03-06T12:31:47.000Z</time>
      </trkpt>
      <trkpt lat="43.24757" lon="-1.62048">
        <ele>190</ele>
        <time>2026-03-06T12:31:54.000Z</time>
      </trkpt>
      <trkpt lat="43.24752" lon="-1.62079">
        <ele>185</ele>
        <time>2026-03-06T12:31:58.000Z</time>
      </trkpt>
      <trkpt lat="43.24752" lon="-1.62097">
        <ele>183</ele>
        <time>2026-03-06T12:32:00.000Z</time>
      </trkpt>
      <trkpt lat="43.24758" lon="-1.62111">
        <ele>184</ele>
        <time>2026-03-06T12:32:02.000Z</time>
      </trkpt>
      <trkpt lat="43.24765" lon="-1.62114">
        <ele>185</ele>
        <time>2026-03-06T12:32:04.000Z</time>
      </trkpt>
      <trkpt lat="43.2477" lon="-1.62113">
        <ele>185</ele>
        <time>2026-03-06T12:32:04.000Z</time>
      </trkpt>
      <trkpt lat="43.24794" lon="-1.62102">
        <ele>189</ele>
        <time>2026-03-06T12:32:09.000Z</time>
      </trkpt>
      <trkpt lat="43.24817" lon="-1.62086">
        <ele>191</ele>
        <time>2026-03-06T12:32:14.000Z</time>
      </trkpt>
      <trkpt lat="43.24823" lon="-1.62086">
        <ele>192</ele>
        <time>2026-03-06T12:32:15.000Z</time>
      </trkpt>
      <trkpt lat="43.24828" lon="-1.62094">
        <ele>193</ele>
        <time>2026-03-06T12:32:16.000Z</time>
      </trkpt>
      <trkpt lat="43.24828" lon="-1.62103">
        <ele>194</ele>
        <time>2026-03-06T12:32:17.000Z</time>
      </trkpt>
      <trkpt lat="43.24824" lon="-1.62111">
        <ele>194</ele>
        <time>2026-03-06T12:32:18.000Z</time>
      </trkpt>
      <trkpt lat="43.24776" lon="-1.62149">
        <ele>186</ele>
        <time>2026-03-06T12:32:28.000Z</time>
      </trkpt>
      <trkpt lat="43.24757" lon="-1.62158">
        <ele>181</ele>
        <time>2026-03-06T12:32:32.000Z</time>
      </trkpt>
      <trkpt lat="43.24733" lon="-1.62176">
        <ele>184</ele>
        <time>2026-03-06T12:32:37.000Z</time>
      </trkpt>
      <trkpt lat="43.24725" lon="-1.62186">
        <ele>187</ele>
        <time>2026-03-06T12:32:39.000Z</time>
      </trkpt>
      <trkpt lat="43.24696" lon="-1.62285">
        <ele>188</ele>
        <time>2026-03-06T12:32:52.000Z</time>
      </trkpt>
      <trkpt lat="43.24684" lon="-1.62313">
        <ele>184</ele>
        <time>2026-03-06T12:32:57.000Z</time>
      </trkpt>
      <trkpt lat="43.24667" lon="-1.62335">
        <ele>178</ele>
        <time>2026-03-06T12:33:01.000Z</time>
      </trkpt>
      <trkpt lat="43.24597" lon="-1.62408">
        <ele>175</ele>
        <time>2026-03-06T12:33:16.000Z</time>
      </trkpt>
      <trkpt lat="43.24583" lon="-1.62427">
        <ele>169</ele>
        <time>2026-03-06T12:33:20.000Z</time>
      </trkpt>
      <trkpt lat="43.24572" lon="-1.6245">
        <ele>170</ele>
        <time>2026-03-06T12:33:24.000Z</time>
      </trkpt>
      <trkpt lat="43.2457" lon="-1.6247">
        <ele>169</ele>
        <time>2026-03-06T12:33:26.000Z</time>
      </trkpt>
      <trkpt lat="43.24574" lon="-1.62487">
        <ele>166</ele>
        <time>2026-03-06T12:33:28.000Z</time>
      </trkpt>
      <trkpt lat="43.24592" lon="-1.62511">
        <ele>166</ele>
        <time>2026-03-06T12:33:33.000Z</time>
      </trkpt>
      <trkpt lat="43.24595" lon="-1.62519">
        <ele>166</ele>
        <time>2026-03-06T12:33:34.000Z</time>
      </trkpt>
      <trkpt lat="43.24599" lon="-1.62534">
        <ele>167</ele>
        <time>2026-03-06T12:33:36.000Z</time>
      </trkpt>
      <trkpt lat="43.24603" lon="-1.62591">
        <ele>164</ele>
        <time>2026-03-06T12:33:44.000Z</time>
      </trkpt>
      <trkpt lat="43.24601" lon="-1.62607">
        <ele>163</ele>
        <time>2026-03-06T12:33:46.000Z</time>
      </trkpt>
      <trkpt lat="43.2459" lon="-1.62635">
        <ele>159</ele>
        <time>2026-03-06T12:33:50.000Z</time>
      </trkpt>
      <trkpt lat="43.24563" lon="-1.62669">
        <ele>156</ele>
        <time>2026-03-06T12:33:56.000Z</time>
      </trkpt>
      <trkpt lat="43.24539" lon="-1.62688">
        <ele>158</ele>
        <time>2026-03-06T12:34:01.000Z</time>
      </trkpt>
      <trkpt lat="43.24529" lon="-1.62693">
        <ele>159</ele>
        <time>2026-03-06T12:34:03.000Z</time>
      </trkpt>
      <trkpt lat="43.2452" lon="-1.62695">
        <ele>158</ele>
        <time>2026-03-06T12:34:05.000Z</time>
      </trkpt>
      <trkpt lat="43.2448" lon="-1.62696">
        <ele>156</ele>
        <time>2026-03-06T12:34:12.000Z</time>
      </trkpt>
      <trkpt lat="43.24439" lon="-1.62692">
        <ele>155</ele>
        <time>2026-03-06T12:34:19.000Z</time>
      </trkpt>
      <trkpt lat="43.24429" lon="-1.62695">
        <ele>154</ele>
        <time>2026-03-06T12:34:21.000Z</time>
      </trkpt>
      <trkpt lat="43.24417" lon="-1.62702">
        <ele>154</ele>
        <time>2026-03-06T12:34:23.000Z</time>
      </trkpt>
      <trkpt lat="43.24401" lon="-1.62717">
        <ele>155</ele>
        <time>2026-03-06T12:34:27.000Z</time>
      </trkpt>
      <trkpt lat="43.24369" lon="-1.62751">
        <ele>153</ele>
        <time>2026-03-06T12:34:34.000Z</time>
      </trkpt>
      <trkpt lat="43.24357" lon="-1.62766">
        <ele>153</ele>
        <time>2026-03-06T12:34:37.000Z</time>
      </trkpt>
      <trkpt lat="43.24343" lon="-1.62789">
        <ele>151</ele>
        <time>2026-03-06T12:34:41.000Z</time>
      </trkpt>
      <trkpt lat="43.2432" lon="-1.6284">
        <ele>149</ele>
        <time>2026-03-06T12:34:49.000Z</time>
      </trkpt>
      <trkpt lat="43.24298" lon="-1.629">
        <ele>151</ele>
        <time>2026-03-06T12:34:57.000Z</time>
      </trkpt>
      <trkpt lat="43.24294" lon="-1.62915">
        <ele>150</ele>
        <time>2026-03-06T12:34:59.000Z</time>
      </trkpt>
      <trkpt lat="43.24288" lon="-1.62926">
        <ele>149</ele>
        <time>2026-03-06T12:35:01.000Z</time>
      </trkpt>
      <trkpt lat="43.24277" lon="-1.62935">
        <ele>147</ele>
        <time>2026-03-06T12:35:03.000Z</time>
      </trkpt>
      <trkpt lat="43.24258" lon="-1.62946">
        <ele>144</ele>
        <time>2026-03-06T12:35:07.000Z</time>
      </trkpt>
      <trkpt lat="43.24251" lon="-1.62954">
        <ele>143</ele>
        <time>2026-03-06T12:35:09.000Z</time>
      </trkpt>
      <trkpt lat="43.24239" lon="-1.62991">
        <ele>141</ele>
        <time>2026-03-06T12:35:14.000Z</time>
      </trkpt>
      <trkpt lat="43.24232" lon="-1.62999">
        <ele>139</ele>
        <time>2026-03-06T12:35:16.000Z</time>
      </trkpt>
      <trkpt lat="43.24222" lon="-1.63005">
        <ele>140</ele>
        <time>2026-03-06T12:35:17.000Z</time>
      </trkpt>
      <trkpt lat="43.24211" lon="-1.63006">
        <ele>139</ele>
        <time>2026-03-06T12:35:19.000Z</time>
      </trkpt>
      <trkpt lat="43.24149" lon="-1.63009">
        <ele>138</ele>
        <time>2026-03-06T12:35:30.000Z</time>
      </trkpt>
      <trkpt lat="43.24051" lon="-1.63022">
        <ele>147</ele>
        <time>2026-03-06T12:35:48.000Z</time>
      </trkpt>
      <trkpt lat="43.24026" lon="-1.63035">
        <ele>148</ele>
        <time>2026-03-06T12:35:53.000Z</time>
      </trkpt>
      <trkpt lat="43.24011" lon="-1.63046">
        <ele>146</ele>
        <time>2026-03-06T12:35:56.000Z</time>
      </trkpt>
      <trkpt lat="43.24004" lon="-1.63057">
        <ele>143</ele>
        <time>2026-03-06T12:35:58.000Z</time>
      </trkpt>
      <trkpt lat="43.23998" lon="-1.63078">
        <ele>136</ele>
        <time>2026-03-06T12:36:01.000Z</time>
      </trkpt>
      <trkpt lat="43.23996" lon="-1.63126">
        <ele>132</ele>
        <time>2026-03-06T12:36:07.000Z</time>
      </trkpt>
      <trkpt lat="43.23987" lon="-1.63141">
        <ele>134</ele>
        <time>2026-03-06T12:36:09.000Z</time>
      </trkpt>
      <trkpt lat="43.2397" lon="-1.63161">
        <ele>137</ele>
        <time>2026-03-06T12:36:13.000Z</time>
      </trkpt>
      <trkpt lat="43.23944" lon="-1.63196">
        <ele>141</ele>
        <time>2026-03-06T12:36:20.000Z</time>
      </trkpt>
      <trkpt lat="43.23944" lon="-1.63204">
        <ele>141</ele>
        <time>2026-03-06T12:36:21.000Z</time>
      </trkpt>
      <trkpt lat="43.23953" lon="-1.63244">
        <ele>137</ele>
        <time>2026-03-06T12:36:26.000Z</time>
      </trkpt>
      <trkpt lat="43.23959" lon="-1.63289">
        <ele>134</ele>
        <time>2026-03-06T12:36:32.000Z</time>
      </trkpt>
      <trkpt lat="43.23955" lon="-1.63312">
        <ele>132</ele>
        <time>2026-03-06T12:36:35.000Z</time>
      </trkpt>
      <trkpt lat="43.23948" lon="-1.6333">
        <ele>129</ele>
        <time>2026-03-06T12:36:38.000Z</time>
      </trkpt>
      <trkpt lat="43.23944" lon="-1.63337">
        <ele>128</ele>
        <time>2026-03-06T12:36:39.000Z</time>
      </trkpt>
      <trkpt lat="43.23936" lon="-1.6334">
        <ele>127</ele>
        <time>2026-03-06T12:36:41.000Z</time>
      </trkpt>
      <trkpt lat="43.23903" lon="-1.63346">
        <ele>124</ele>
        <time>2026-03-06T12:36:46.000Z</time>
      </trkpt>
      <trkpt lat="43.23871" lon="-1.63361">
        <ele>126</ele>
        <time>2026-03-06T12:36:52.000Z</time>
      </trkpt>
      <trkpt lat="43.23862" lon="-1.63362">
        <ele>126</ele>
        <time>2026-03-06T12:36:54.000Z</time>
      </trkpt>
      <trkpt lat="43.23842" lon="-1.63359">
        <ele>128</ele>
        <time>2026-03-06T12:36:58.000Z</time>
      </trkpt>
      <trkpt lat="43.23831" lon="-1.6336">
        <ele>128</ele>
        <time>2026-03-06T12:37:00.000Z</time>
      </trkpt>
      <trkpt lat="43.23817" lon="-1.6337">
        <ele>125</ele>
        <time>2026-03-06T12:37:02.000Z</time>
      </trkpt>
      <trkpt lat="43.23786" lon="-1.63406">
        <ele>114</ele>
        <time>2026-03-06T12:37:10.000Z</time>
      </trkpt>
      <trkpt lat="43.23775" lon="-1.63414">
        <ele>111</ele>
        <time>2026-03-06T12:37:12.000Z</time>
      </trkpt>
      <trkpt lat="43.23736" lon="-1.63427">
        <ele>109</ele>
        <time>2026-03-06T12:37:19.000Z</time>
      </trkpt>
      <trkpt lat="43.23726" lon="-1.63433">
        <ele>109</ele>
        <time>2026-03-06T12:37:21.000Z</time>
      </trkpt>
      <trkpt lat="43.23677" lon="-1.63476">
        <ele>105</ele>
        <time>2026-03-06T12:37:31.000Z</time>
      </trkpt>
      <trkpt lat="43.23662" lon="-1.63491">
        <ele>103</ele>
        <time>2026-03-06T12:37:35.000Z</time>
      </trkpt>
      <trkpt lat="43.23657" lon="-1.63508">
        <ele>104</ele>
        <time>2026-03-06T12:37:37.000Z</time>
      </trkpt>
      <trkpt lat="43.23654" lon="-1.63518">
        <ele>105</ele>
        <time>2026-03-06T12:37:38.000Z</time>
      </trkpt>
      <trkpt lat="43.23645" lon="-1.63556">
        <ele>108</ele>
        <time>2026-03-06T12:37:44.000Z</time>
      </trkpt>
      <trkpt lat="43.23639" lon="-1.63571">
        <ele>109</ele>
        <time>2026-03-06T12:37:46.000Z</time>
      </trkpt>
      <trkpt lat="43.23632" lon="-1.63578">
        <ele>109</ele>
        <time>2026-03-06T12:37:47.000Z</time>
      </trkpt>
      <trkpt lat="43.23623" lon="-1.63585">
        <ele>108</ele>
        <time>2026-03-06T12:37:49.000Z</time>
      </trkpt>
      <trkpt lat="43.23611" lon="-1.63586">
        <ele>106</ele>
        <time>2026-03-06T12:37:51.000Z</time>
      </trkpt>
      <trkpt lat="43.23596" lon="-1.63577">
        <ele>103</ele>
        <time>2026-03-06T12:37:54.000Z</time>
      </trkpt>
      <trkpt lat="43.23587" lon="-1.63573">
        <ele>101</ele>
        <time>2026-03-06T12:37:56.000Z</time>
      </trkpt>
      <trkpt lat="43.23557" lon="-1.63592">
        <ele>100</ele>
        <time>2026-03-06T12:38:02.000Z</time>
      </trkpt>
      <trkpt lat="43.2353" lon="-1.63597">
        <ele>99</ele>
        <time>2026-03-06T12:38:07.000Z</time>
      </trkpt>
      <trkpt lat="43.23523" lon="-1.63601">
        <ele>99</ele>
        <time>2026-03-06T12:38:08.000Z</time>
      </trkpt>
      <trkpt lat="43.23474" lon="-1.6363">
        <ele>98</ele>
        <time>2026-03-06T12:38:17.000Z</time>
      </trkpt>
      <trkpt lat="43.23459" lon="-1.63643">
        <ele>98</ele>
        <time>2026-03-06T12:38:21.000Z</time>
      </trkpt>
      <trkpt lat="43.23433" lon="-1.63672">
        <ele>99</ele>
        <time>2026-03-06T12:38:27.000Z</time>
      </trkpt>
      <trkpt lat="43.23402" lon="-1.6369">
        <ele>101</ele>
        <time>2026-03-06T12:38:33.000Z</time>
      </trkpt>
      <trkpt lat="43.23402" lon="-1.63719">
        <ele>101</ele>
        <time>2026-03-06T12:38:36.000Z</time>
      </trkpt>
      <trkpt lat="43.23403" lon="-1.6377">
        <ele>101</ele>
        <time>2026-03-06T12:38:43.000Z</time>
      </trkpt>
      <trkpt lat="43.23414" lon="-1.63805">
        <ele>99</ele>
        <time>2026-03-06T12:38:48.000Z</time>
      </trkpt>
      <trkpt lat="43.23415" lon="-1.63818">
        <ele>99</ele>
        <time>2026-03-06T12:38:50.000Z</time>
      </trkpt>
      <trkpt lat="43.23412" lon="-1.63859">
        <ele>98</ele>
        <time>2026-03-06T12:38:55.000Z</time>
      </trkpt>
      <trkpt lat="43.23413" lon="-1.63877">
        <ele>98</ele>
        <time>2026-03-06T12:38:57.000Z</time>
      </trkpt>
      <trkpt lat="43.23424" lon="-1.63886">
        <ele>97</ele>
        <time>2026-03-06T12:39:00.000Z</time>
      </trkpt>
      <trkpt lat="43.23453" lon="-1.63896">
        <ele>98</ele>
        <time>2026-03-06T12:39:05.000Z</time>
      </trkpt>
      <trkpt lat="43.23509" lon="-1.63909">
        <ele>101</ele>
        <time>2026-03-06T12:39:15.000Z</time>
      </trkpt>
      <trkpt lat="43.23526" lon="-1.63916">
        <ele>107</ele>
        <time>2026-03-06T12:39:18.000Z</time>
      </trkpt>
      <trkpt lat="43.23543" lon="-1.63928">
        <ele>112</ele>
        <time>2026-03-06T12:39:22.000Z</time>
      </trkpt>
      <trkpt lat="43.23551" lon="-1.63945">
        <ele>114</ele>
        <time>2026-03-06T12:39:24.000Z</time>
      </trkpt>
      <trkpt lat="43.23563" lon="-1.63982">
        <ele>114</ele>
        <time>2026-03-06T12:39:29.000Z</time>
      </trkpt>
      <trkpt lat="43.23595" lon="-1.64099">
        <ele>107</ele>
        <time>2026-03-06T12:39:46.000Z</time>
      </trkpt>
      <trkpt lat="43.23606" lon="-1.64127">
        <ele>106</ele>
        <time>2026-03-06T12:39:50.000Z</time>
      </trkpt>
      <trkpt lat="43.23618" lon="-1.6415">
        <ele>105</ele>
        <time>2026-03-06T12:39:53.000Z</time>
      </trkpt>
      <trkpt lat="43.23627" lon="-1.64177">
        <ele>105</ele>
        <time>2026-03-06T12:39:57.000Z</time>
      </trkpt>
      <trkpt lat="43.23631" lon="-1.64205">
        <ele>109</ele>
        <time>2026-03-06T12:40:01.000Z</time>
      </trkpt>
      <trkpt lat="43.23633" lon="-1.64252">
        <ele>114</ele>
        <time>2026-03-06T12:40:07.000Z</time>
      </trkpt>
      <trkpt lat="43.23629" lon="-1.64306">
        <ele>115</ele>
        <time>2026-03-06T12:40:14.000Z</time>
      </trkpt>
      <trkpt lat="43.23606" lon="-1.64486">
        <ele>110</ele>
        <time>2026-03-06T12:40:38.000Z</time>
      </trkpt>
      <trkpt lat="43.23587" lon="-1.64562">
        <ele>108</ele>
        <time>2026-03-06T12:40:48.000Z</time>
      </trkpt>
      <trkpt lat="43.2356" lon="-1.64678">
        <ele>111</ele>
        <time>2026-03-06T12:41:04.000Z</time>
      </trkpt>
      <trkpt lat="43.23557" lon="-1.64704">
        <ele>113</ele>
        <time>2026-03-06T12:41:07.000Z</time>
      </trkpt>
      <trkpt lat="43.23555" lon="-1.64735">
        <ele>115</ele>
        <time>2026-03-06T12:41:11.000Z</time>
      </trkpt>
      <trkpt lat="43.23559" lon="-1.64819">
        <ele>121</ele>
        <time>2026-03-06T12:41:22.000Z</time>
      </trkpt>
      <trkpt lat="43.23551" lon="-1.64894">
        <ele>123</ele>
        <time>2026-03-06T12:41:32.000Z</time>
      </trkpt>
      <trkpt lat="43.23537" lon="-1.6498">
        <ele>122</ele>
        <time>2026-03-06T12:41:44.000Z</time>
      </trkpt>
      <trkpt lat="43.23536" lon="-1.6502">
        <ele>122</ele>
        <time>2026-03-06T12:41:49.000Z</time>
      </trkpt>
      <trkpt lat="43.23539" lon="-1.6511">
        <ele>119</ele>
        <time>2026-03-06T12:42:00.000Z</time>
      </trkpt>
      <trkpt lat="43.23548" lon="-1.65136">
        <ele>120</ele>
        <time>2026-03-06T12:42:04.000Z</time>
      </trkpt>
      <trkpt lat="43.23648" lon="-1.65244">
        <ele>135</ele>
        <time>2026-03-06T12:42:27.000Z</time>
      </trkpt>
      <trkpt lat="43.2366" lon="-1.65273">
        <ele>134</ele>
        <time>2026-03-06T12:42:31.000Z</time>
      </trkpt>
      <trkpt lat="43.23676" lon="-1.65389">
        <ele>127</ele>
        <time>2026-03-06T12:42:46.000Z</time>
      </trkpt>
      <trkpt lat="43.23686" lon="-1.6543">
        <ele>129</ele>
        <time>2026-03-06T12:42:52.000Z</time>
      </trkpt>
      <trkpt lat="43.23732" lon="-1.655">
        <ele>142</ele>
        <time>2026-03-06T12:43:04.000Z</time>
      </trkpt>
      <trkpt lat="43.23738" lon="-1.65536">
        <ele>146</ele>
        <time>2026-03-06T12:43:09.000Z</time>
      </trkpt>
      <trkpt lat="43.23732" lon="-1.65567">
        <ele>145</ele>
        <time>2026-03-06T12:43:13.000Z</time>
      </trkpt>
      <trkpt lat="43.23712" lon="-1.65618">
        <ele>141</ele>
        <time>2026-03-06T12:43:21.000Z</time>
      </trkpt>
      <trkpt lat="43.23671" lon="-1.65791">
        <ele>128</ele>
        <time>2026-03-06T12:43:44.000Z</time>
      </trkpt>
      <trkpt lat="43.23661" lon="-1.65813">
        <ele>127</ele>
        <time>2026-03-06T12:43:48.000Z</time>
      </trkpt>
      <trkpt lat="43.23647" lon="-1.65826">
        <ele>126</ele>
        <time>2026-03-06T12:43:51.000Z</time>
      </trkpt>
      <trkpt lat="43.23614" lon="-1.65837">
        <ele>120</ele>
        <time>2026-03-06T12:43:57.000Z</time>
      </trkpt>
      <trkpt lat="43.23603" lon="-1.65847">
        <ele>117</ele>
        <time>2026-03-06T12:43:59.000Z</time>
      </trkpt>
      <trkpt lat="43.23595" lon="-1.65865">
        <ele>114</ele>
        <time>2026-03-06T12:44:02.000Z</time>
      </trkpt>
      <trkpt lat="43.23592" lon="-1.65884">
        <ele>112</ele>
        <time>2026-03-06T12:44:04.000Z</time>
      </trkpt>
      <trkpt lat="43.23597" lon="-1.65905">
        <ele>111</ele>
        <time>2026-03-06T12:44:07.000Z</time>
      </trkpt>
      <trkpt lat="43.23617" lon="-1.65955">
        <ele>110</ele>
        <time>2026-03-06T12:44:15.000Z</time>
      </trkpt>
      <trkpt lat="43.23637" lon="-1.66017">
        <ele>102</ele>
        <time>2026-03-06T12:44:23.000Z</time>
      </trkpt>
      <trkpt lat="43.23645" lon="-1.66034">
        <ele>99</ele>
        <time>2026-03-06T12:44:26.000Z</time>
      </trkpt>
      <trkpt lat="43.23655" lon="-1.66043">
        <ele>98</ele>
        <time>2026-03-06T12:44:28.000Z</time>
      </trkpt>
      <trkpt lat="43.23726" lon="-1.66065">
        <ele>102</ele>
        <time>2026-03-06T12:44:41.000Z</time>
      </trkpt>
      <trkpt lat="43.23773" lon="-1.66088">
        <ele>99</ele>
        <time>2026-03-06T12:44:50.000Z</time>
      </trkpt>
      <trkpt lat="43.23794" lon="-1.66108">
        <ele>96</ele>
        <time>2026-03-06T12:44:55.000Z</time>
      </trkpt>
      <trkpt lat="43.2381" lon="-1.66132">
        <ele>90</ele>
        <time>2026-03-06T12:44:59.000Z</time>
      </trkpt>
      <trkpt lat="43.23827" lon="-1.66149">
        <ele>87</ele>
        <time>2026-03-06T12:45:02.000Z</time>
      </trkpt>
      <trkpt lat="43.23854" lon="-1.66159">
        <ele>87</ele>
        <time>2026-03-06T12:45:07.000Z</time>
      </trkpt>
      <trkpt lat="43.23877" lon="-1.66162">
        <ele>89</ele>
        <time>2026-03-06T12:45:12.000Z</time>
      </trkpt>
      <trkpt lat="43.23895" lon="-1.66157">
        <ele>93</ele>
        <time>2026-03-06T12:45:15.000Z</time>
      </trkpt>
      <trkpt lat="43.23911" lon="-1.66157">
        <ele>95</ele>
        <time>2026-03-06T12:45:18.000Z</time>
      </trkpt>
      <trkpt lat="43.23924" lon="-1.6617">
        <ele>95</ele>
        <time>2026-03-06T12:45:21.000Z</time>
      </trkpt>
      <trkpt lat="43.23933" lon="-1.66183">
        <ele>95</ele>
        <time>2026-03-06T12:45:23.000Z</time>
      </trkpt>
      <trkpt lat="43.23954" lon="-1.66236">
        <ele>90</ele>
        <time>2026-03-06T12:45:31.000Z</time>
      </trkpt>
      <trkpt lat="43.23959" lon="-1.6626">
        <ele>88</ele>
        <time>2026-03-06T12:45:34.000Z</time>
      </trkpt>
      <trkpt lat="43.23963" lon="-1.66291">
        <ele>88</ele>
        <time>2026-03-06T12:45:38.000Z</time>
      </trkpt>
      <trkpt lat="43.23961" lon="-1.66323">
        <ele>86</ele>
        <time>2026-03-06T12:45:42.000Z</time>
      </trkpt>
      <trkpt lat="43.23957" lon="-1.66355">
        <ele>86</ele>
        <time>2026-03-06T12:45:46.000Z</time>
      </trkpt>
      <trkpt lat="43.23944" lon="-1.66408">
        <ele>83</ele>
        <time>2026-03-06T12:45:54.000Z</time>
      </trkpt>
      <trkpt lat="43.23921" lon="-1.66488">
        <ele>78</ele>
        <time>2026-03-06T12:46:05.000Z</time>
      </trkpt>
      <trkpt lat="43.23915" lon="-1.66518">
        <ele>76</ele>
        <time>2026-03-06T12:46:09.000Z</time>
      </trkpt>
      <trkpt lat="43.23923" lon="-1.66543">
        <ele>75</ele>
        <time>2026-03-06T12:46:12.000Z</time>
      </trkpt>
      <trkpt lat="43.23939" lon="-1.66559">
        <ele>75</ele>
        <time>2026-03-06T12:46:16.000Z</time>
      </trkpt>
      <trkpt lat="43.23958" lon="-1.66565">
        <ele>77</ele>
        <time>2026-03-06T12:46:19.000Z</time>
      </trkpt>
      <trkpt lat="43.23992" lon="-1.66563">
        <ele>81</ele>
        <time>2026-03-06T12:46:25.000Z</time>
      </trkpt>
      <trkpt lat="43.24016" lon="-1.66569">
        <ele>82</ele>
        <time>2026-03-06T12:46:30.000Z</time>
      </trkpt>
      <trkpt lat="43.24043" lon="-1.66584">
        <ele>82</ele>
        <time>2026-03-06T12:46:35.000Z</time>
      </trkpt>
      <trkpt lat="43.24071" lon="-1.66595">
        <ele>84</ele>
        <time>2026-03-06T12:46:40.000Z</time>
      </trkpt>
      <trkpt lat="43.24104" lon="-1.66605">
        <ele>91</ele>
        <time>2026-03-06T12:46:46.000Z</time>
      </trkpt>
      <trkpt lat="43.2412" lon="-1.66617">
        <ele>94</ele>
        <time>2026-03-06T12:46:49.000Z</time>
      </trkpt>
      <trkpt lat="43.24128" lon="-1.66635">
        <ele>95</ele>
        <time>2026-03-06T12:46:52.000Z</time>
      </trkpt>
      <trkpt lat="43.24128" lon="-1.66657">
        <ele>92</ele>
        <time>2026-03-06T12:46:55.000Z</time>
      </trkpt>
      <trkpt lat="43.24121" lon="-1.66699">
        <ele>90</ele>
        <time>2026-03-06T12:47:01.000Z</time>
      </trkpt>
      <trkpt lat="43.24107" lon="-1.66735">
        <ele>88</ele>
        <time>2026-03-06T12:47:06.000Z</time>
      </trkpt>
      <trkpt lat="43.24088" lon="-1.6676">
        <ele>84</ele>
        <time>2026-03-06T12:47:10.000Z</time>
      </trkpt>
      <trkpt lat="43.24025" lon="-1.66796">
        <ele>76</ele>
        <time>2026-03-06T12:47:23.000Z</time>
      </trkpt>
      <trkpt lat="43.23982" lon="-1.66838">
        <ele>73</ele>
        <time>2026-03-06T12:47:32.000Z</time>
      </trkpt>
      <trkpt lat="43.23976" lon="-1.66848">
        <ele>73</ele>
        <time>2026-03-06T12:47:34.000Z</time>
      </trkpt>
      <trkpt lat="43.23972" lon="-1.66867">
        <ele>73</ele>
        <time>2026-03-06T12:47:36.000Z</time>
      </trkpt>
      <trkpt lat="43.23976" lon="-1.66889">
        <ele>72</ele>
        <time>2026-03-06T12:47:39.000Z</time>
      </trkpt>
      <trkpt lat="43.23984" lon="-1.66902">
        <ele>71</ele>
        <time>2026-03-06T12:47:41.000Z</time>
      </trkpt>
      <trkpt lat="43.23997" lon="-1.66913">
        <ele>70</ele>
        <time>2026-03-06T12:47:44.000Z</time>
      </trkpt>
      <trkpt lat="43.24103" lon="-1.66947">
        <ele>76</ele>
        <time>2026-03-06T12:48:03.000Z</time>
      </trkpt>
      <trkpt lat="43.24122" lon="-1.66958">
        <ele>75</ele>
        <time>2026-03-06T12:48:07.000Z</time>
      </trkpt>
      <trkpt lat="43.24153" lon="-1.66969">
        <ele>72</ele>
        <time>2026-03-06T12:48:13.000Z</time>
      </trkpt>
      <trkpt lat="43.24232" lon="-1.66972">
        <ele>72</ele>
        <time>2026-03-06T12:48:27.000Z</time>
      </trkpt>
      <trkpt lat="43.24253" lon="-1.66968">
        <ele>74</ele>
        <time>2026-03-06T12:48:31.000Z</time>
      </trkpt>
      <trkpt lat="43.24291" lon="-1.66991">
        <ele>63</ele>
        <time>2026-03-06T12:48:38.000Z</time>
      </trkpt>
      <trkpt lat="43.24298" lon="-1.66994">
        <ele>61</ele>
        <time>2026-03-06T12:48:39.000Z</time>
      </trkpt>
      <trkpt lat="43.24301" lon="-1.66998">
        <ele>59</ele>
        <time>2026-03-06T12:48:40.000Z</time>
      </trkpt>
      <trkpt lat="43.24304" lon="-1.67009">
        <ele>58</ele>
        <time>2026-03-06T12:48:42.000Z</time>
      </trkpt>
      <trkpt lat="43.24302" lon="-1.67019">
        <ele>57</ele>
        <time>2026-03-06T12:48:43.000Z</time>
      </trkpt>
      <trkpt lat="43.24296" lon="-1.67026">
        <ele>57</ele>
        <time>2026-03-06T12:48:44.000Z</time>
      </trkpt>
      <trkpt lat="43.24288" lon="-1.67027">
        <ele>58</ele>
        <time>2026-03-06T12:48:46.000Z</time>
      </trkpt>
      <trkpt lat="43.24284" lon="-1.67025">
        <ele>58</ele>
        <time>2026-03-06T12:48:47.000Z</time>
      </trkpt>
      <trkpt lat="43.2428" lon="-1.67019">
        <ele>59</ele>
        <time>2026-03-06T12:48:48.000Z</time>
      </trkpt>
      <trkpt lat="43.24253" lon="-1.67056">
        <ele>58</ele>
        <time>2026-03-06T12:48:54.000Z</time>
      </trkpt>
      <trkpt lat="43.24217" lon="-1.67132">
        <ele>59</ele>
        <time>2026-03-06T12:49:06.000Z</time>
      </trkpt>
      <trkpt lat="43.24133" lon="-1.67294">
        <ele>71</ele>
        <time>2026-03-06T12:49:32.000Z</time>
      </trkpt>
      <trkpt lat="43.24122" lon="-1.67308">
        <ele>70</ele>
        <time>2026-03-06T12:49:35.000Z</time>
      </trkpt>
      <trkpt lat="43.24108" lon="-1.67316">
        <ele>70</ele>
        <time>2026-03-06T12:49:37.000Z</time>
      </trkpt>
      <trkpt lat="43.24084" lon="-1.67316">
        <ele>74</ele>
        <time>2026-03-06T12:49:42.000Z</time>
      </trkpt>
      <trkpt lat="43.24064" lon="-1.67303">
        <ele>75</ele>
        <time>2026-03-06T12:49:46.000Z</time>
      </trkpt>
      <trkpt lat="43.23943" lon="-1.67176">
        <ele>79</ele>
        <time>2026-03-06T12:50:13.000Z</time>
      </trkpt>
      <trkpt lat="43.2392" lon="-1.67168">
        <ele>74</ele>
        <time>2026-03-06T12:50:17.000Z</time>
      </trkpt>
      <trkpt lat="43.23901" lon="-1.67168">
        <ele>73</ele>
        <time>2026-03-06T12:50:20.000Z</time>
      </trkpt>
      <trkpt lat="43.23874" lon="-1.67185">
        <ele>71</ele>
        <time>2026-03-06T12:50:26.000Z</time>
      </trkpt>
      <trkpt lat="43.23611" lon="-1.67557">
        <ele>70</ele>
        <time>2026-03-06T12:51:33.000Z</time>
      </trkpt>
      <trkpt lat="43.23553" lon="-1.67614">
        <ele>68</ele>
        <time>2026-03-06T12:51:45.000Z</time>
      </trkpt>
      <trkpt lat="43.23525" lon="-1.67627">
        <ele>68</ele>
        <time>2026-03-06T12:51:51.000Z</time>
      </trkpt>
      <trkpt lat="43.23501" lon="-1.67623">
        <ele>69</ele>
        <time>2026-03-06T12:51:55.000Z</time>
      </trkpt>
      <trkpt lat="43.23481" lon="-1.67604">
        <ele>69</ele>
        <time>2026-03-06T12:51:59.000Z</time>
      </trkpt>
      <trkpt lat="43.23405" lon="-1.67483">
        <ele>74</ele>
        <time>2026-03-06T12:52:20.000Z</time>
      </trkpt>
      <trkpt lat="43.23324" lon="-1.67386">
        <ele>80</ele>
        <time>2026-03-06T12:52:39.000Z</time>
      </trkpt>
      <trkpt lat="43.23297" lon="-1.67357">
        <ele>85</ele>
        <time>2026-03-06T12:52:45.000Z</time>
      </trkpt>
      <trkpt lat="43.23268" lon="-1.67341">
        <ele>80</ele>
        <time>2026-03-06T12:52:51.000Z</time>
      </trkpt>
      <trkpt lat="43.23233" lon="-1.67336">
        <ele>74</ele>
        <time>2026-03-06T12:52:57.000Z</time>
      </trkpt>
      <trkpt lat="43.23211" lon="-1.67344">
        <ele>73</ele>
        <time>2026-03-06T12:53:01.000Z</time>
      </trkpt>
      <trkpt lat="43.23171" lon="-1.67383">
        <ele>67</ele>
        <time>2026-03-06T12:53:10.000Z</time>
      </trkpt>
      <trkpt lat="43.23059" lon="-1.67535">
        <ele>70</ele>
        <time>2026-03-06T12:53:38.000Z</time>
      </trkpt>
      <trkpt lat="43.2304" lon="-1.67579">
        <ele>70</ele>
        <time>2026-03-06T12:53:44.000Z</time>
      </trkpt>
      <trkpt lat="43.2302" lon="-1.67618">
        <ele>69</ele>
        <time>2026-03-06T12:53:51.000Z</time>
      </trkpt>
      <trkpt lat="43.22987" lon="-1.67671">
        <ele>66</ele>
        <time>2026-03-06T12:54:00.000Z</time>
      </trkpt>
      <trkpt lat="43.22955" lon="-1.67713">
        <ele>68</ele>
        <time>2026-03-06T12:54:08.000Z</time>
      </trkpt>
      <trkpt lat="43.22935" lon="-1.67733">
        <ele>67</ele>
        <time>2026-03-06T12:54:12.000Z</time>
      </trkpt>
      <trkpt lat="43.22912" lon="-1.67743">
        <ele>66</ele>
        <time>2026-03-06T12:54:16.000Z</time>
      </trkpt>
      <trkpt lat="43.22867" lon="-1.67755">
        <ele>64</ele>
        <time>2026-03-06T12:54:24.000Z</time>
      </trkpt>
      <trkpt lat="43.22858" lon="-1.67755">
        <ele>64</ele>
        <time>2026-03-06T12:54:26.000Z</time>
      </trkpt>
      <trkpt lat="43.22856" lon="-1.67752">
        <ele>64</ele>
        <time>2026-03-06T12:54:27.000Z</time>
      </trkpt>
      <trkpt lat="43.2285" lon="-1.67757">
        <ele>64</ele>
        <time>2026-03-06T12:54:28.000Z</time>
      </trkpt>
      <trkpt lat="43.22848" lon="-1.67776">
        <ele>63</ele>
        <time>2026-03-06T12:54:30.000Z</time>
      </trkpt>
      <trkpt lat="43.22848" lon="-1.6781">
        <ele>61</ele>
        <time>2026-03-06T12:54:35.000Z</time>
      </trkpt>
      <trkpt lat="43.22847" lon="-1.67817">
        <ele>60</ele>
        <time>2026-03-06T12:54:36.000Z</time>
      </trkpt>
      <trkpt lat="43.22826" lon="-1.67893">
        <ele>62</ele>
        <time>2026-03-06T12:54:46.000Z</time>
      </trkpt>
      <trkpt lat="43.22824" lon="-1.67914">
        <ele>63</ele>
        <time>2026-03-06T12:54:49.000Z</time>
      </trkpt>
      <trkpt lat="43.22827" lon="-1.67929">
        <ele>64</ele>
        <time>2026-03-06T12:54:51.000Z</time>
      </trkpt>
      <trkpt lat="43.22837" lon="-1.67963">
        <ele>65</ele>
        <time>2026-03-06T12:54:56.000Z</time>
      </trkpt>
      <trkpt lat="43.22846" lon="-1.67984">
        <ele>67</ele>
        <time>2026-03-06T12:54:59.000Z</time>
      </trkpt>
      <trkpt lat="43.22862" lon="-1.68005">
        <ele>70</ele>
        <time>2026-03-06T12:55:03.000Z</time>
      </trkpt>
      <trkpt lat="43.22894" lon="-1.68038">
        <ele>73</ele>
        <time>2026-03-06T12:55:10.000Z</time>
      </trkpt>
      <trkpt lat="43.22903" lon="-1.68044">
        <ele>73</ele>
        <time>2026-03-06T12:55:12.000Z</time>
      </trkpt>
      <trkpt lat="43.22909" lon="-1.68047">
        <ele>74</ele>
        <time>2026-03-06T12:55:13.000Z</time>
      </trkpt>
      <trkpt lat="43.22934" lon="-1.68046">
        <ele>77</ele>
        <time>2026-03-06T12:55:17.000Z</time>
      </trkpt>
      <trkpt lat="43.2294" lon="-1.68048">
        <ele>78</ele>
        <time>2026-03-06T12:55:18.000Z</time>
      </trkpt>
      <trkpt lat="43.22945" lon="-1.68052">
        <ele>79</ele>
        <time>2026-03-06T12:55:19.000Z</time>
      </trkpt>
      <trkpt lat="43.22951" lon="-1.68065">
        <ele>81</ele>
        <time>2026-03-06T12:55:21.000Z</time>
      </trkpt>
      <trkpt lat="43.22949" lon="-1.68084">
        <ele>81</ele>
        <time>2026-03-06T12:55:24.000Z</time>
      </trkpt>
      <trkpt lat="43.22947" lon="-1.68095">
        <ele>83</ele>
        <time>2026-03-06T12:55:25.000Z</time>
      </trkpt>
      <trkpt lat="43.22944" lon="-1.68115">
        <ele>85</ele>
        <time>2026-03-06T12:55:28.000Z</time>
      </trkpt>
      <trkpt lat="43.22938" lon="-1.68134">
        <ele>87</ele>
        <time>2026-03-06T12:55:31.000Z</time>
      </trkpt>
      <trkpt lat="43.22931" lon="-1.68149">
        <ele>88</ele>
        <time>2026-03-06T12:55:33.000Z</time>
      </trkpt>
      <trkpt lat="43.22915" lon="-1.68164">
        <ele>87</ele>
        <time>2026-03-06T12:55:36.000Z</time>
      </trkpt>
      <trkpt lat="43.22897" lon="-1.68176">
        <ele>87</ele>
        <time>2026-03-06T12:55:40.000Z</time>
      </trkpt>
      <trkpt lat="43.22883" lon="-1.68195">
        <ele>88</ele>
        <time>2026-03-06T12:55:44.000Z</time>
      </trkpt>
      <trkpt lat="43.22865" lon="-1.68247">
        <ele>94</ele>
        <time>2026-03-06T12:55:51.000Z</time>
      </trkpt>
      <trkpt lat="43.22847" lon="-1.68278">
        <ele>101</ele>
        <time>2026-03-06T12:55:56.000Z</time>
      </trkpt>
      <trkpt lat="43.22826" lon="-1.68305">
        <ele>107</ele>
        <time>2026-03-06T12:56:01.000Z</time>
      </trkpt>
      <trkpt lat="43.22814" lon="-1.68312">
        <ele>107</ele>
        <time>2026-03-06T12:56:04.000Z</time>
      </trkpt>
      <trkpt lat="43.22796" lon="-1.68316">
        <ele>106</ele>
        <time>2026-03-06T12:56:07.000Z</time>
      </trkpt>
      <trkpt lat="43.22784" lon="-1.68322">
        <ele>106</ele>
        <time>2026-03-06T12:56:09.000Z</time>
      </trkpt>
      <trkpt lat="43.2276" lon="-1.68337">
        <ele>107</ele>
        <time>2026-03-06T12:56:14.000Z</time>
      </trkpt>
      <trkpt lat="43.22753" lon="-1.68338">
        <ele>106</ele>
        <time>2026-03-06T12:56:15.000Z</time>
      </trkpt>
      <trkpt lat="43.22733" lon="-1.68334">
        <ele>100</ele>
        <time>2026-03-06T12:56:19.000Z</time>
      </trkpt>
      <trkpt lat="43.22724" lon="-1.68335">
        <ele>98</ele>
        <time>2026-03-06T12:56:20.000Z</time>
      </trkpt>
      <trkpt lat="43.22717" lon="-1.68341">
        <ele>98</ele>
        <time>2026-03-06T12:56:22.000Z</time>
      </trkpt>
      <trkpt lat="43.22709" lon="-1.68357">
        <ele>100</ele>
        <time>2026-03-06T12:56:24.000Z</time>
      </trkpt>
      <trkpt lat="43.22704" lon="-1.68386">
        <ele>107</ele>
        <time>2026-03-06T12:56:28.000Z</time>
      </trkpt>
      <trkpt lat="43.227" lon="-1.68401">
        <ele>110</ele>
        <time>2026-03-06T12:56:30.000Z</time>
      </trkpt>
      <trkpt lat="43.2268" lon="-1.68456">
        <ele>113</ele>
        <time>2026-03-06T12:56:38.000Z</time>
      </trkpt>
      <trkpt lat="43.22669" lon="-1.68506">
        <ele>117</ele>
        <time>2026-03-06T12:56:45.000Z</time>
      </trkpt>
      <trkpt lat="43.22669" lon="-1.68534">
        <ele>123</ele>
        <time>2026-03-06T12:56:49.000Z</time>
      </trkpt>
      <trkpt lat="43.22665" lon="-1.68547">
        <ele>124</ele>
        <time>2026-03-06T12:56:50.000Z</time>
      </trkpt>
      <trkpt lat="43.22653" lon="-1.68557">
        <ele>122</ele>
        <time>2026-03-06T12:56:53.000Z</time>
      </trkpt>
      <trkpt lat="43.22633" lon="-1.68559">
        <ele>117</ele>
        <time>2026-03-06T12:56:56.000Z</time>
      </trkpt>
      <trkpt lat="43.22622" lon="-1.68562">
        <ele>114</ele>
        <time>2026-03-06T12:56:58.000Z</time>
      </trkpt>
      <trkpt lat="43.22615" lon="-1.6857">
        <ele>114</ele>
        <time>2026-03-06T12:57:00.000Z</time>
      </trkpt>
      <trkpt lat="43.22607" lon="-1.68582">
        <ele>114</ele>
        <time>2026-03-06T12:57:02.000Z</time>
      </trkpt>
      <trkpt lat="43.22604" lon="-1.68594">
        <ele>115</ele>
        <time>2026-03-06T12:57:04.000Z</time>
      </trkpt>
      <trkpt lat="43.22602" lon="-1.68642">
        <ele>120</ele>
        <time>2026-03-06T12:57:10.000Z</time>
      </trkpt>
      <trkpt lat="43.226" lon="-1.68654">
        <ele>121</ele>
        <time>2026-03-06T12:57:12.000Z</time>
      </trkpt>
      <trkpt lat="43.22586" lon="-1.68683">
        <ele>116</ele>
        <time>2026-03-06T12:57:16.000Z</time>
      </trkpt>
      <trkpt lat="43.22585" lon="-1.68689">
        <ele>116</ele>
        <time>2026-03-06T12:57:17.000Z</time>
      </trkpt>
      <trkpt lat="43.22586" lon="-1.68706">
        <ele>116</ele>
        <time>2026-03-06T12:57:19.000Z</time>
      </trkpt>
      <trkpt lat="43.22595" lon="-1.68734">
        <ele>119</ele>
        <time>2026-03-06T12:57:23.000Z</time>
      </trkpt>
      <trkpt lat="43.22617" lon="-1.68773">
        <ele>129</ele>
        <time>2026-03-06T12:57:29.000Z</time>
      </trkpt>
      <trkpt lat="43.22649" lon="-1.68802">
        <ele>144</ele>
        <time>2026-03-06T12:57:36.000Z</time>
      </trkpt>
      <trkpt lat="43.22669" lon="-1.68828">
        <ele>153</ele>
        <time>2026-03-06T12:57:41.000Z</time>
      </trkpt>
      <trkpt lat="43.22673" lon="-1.68839">
        <ele>156</ele>
        <time>2026-03-06T12:57:43.000Z</time>
      </trkpt>
      <trkpt lat="43.22673" lon="-1.6885">
        <ele>158</ele>
        <time>2026-03-06T12:57:44.000Z</time>
      </trkpt>
      <trkpt lat="43.22668" lon="-1.68859">
        <ele>158</ele>
        <time>2026-03-06T12:57:46.000Z</time>
      </trkpt>
      <trkpt lat="43.22641" lon="-1.68878">
        <ele>148</ele>
        <time>2026-03-06T12:57:51.000Z</time>
      </trkpt>
      <trkpt lat="43.22631" lon="-1.68887">
        <ele>145</ele>
        <time>2026-03-06T12:57:53.000Z</time>
      </trkpt>
      <trkpt lat="43.22625" lon="-1.68897">
        <ele>144</ele>
        <time>2026-03-06T12:57:55.000Z</time>
      </trkpt>
      <trkpt lat="43.22617" lon="-1.68911">
        <ele>142</ele>
        <time>2026-03-06T12:57:57.000Z</time>
      </trkpt>
      <trkpt lat="43.22609" lon="-1.6894">
        <ele>147</ele>
        <time>2026-03-06T12:58:01.000Z</time>
      </trkpt>
      <trkpt lat="43.22608" lon="-1.68953">
        <ele>151</ele>
        <time>2026-03-06T12:58:03.000Z</time>
      </trkpt>
      <trkpt lat="43.22606" lon="-1.68964">
        <ele>153</ele>
        <time>2026-03-06T12:58:04.000Z</time>
      </trkpt>
      <trkpt lat="43.226" lon="-1.68978">
        <ele>155</ele>
        <time>2026-03-06T12:58:06.000Z</time>
      </trkpt>
      <trkpt lat="43.22591" lon="-1.68988">
        <ele>155</ele>
        <time>2026-03-06T12:58:09.000Z</time>
      </trkpt>
      <trkpt lat="43.22582" lon="-1.68993">
        <ele>153</ele>
        <time>2026-03-06T12:58:10.000Z</time>
      </trkpt>
      <trkpt lat="43.22575" lon="-1.69003">
        <ele>154</ele>
        <time>2026-03-06T12:58:12.000Z</time>
      </trkpt>
      <trkpt lat="43.22571" lon="-1.69022">
        <ele>160</ele>
        <time>2026-03-06T12:58:15.000Z</time>
      </trkpt>
      <trkpt lat="43.22566" lon="-1.69033">
        <ele>163</ele>
        <time>2026-03-06T12:58:16.000Z</time>
      </trkpt>
      <trkpt lat="43.22557" lon="-1.69039">
        <ele>162</ele>
        <time>2026-03-06T12:58:18.000Z</time>
      </trkpt>
      <trkpt lat="43.22528" lon="-1.69038">
        <ele>150</ele>
        <time>2026-03-06T12:58:23.000Z</time>
      </trkpt>
      <trkpt lat="43.22515" lon="-1.6904">
        <ele>146</ele>
        <time>2026-03-06T12:58:26.000Z</time>
      </trkpt>
      <trkpt lat="43.225" lon="-1.69051">
        <ele>144</ele>
        <time>2026-03-06T12:58:29.000Z</time>
      </trkpt>
      <trkpt lat="43.22497" lon="-1.69057">
        <ele>145</ele>
        <time>2026-03-06T12:58:30.000Z</time>
      </trkpt>
      <trkpt lat="43.22495" lon="-1.69081">
        <ele>152</ele>
        <time>2026-03-06T12:58:33.000Z</time>
      </trkpt>
      <trkpt lat="43.22492" lon="-1.69099">
        <ele>155</ele>
        <time>2026-03-06T12:58:35.000Z</time>
      </trkpt>
      <trkpt lat="43.22471" lon="-1.69189">
        <ele>161</ele>
        <time>2026-03-06T12:58:47.000Z</time>
      </trkpt>
      <trkpt lat="43.22472" lon="-1.69202">
        <ele>163</ele>
        <time>2026-03-06T12:58:49.000Z</time>
      </trkpt>
      <trkpt lat="43.22487" lon="-1.69265">
        <ele>177</ele>
        <time>2026-03-06T12:58:58.000Z</time>
      </trkpt>
      <trkpt lat="43.22488" lon="-1.69285">
        <ele>181</ele>
        <time>2026-03-06T12:59:00.000Z</time>
      </trkpt>
      <trkpt lat="43.22485" lon="-1.693">
        <ele>182</ele>
        <time>2026-03-06T12:59:02.000Z</time>
      </trkpt>
      <trkpt lat="43.22481" lon="-1.69309">
        <ele>183</ele>
        <time>2026-03-06T12:59:04.000Z</time>
      </trkpt>
      <trkpt lat="43.22469" lon="-1.69315">
        <ele>181</ele>
        <time>2026-03-06T12:59:06.000Z</time>
      </trkpt>
      <trkpt lat="43.22452" lon="-1.69315">
        <ele>176</ele>
        <time>2026-03-06T12:59:09.000Z</time>
      </trkpt>
      <trkpt lat="43.22446" lon="-1.69311">
        <ele>174</ele>
        <time>2026-03-06T12:59:10.000Z</time>
      </trkpt>
      <trkpt lat="43.22414" lon="-1.69329">
        <ele>170</ele>
        <time>2026-03-06T12:59:16.000Z</time>
      </trkpt>
      <trkpt lat="43.2239" lon="-1.69366">
        <ele>169</ele>
        <time>2026-03-06T12:59:23.000Z</time>
      </trkpt>
      <trkpt lat="43.22388" lon="-1.6938">
        <ele>171</ele>
        <time>2026-03-06T12:59:25.000Z</time>
      </trkpt>
      <trkpt lat="43.22389" lon="-1.69393">
        <ele>174</ele>
        <time>2026-03-06T12:59:26.000Z</time>
      </trkpt>
      <trkpt lat="43.22394" lon="-1.69404">
        <ele>177</ele>
        <time>2026-03-06T12:59:28.000Z</time>
      </trkpt>
      <trkpt lat="43.2242" lon="-1.69434">
        <ele>186</ele>
        <time>2026-03-06T12:59:34.000Z</time>
      </trkpt>
      <trkpt lat="43.22424" lon="-1.69444">
        <ele>188</ele>
        <time>2026-03-06T12:59:35.000Z</time>
      </trkpt>
      <trkpt lat="43.22423" lon="-1.69451">
        <ele>188</ele>
        <time>2026-03-06T12:59:36.000Z</time>
      </trkpt>
      <trkpt lat="43.22419" lon="-1.6946">
        <ele>188</ele>
        <time>2026-03-06T12:59:38.000Z</time>
      </trkpt>
      <trkpt lat="43.22415" lon="-1.69465">
        <ele>187</ele>
        <time>2026-03-06T12:59:39.000Z</time>
      </trkpt>
      <trkpt lat="43.2241" lon="-1.69467">
        <ele>186</ele>
        <time>2026-03-06T12:59:40.000Z</time>
      </trkpt>
      <trkpt lat="43.22382" lon="-1.69469">
        <ele>181</ele>
        <time>2026-03-06T12:59:45.000Z</time>
      </trkpt>
      <trkpt lat="43.22369" lon="-1.69482">
        <ele>181</ele>
        <time>2026-03-06T12:59:47.000Z</time>
      </trkpt>
      <trkpt lat="43.22366" lon="-1.69491">
        <ele>181</ele>
        <time>2026-03-06T12:59:49.000Z</time>
      </trkpt>
      <trkpt lat="43.22365" lon="-1.69507">
        <ele>183</ele>
        <time>2026-03-06T12:59:51.000Z</time>
      </trkpt>
      <trkpt lat="43.22358" lon="-1.69531">
        <ele>187</ele>
        <time>2026-03-06T12:59:54.000Z</time>
      </trkpt>
      <trkpt lat="43.22344" lon="-1.69556">
        <ele>189</ele>
        <time>2026-03-06T12:59:58.000Z</time>
      </trkpt>
      <trkpt lat="43.22291" lon="-1.69618">
        <ele>191</ele>
        <time>2026-03-06T13:00:11.000Z</time>
      </trkpt>
      <trkpt lat="43.22272" lon="-1.69654">
        <ele>196</ele>
        <time>2026-03-06T13:00:16.000Z</time>
      </trkpt>
      <trkpt lat="43.2226" lon="-1.69668">
        <ele>198</ele>
        <time>2026-03-06T13:00:19.000Z</time>
      </trkpt>
      <trkpt lat="43.22223" lon="-1.69689">
        <ele>199</ele>
        <time>2026-03-06T13:00:26.000Z</time>
      </trkpt>
      <trkpt lat="43.22222" lon="-1.69697">
        <ele>200</ele>
        <time>2026-03-06T13:00:27.000Z</time>
      </trkpt>
      <trkpt lat="43.22227" lon="-1.69702">
        <ele>200</ele>
        <time>2026-03-06T13:00:28.000Z</time>
      </trkpt>
      <trkpt lat="43.22232" lon="-1.69703">
        <ele>200</ele>
        <time>2026-03-06T13:00:29.000Z</time>
      </trkpt>
      <trkpt lat="43.2228" lon="-1.69675">
        <ele>200</ele>
        <time>2026-03-06T13:00:39.000Z</time>
      </trkpt>
      <trkpt lat="43.22298" lon="-1.69675">
        <ele>202</ele>
        <time>2026-03-06T13:00:42.000Z</time>
      </trkpt>
      <trkpt lat="43.22352" lon="-1.69715">
        <ele>206</ele>
        <time>2026-03-06T13:00:53.000Z</time>
      </trkpt>
      <trkpt lat="43.22371" lon="-1.69738">
        <ele>208</ele>
        <time>2026-03-06T13:00:57.000Z</time>
      </trkpt>
      <trkpt lat="43.22391" lon="-1.69773">
        <ele>206</ele>
        <time>2026-03-06T13:01:03.000Z</time>
      </trkpt>
      <trkpt lat="43.22424" lon="-1.69808">
        <ele>205</ele>
        <time>2026-03-06T13:01:10.000Z</time>
      </trkpt>
      <trkpt lat="43.22448" lon="-1.69829">
        <ele>206</ele>
        <time>2026-03-06T13:01:16.000Z</time>
      </trkpt>
      <trkpt lat="43.22493" lon="-1.69868">
        <ele>207</ele>
        <time>2026-03-06T13:01:25.000Z</time>
      </trkpt>
      <trkpt lat="43.22504" lon="-1.69877">
        <ele>207</ele>
        <time>2026-03-06T13:01:27.000Z</time>
      </trkpt>
      <trkpt lat="43.22561" lon="-1.69907">
        <ele>207</ele>
        <time>2026-03-06T13:01:38.000Z</time>
      </trkpt>
      <trkpt lat="43.22572" lon="-1.69915">
        <ele>207</ele>
        <time>2026-03-06T13:01:40.000Z</time>
      </trkpt>
      <trkpt lat="43.22583" lon="-1.6996">
        <ele>208</ele>
        <time>2026-03-06T13:01:47.000Z</time>
      </trkpt>
      <trkpt lat="43.22583" lon="-1.70023">
        <ele>211</ele>
        <time>2026-03-06T13:01:55.000Z</time>
      </trkpt>
      <trkpt lat="43.22582" lon="-1.70028">
        <ele>212</ele>
        <time>2026-03-06T13:01:55.000Z</time>
      </trkpt>
      <trkpt lat="43.22571" lon="-1.70052">
        <ele>213</ele>
        <time>2026-03-06T13:01:59.000Z</time>
      </trkpt>
      <trkpt lat="43.22569" lon="-1.70068">
        <ele>214</ele>
        <time>2026-03-06T13:02:01.000Z</time>
      </trkpt>
      <trkpt lat="43.22569" lon="-1.70082">
        <ele>216</ele>
        <time>2026-03-06T13:02:03.000Z</time>
      </trkpt>
      <trkpt lat="43.22572" lon="-1.70089">
        <ele>216</ele>
        <time>2026-03-06T13:02:04.000Z</time>
      </trkpt>
      <trkpt lat="43.2258" lon="-1.70095">
        <ele>218</ele>
        <time>2026-03-06T13:02:06.000Z</time>
      </trkpt>
      <trkpt lat="43.2259" lon="-1.701">
        <ele>219</ele>
        <time>2026-03-06T13:02:08.000Z</time>
      </trkpt>
      <trkpt lat="43.22592" lon="-1.70107">
        <ele>220</ele>
        <time>2026-03-06T13:02:09.000Z</time>
      </trkpt>
      <trkpt lat="43.22591" lon="-1.70123">
        <ele>221</ele>
        <time>2026-03-06T13:02:11.000Z</time>
      </trkpt>
      <trkpt lat="43.22594" lon="-1.70144">
        <ele>224</ele>
        <time>2026-03-06T13:02:13.000Z</time>
      </trkpt>
      <trkpt lat="43.226" lon="-1.7015">
        <ele>226</ele>
        <time>2026-03-06T13:02:15.000Z</time>
      </trkpt>
      <trkpt lat="43.22609" lon="-1.70151">
        <ele>228</ele>
        <time>2026-03-06T13:02:16.000Z</time>
      </trkpt>
      <trkpt lat="43.22617" lon="-1.70154">
        <ele>230</ele>
        <time>2026-03-06T13:02:18.000Z</time>
      </trkpt>
      <trkpt lat="43.22621" lon="-1.70159">
        <ele>231</ele>
        <time>2026-03-06T13:02:19.000Z</time>
      </trkpt>
      <trkpt lat="43.22622" lon="-1.70167">
        <ele>232</ele>
        <time>2026-03-06T13:02:20.000Z</time>
      </trkpt>
      <trkpt lat="43.2262" lon="-1.70185">
        <ele>234</ele>
        <time>2026-03-06T13:02:22.000Z</time>
      </trkpt>
      <trkpt lat="43.2261" lon="-1.70197">
        <ele>234</ele>
        <time>2026-03-06T13:02:25.000Z</time>
      </trkpt>
      <trkpt lat="43.22605" lon="-1.70207">
        <ele>234</ele>
        <time>2026-03-06T13:02:26.000Z</time>
      </trkpt>
      <trkpt lat="43.22591" lon="-1.70251">
        <ele>237</ele>
        <time>2026-03-06T13:02:32.000Z</time>
      </trkpt>
      <trkpt lat="43.22579" lon="-1.70264">
        <ele>237</ele>
        <time>2026-03-06T13:02:35.000Z</time>
      </trkpt>
      <trkpt lat="43.22557" lon="-1.70274">
        <ele>236</ele>
        <time>2026-03-06T13:02:39.000Z</time>
      </trkpt>
      <trkpt lat="43.22534" lon="-1.70299">
        <ele>237</ele>
        <time>2026-03-06T13:02:44.000Z</time>
      </trkpt>
      <trkpt lat="43.22527" lon="-1.70308">
        <ele>238</ele>
        <time>2026-03-06T13:02:46.000Z</time>
      </trkpt>
      <trkpt lat="43.22503" lon="-1.70358">
        <ele>242</ele>
        <time>2026-03-06T13:02:54.000Z</time>
      </trkpt>
      <trkpt lat="43.22502" lon="-1.70364">
        <ele>242</ele>
        <time>2026-03-06T13:02:55.000Z</time>
      </trkpt>
      <trkpt lat="43.22503" lon="-1.70368">
        <ele>243</ele>
        <time>2026-03-06T13:02:55.000Z</time>
      </trkpt>
      <trkpt lat="43.22507" lon="-1.7037">
        <ele>244</ele>
        <time>2026-03-06T13:02:56.000Z</time>
      </trkpt>
      <trkpt lat="43.2251" lon="-1.70367">
        <ele>244</ele>
        <time>2026-03-06T13:02:57.000Z</time>
      </trkpt>
      <trkpt lat="43.22524" lon="-1.70347">
        <ele>243</ele>
        <time>2026-03-06T13:03:00.000Z</time>
      </trkpt>
      <trkpt lat="43.22531" lon="-1.70341">
        <ele>244</ele>
        <time>2026-03-06T13:03:02.000Z</time>
      </trkpt>
      <trkpt lat="43.22541" lon="-1.70336">
        <ele>245</ele>
        <time>2026-03-06T13:03:04.000Z</time>
      </trkpt>
      <trkpt lat="43.22552" lon="-1.70335">
        <ele>246</ele>
        <time>2026-03-06T13:03:06.000Z</time>
      </trkpt>
      <trkpt lat="43.22623" lon="-1.70338">
        <ele>255</ele>
        <time>2026-03-06T13:03:18.000Z</time>
      </trkpt>
      <trkpt lat="43.2264" lon="-1.70348">
        <ele>256</ele>
        <time>2026-03-06T13:03:21.000Z</time>
      </trkpt>
      <trkpt lat="43.22657" lon="-1.70364">
        <ele>257</ele>
        <time>2026-03-06T13:03:25.000Z</time>
      </trkpt>
      <trkpt lat="43.22664" lon="-1.70368">
        <ele>257</ele>
        <time>2026-03-06T13:03:26.000Z</time>
      </trkpt>
      <trkpt lat="43.22676" lon="-1.70367">
        <ele>258</ele>
        <time>2026-03-06T13:03:29.000Z</time>
      </trkpt>
      <trkpt lat="43.22692" lon="-1.70361">
        <ele>260</ele>
        <time>2026-03-06T13:03:32.000Z</time>
      </trkpt>
      <trkpt lat="43.22703" lon="-1.7036">
        <ele>261</ele>
        <time>2026-03-06T13:03:34.000Z</time>
      </trkpt>
      <trkpt lat="43.22712" lon="-1.70362">
        <ele>262</ele>
        <time>2026-03-06T13:03:35.000Z</time>
      </trkpt>
      <trkpt lat="43.22783" lon="-1.70357">
        <ele>270</ele>
        <time>2026-03-06T13:03:48.000Z</time>
      </trkpt>
      <trkpt lat="43.22824" lon="-1.70367">
        <ele>270</ele>
        <time>2026-03-06T13:03:55.000Z</time>
      </trkpt>
      <trkpt lat="43.22877" lon="-1.70396">
        <ele>265</ele>
        <time>2026-03-06T13:04:05.000Z</time>
      </trkpt>
      <trkpt lat="43.22924" lon="-1.70472">
        <ele>251</ele>
        <time>2026-03-06T13:04:18.000Z</time>
      </trkpt>
      <trkpt lat="43.22953" lon="-1.70486">
        <ele>244</ele>
        <time>2026-03-06T13:04:24.000Z</time>
      </trkpt>
      <trkpt lat="43.22998" lon="-1.70481">
        <ele>238</ele>
        <time>2026-03-06T13:04:32.000Z</time>
      </trkpt>
      <trkpt lat="43.23029" lon="-1.70464">
        <ele>236</ele>
        <time>2026-03-06T13:04:38.000Z</time>
      </trkpt>
      <trkpt lat="43.23044" lon="-1.70432">
        <ele>240</ele>
        <time>2026-03-06T13:04:43.000Z</time>
      </trkpt>
      <trkpt lat="43.23046" lon="-1.70399">
        <ele>245</ele>
        <time>2026-03-06T13:04:47.000Z</time>
      </trkpt>
      <trkpt lat="43.23043" lon="-1.70382">
        <ele>249</ele>
        <time>2026-03-06T13:04:49.000Z</time>
      </trkpt>
      <trkpt lat="43.23046" lon="-1.70369">
        <ele>250</ele>
        <time>2026-03-06T13:04:51.000Z</time>
      </trkpt>
      <trkpt lat="43.23057" lon="-1.70363">
        <ele>249</ele>
        <time>2026-03-06T13:04:53.000Z</time>
      </trkpt>
      <trkpt lat="43.23098" lon="-1.70352">
        <ele>244</ele>
        <time>2026-03-06T13:05:01.000Z</time>
      </trkpt>
      <trkpt lat="43.23109" lon="-1.70358">
        <ele>242</ele>
        <time>2026-03-06T13:05:03.000Z</time>
      </trkpt>
      <trkpt lat="43.23134" lon="-1.70376">
        <ele>236</ele>
        <time>2026-03-06T13:05:08.000Z</time>
      </trkpt>
      <trkpt lat="43.23175" lon="-1.7037">
        <ele>232</ele>
        <time>2026-03-06T13:05:15.000Z</time>
      </trkpt>
      <trkpt lat="43.23176" lon="-1.70365">
        <ele>232</ele>
        <time>2026-03-06T13:05:16.000Z</time>
      </trkpt>
      <trkpt lat="43.23173" lon="-1.70354">
        <ele>233</ele>
        <time>2026-03-06T13:05:17.000Z</time>
      </trkpt>
      <trkpt lat="43.2315" lon="-1.70332">
        <ele>237</ele>
        <time>2026-03-06T13:05:22.000Z</time>
      </trkpt>
      <trkpt lat="43.23145" lon="-1.70318">
        <ele>239</ele>
        <time>2026-03-06T13:05:24.000Z</time>
      </trkpt>
      <trkpt lat="43.23159" lon="-1.70285">
        <ele>237</ele>
        <time>2026-03-06T13:05:29.000Z</time>
      </trkpt>
      <trkpt lat="43.2318" lon="-1.70261">
        <ele>232</ele>
        <time>2026-03-06T13:05:34.000Z</time>
      </trkpt>
      <trkpt lat="43.23188" lon="-1.70214">
        <ele>228</ele>
        <time>2026-03-06T13:05:40.000Z</time>
      </trkpt>
      <trkpt lat="43.23191" lon="-1.70176">
        <ele>226</ele>
        <time>2026-03-06T13:05:45.000Z</time>
      </trkpt>
      <trkpt lat="43.23195" lon="-1.70156">
        <ele>225</ele>
        <time>2026-03-06T13:05:48.000Z</time>
      </trkpt>
      <trkpt lat="43.23207" lon="-1.70137">
        <ele>221</ele>
        <time>2026-03-06T13:05:51.000Z</time>
      </trkpt>
      <trkpt lat="43.23215" lon="-1.70138">
        <ele>219</ele>
        <time>2026-03-06T13:05:53.000Z</time>
      </trkpt>
      <trkpt lat="43.23221" lon="-1.70151">
        <ele>217</ele>
        <time>2026-03-06T13:05:55.000Z</time>
      </trkpt>
      <trkpt lat="43.23223" lon="-1.70181">
        <ele>216</ele>
        <time>2026-03-06T13:05:58.000Z</time>
      </trkpt>
      <trkpt lat="43.23234" lon="-1.70197">
        <ele>214</ele>
        <time>2026-03-06T13:06:01.000Z</time>
      </trkpt>
      <trkpt lat="43.23242" lon="-1.70212">
        <ele>212</ele>
        <time>2026-03-06T13:06:04.000Z</time>
      </trkpt>
      <trkpt lat="43.23245" lon="-1.70225">
        <ele>211</ele>
        <time>2026-03-06T13:06:06.000Z</time>
      </trkpt>
      <trkpt lat="43.2324" lon="-1.70264">
        <ele>215</ele>
        <time>2026-03-06T13:06:11.000Z</time>
      </trkpt>
      <trkpt lat="43.23247" lon="-1.70269">
        <ele>214</ele>
        <time>2026-03-06T13:06:12.000Z</time>
      </trkpt>
      <trkpt lat="43.23256" lon="-1.70267">
        <ele>213</ele>
        <time>2026-03-06T13:06:14.000Z</time>
      </trkpt>
      <trkpt lat="43.23275" lon="-1.70227">
        <ele>208</ele>
        <time>2026-03-06T13:06:20.000Z</time>
      </trkpt>
      <trkpt lat="43.23288" lon="-1.70215">
        <ele>206</ele>
        <time>2026-03-06T13:06:23.000Z</time>
      </trkpt>
      <trkpt lat="43.23312" lon="-1.70214">
        <ele>204</ele>
        <time>2026-03-06T13:06:27.000Z</time>
      </trkpt>
      <trkpt lat="43.23339" lon="-1.70215">
        <ele>202</ele>
        <time>2026-03-06T13:06:32.000Z</time>
      </trkpt>
      <trkpt lat="43.23354" lon="-1.70221">
        <ele>200</ele>
        <time>2026-03-06T13:06:35.000Z</time>
      </trkpt>
      <trkpt lat="43.23364" lon="-1.70215">
        <ele>198</ele>
        <time>2026-03-06T13:06:36.000Z</time>
      </trkpt>
      <trkpt lat="43.23363" lon="-1.70204">
        <ele>197</ele>
        <time>2026-03-06T13:06:38.000Z</time>
      </trkpt>
      <trkpt lat="43.23355" lon="-1.70198">
        <ele>197</ele>
        <time>2026-03-06T13:06:40.000Z</time>
      </trkpt>
      <trkpt lat="43.23317" lon="-1.70188">
        <ele>201</ele>
        <time>2026-03-06T13:06:46.000Z</time>
      </trkpt>
      <trkpt lat="43.23309" lon="-1.7018">
        <ele>201</ele>
        <time>2026-03-06T13:06:48.000Z</time>
      </trkpt>
      <trkpt lat="43.23307" lon="-1.70172">
        <ele>201</ele>
        <time>2026-03-06T13:06:49.000Z</time>
      </trkpt>
      <trkpt lat="43.23311" lon="-1.70165">
        <ele>200</ele>
        <time>2026-03-06T13:06:50.000Z</time>
      </trkpt>
      <trkpt lat="43.23331" lon="-1.7016">
        <ele>198</ele>
        <time>2026-03-06T13:06:54.000Z</time>
      </trkpt>
      <trkpt lat="43.23388" lon="-1.70156">
        <ele>191</ele>
        <time>2026-03-06T13:07:04.000Z</time>
      </trkpt>
      <trkpt lat="43.2343" lon="-1.70155">
        <ele>185</ele>
        <time>2026-03-06T13:07:12.000Z</time>
      </trkpt>
      <trkpt lat="43.23485" lon="-1.70179">
        <ele>173</ele>
        <time>2026-03-06T13:07:22.000Z</time>
      </trkpt>
      <trkpt lat="43.23499" lon="-1.7018">
        <ele>170</ele>
        <time>2026-03-06T13:07:24.000Z</time>
      </trkpt>
      <trkpt lat="43.23513" lon="-1.70175">
        <ele>169</ele>
        <time>2026-03-06T13:07:27.000Z</time>
      </trkpt>
      <trkpt lat="43.2353" lon="-1.70187">
        <ele>166</ele>
        <time>2026-03-06T13:07:30.000Z</time>
      </trkpt>
      <trkpt lat="43.23539" lon="-1.70186">
        <ele>165</ele>
        <time>2026-03-06T13:07:32.000Z</time>
      </trkpt>
      <trkpt lat="43.2355" lon="-1.70175">
        <ele>164</ele>
        <time>2026-03-06T13:07:34.000Z</time>
      </trkpt>
      <trkpt lat="43.2356" lon="-1.70161">
        <ele>165</ele>
        <time>2026-03-06T13:07:37.000Z</time>
      </trkpt>
      <trkpt lat="43.23576" lon="-1.70148">
        <ele>166</ele>
        <time>2026-03-06T13:07:40.000Z</time>
      </trkpt>
      <trkpt lat="43.23586" lon="-1.70137">
        <ele>167</ele>
        <time>2026-03-06T13:07:43.000Z</time>
      </trkpt>
      <trkpt lat="43.23591" lon="-1.70134">
        <ele>168</ele>
        <time>2026-03-06T13:07:44.000Z</time>
      </trkpt>
      <trkpt lat="43.23598" lon="-1.70134">
        <ele>168</ele>
        <time>2026-03-06T13:07:45.000Z</time>
      </trkpt>
      <trkpt lat="43.236" lon="-1.70137">
        <ele>168</ele>
        <time>2026-03-06T13:07:45.000Z</time>
      </trkpt>
      <trkpt lat="43.236" lon="-1.70148">
        <ele>166</ele>
        <time>2026-03-06T13:07:47.000Z</time>
      </trkpt>
      <trkpt lat="43.23593" lon="-1.70175">
        <ele>160</ele>
        <time>2026-03-06T13:07:50.000Z</time>
      </trkpt>
      <trkpt lat="43.23592" lon="-1.70188">
        <ele>159</ele>
        <time>2026-03-06T13:07:52.000Z</time>
      </trkpt>
      <trkpt lat="43.23598" lon="-1.70214">
        <ele>156</ele>
        <time>2026-03-06T13:07:56.000Z</time>
      </trkpt>
      <trkpt lat="43.23611" lon="-1.70245">
        <ele>151</ele>
        <time>2026-03-06T13:08:00.000Z</time>
      </trkpt>
      <trkpt lat="43.23628" lon="-1.70274">
        <ele>148</ele>
        <time>2026-03-06T13:08:05.000Z</time>
      </trkpt>
      <trkpt lat="43.2364" lon="-1.70312">
        <ele>141</ele>
        <time>2026-03-06T13:08:11.000Z</time>
      </trkpt>
      <trkpt lat="43.23645" lon="-1.70315">
        <ele>140</ele>
        <time>2026-03-06T13:08:11.000Z</time>
      </trkpt>
      <trkpt lat="43.23649" lon="-1.70315">
        <ele>140</ele>
        <time>2026-03-06T13:08:12.000Z</time>
      </trkpt>
      <trkpt lat="43.23668" lon="-1.7031">
        <ele>138</ele>
        <time>2026-03-06T13:08:16.000Z</time>
      </trkpt>
      <trkpt lat="43.23688" lon="-1.70308">
        <ele>136</ele>
        <time>2026-03-06T13:08:19.000Z</time>
      </trkpt>
      <trkpt lat="43.23734" lon="-1.70311">
        <ele>129</ele>
        <time>2026-03-06T13:08:27.000Z</time>
      </trkpt>
      <trkpt lat="43.23751" lon="-1.70299">
        <ele>130</ele>
        <time>2026-03-06T13:08:31.000Z</time>
      </trkpt>
      <trkpt lat="43.23786" lon="-1.70263">
        <ele>135</ele>
        <time>2026-03-06T13:08:39.000Z</time>
      </trkpt>
      <trkpt lat="43.23799" lon="-1.70262">
        <ele>134</ele>
        <time>2026-03-06T13:08:41.000Z</time>
      </trkpt>
      <trkpt lat="43.2381" lon="-1.70264">
        <ele>132</ele>
        <time>2026-03-06T13:08:43.000Z</time>
      </trkpt>
      <trkpt lat="43.23827" lon="-1.70282">
        <ele>127</ele>
        <time>2026-03-06T13:08:47.000Z</time>
      </trkpt>
      <trkpt lat="43.23848" lon="-1.70295">
        <ele>123</ele>
        <time>2026-03-06T13:08:51.000Z</time>
      </trkpt>
      <trkpt lat="43.23866" lon="-1.70299">
        <ele>120</ele>
        <time>2026-03-06T13:08:54.000Z</time>
      </trkpt>
      <trkpt lat="43.23882" lon="-1.70297">
        <ele>119</ele>
        <time>2026-03-06T13:08:57.000Z</time>
      </trkpt>
      <trkpt lat="43.23895" lon="-1.7029">
        <ele>120</ele>
        <time>2026-03-06T13:08:59.000Z</time>
      </trkpt>
      <trkpt lat="43.23918" lon="-1.70284">
        <ele>119</ele>
        <time>2026-03-06T13:09:04.000Z</time>
      </trkpt>
      <trkpt lat="43.23941" lon="-1.70284">
        <ele>120</ele>
        <time>2026-03-06T13:09:08.000Z</time>
      </trkpt>
      <trkpt lat="43.23959" lon="-1.70294">
        <ele>118</ele>
        <time>2026-03-06T13:09:11.000Z</time>
      </trkpt>
      <trkpt lat="43.23966" lon="-1.70304">
        <ele>116</ele>
        <time>2026-03-06T13:09:13.000Z</time>
      </trkpt>
      <trkpt lat="43.23982" lon="-1.70339">
        <ele>109</ele>
        <time>2026-03-06T13:09:18.000Z</time>
      </trkpt>
      <trkpt lat="43.23994" lon="-1.7035">
        <ele>111</ele>
        <time>2026-03-06T13:09:21.000Z</time>
      </trkpt>
      <trkpt lat="43.24004" lon="-1.70351">
        <ele>110</ele>
        <time>2026-03-06T13:09:23.000Z</time>
      </trkpt>
      <trkpt lat="43.24026" lon="-1.70343">
        <ele>108</ele>
        <time>2026-03-06T13:09:27.000Z</time>
      </trkpt>
      <trkpt lat="43.24063" lon="-1.70346">
        <ele>107</ele>
        <time>2026-03-06T13:09:33.000Z</time>
      </trkpt>
      <trkpt lat="43.24093" lon="-1.7034">
        <ele>104</ele>
        <time>2026-03-06T13:09:39.000Z</time>
      </trkpt>
      <trkpt lat="43.24113" lon="-1.70332">
        <ele>101</ele>
        <time>2026-03-06T13:09:42.000Z</time>
      </trkpt>
      <trkpt lat="43.24141" lon="-1.70309">
        <ele>105</ele>
        <time>2026-03-06T13:09:48.000Z</time>
      </trkpt>
      <trkpt lat="43.24163" lon="-1.70297">
        <ele>107</ele>
        <time>2026-03-06T13:09:52.000Z</time>
      </trkpt>
      <trkpt lat="43.24173" lon="-1.70295">
        <ele>107</ele>
        <time>2026-03-06T13:09:54.000Z</time>
      </trkpt>
      <trkpt lat="43.24183" lon="-1.70299">
        <ele>105</ele>
        <time>2026-03-06T13:09:56.000Z</time>
      </trkpt>
      <trkpt lat="43.24196" lon="-1.70308">
        <ele>101</ele>
        <time>2026-03-06T13:09:59.000Z</time>
      </trkpt>
      <trkpt lat="43.24204" lon="-1.70322">
        <ele>96</ele>
        <time>2026-03-06T13:10:01.000Z</time>
      </trkpt>
      <trkpt lat="43.24211" lon="-1.70326">
        <ele>95</ele>
        <time>2026-03-06T13:10:02.000Z</time>
      </trkpt>
      <trkpt lat="43.24223" lon="-1.70326">
        <ele>94</ele>
        <time>2026-03-06T13:10:04.000Z</time>
      </trkpt>
      <trkpt lat="43.24307" lon="-1.70284">
        <ele>94</ele>
        <time>2026-03-06T13:10:20.000Z</time>
      </trkpt>
      <trkpt lat="43.24335" lon="-1.70274">
        <ele>92</ele>
        <time>2026-03-06T13:10:25.000Z</time>
      </trkpt>
      <trkpt lat="43.24353" lon="-1.70269">
        <ele>90</ele>
        <time>2026-03-06T13:10:29.000Z</time>
      </trkpt>
      <trkpt lat="43.24373" lon="-1.70268">
        <ele>88</ele>
        <time>2026-03-06T13:10:32.000Z</time>
      </trkpt>
      <trkpt lat="43.24386" lon="-1.70273">
        <ele>87</ele>
        <time>2026-03-06T13:10:35.000Z</time>
      </trkpt>
      <trkpt lat="43.24398" lon="-1.70278">
        <ele>86</ele>
        <time>2026-03-06T13:10:37.000Z</time>
      </trkpt>
      <trkpt lat="43.24456" lon="-1.70275">
        <ele>84</ele>
        <time>2026-03-06T13:10:47.000Z</time>
      </trkpt>
      <trkpt lat="43.24482" lon="-1.70269">
        <ele>83</ele>
        <time>2026-03-06T13:10:52.000Z</time>
      </trkpt>
      <trkpt lat="43.24496" lon="-1.70262">
        <ele>84</ele>
        <time>2026-03-06T13:10:55.000Z</time>
      </trkpt>
      <trkpt lat="43.2451" lon="-1.70258">
        <ele>83</ele>
        <time>2026-03-06T13:10:57.000Z</time>
      </trkpt>
      <trkpt lat="43.24573" lon="-1.70256">
        <ele>79</ele>
        <time>2026-03-06T13:11:08.000Z</time>
      </trkpt>
      <trkpt lat="43.24591" lon="-1.70259">
        <ele>79</ele>
        <time>2026-03-06T13:11:12.000Z</time>
      </trkpt>
      <trkpt lat="43.24619" lon="-1.70247">
        <ele>79</ele>
        <time>2026-03-06T13:11:17.000Z</time>
      </trkpt>
      <trkpt lat="43.24639" lon="-1.70229">
        <ele>80</ele>
        <time>2026-03-06T13:11:21.000Z</time>
      </trkpt>
      <trkpt lat="43.24653" lon="-1.70219">
        <ele>80</ele>
        <time>2026-03-06T13:11:24.000Z</time>
      </trkpt>
      <trkpt lat="43.24663" lon="-1.70217">
        <ele>79</ele>
        <time>2026-03-06T13:11:26.000Z</time>
      </trkpt>
      <trkpt lat="43.24671" lon="-1.70213">
        <ele>79</ele>
        <time>2026-03-06T13:11:27.000Z</time>
      </trkpt>
      <trkpt lat="43.24685" lon="-1.70183">
        <ele>78</ele>
        <time>2026-03-06T13:11:32.000Z</time>
      </trkpt>
      <trkpt lat="43.24707" lon="-1.70166">
        <ele>76</ele>
        <time>2026-03-06T13:11:36.000Z</time>
      </trkpt>
      <trkpt lat="43.24714" lon="-1.70155">
        <ele>76</ele>
        <time>2026-03-06T13:11:38.000Z</time>
      </trkpt>
      <trkpt lat="43.24739" lon="-1.70109">
        <ele>74</ele>
        <time>2026-03-06T13:11:46.000Z</time>
      </trkpt>
      <trkpt lat="43.24748" lon="-1.70088">
        <ele>72</ele>
        <time>2026-03-06T13:11:49.000Z</time>
      </trkpt>
      <trkpt lat="43.24876" lon="-1.69753">
        <ele>74</ele>
        <time>2026-03-06T13:12:38.000Z</time>
      </trkpt>
      <trkpt lat="43.249" lon="-1.69696">
        <ele>74</ele>
        <time>2026-03-06T13:12:46.000Z</time>
      </trkpt>
      <trkpt lat="43.24946" lon="-1.69624">
        <ele>75</ele>
        <time>2026-03-06T13:12:59.000Z</time>
      </trkpt>
      <trkpt lat="43.24983" lon="-1.69573">
        <ele>73</ele>
        <time>2026-03-06T13:13:08.000Z</time>
      </trkpt>
      <trkpt lat="43.25052" lon="-1.69498">
        <ele>69</ele>
        <time>2026-03-06T13:13:24.000Z</time>
      </trkpt>
      <trkpt lat="43.2509" lon="-1.69449">
        <ele>68</ele>
        <time>2026-03-06T13:13:33.000Z</time>
      </trkpt>
      <trkpt lat="43.25114" lon="-1.69399">
        <ele>71</ele>
        <time>2026-03-06T13:13:41.000Z</time>
      </trkpt>
      <trkpt lat="43.25137" lon="-1.69343">
        <ele>72</ele>
        <time>2026-03-06T13:13:49.000Z</time>
      </trkpt>
      <trkpt lat="43.25161" lon="-1.69251">
        <ele>70</ele>
        <time>2026-03-06T13:14:02.000Z</time>
      </trkpt>
      <trkpt lat="43.25174" lon="-1.69222">
        <ele>69</ele>
        <time>2026-03-06T13:14:06.000Z</time>
      </trkpt>
      <trkpt lat="43.2518" lon="-1.69214">
        <ele>69</ele>
        <time>2026-03-06T13:14:08.000Z</time>
      </trkpt>
      <trkpt lat="43.25191" lon="-1.69176">
        <ele>70</ele>
        <time>2026-03-06T13:14:13.000Z</time>
      </trkpt>
      <trkpt lat="43.25203" lon="-1.69108">
        <ele>70</ele>
        <time>2026-03-06T13:14:22.000Z</time>
      </trkpt>
      <trkpt lat="43.25218" lon="-1.68979">
        <ele>73</ele>
        <time>2026-03-06T13:14:39.000Z</time>
      </trkpt>
      <trkpt lat="43.25224" lon="-1.68951">
        <ele>73</ele>
        <time>2026-03-06T13:14:43.000Z</time>
      </trkpt>
      <trkpt lat="43.25243" lon="-1.68908">
        <ele>70</ele>
        <time>2026-03-06T13:14:49.000Z</time>
      </trkpt>
      <trkpt lat="43.25273" lon="-1.68852">
        <ele>76</ele>
        <time>2026-03-06T13:14:58.000Z</time>
      </trkpt>
      <trkpt lat="43.25285" lon="-1.68837">
        <ele>77</ele>
        <time>2026-03-06T13:15:01.000Z</time>
      </trkpt>
      <trkpt lat="43.2535" lon="-1.6879">
        <ele>81</ele>
        <time>2026-03-06T13:15:14.000Z</time>
      </trkpt>
      <trkpt lat="43.25357" lon="-1.6878">
        <ele>81</ele>
        <time>2026-03-06T13:15:16.000Z</time>
      </trkpt>
      <trkpt lat="43.25364" lon="-1.68765">
        <ele>81</ele>
        <time>2026-03-06T13:15:18.000Z</time>
      </trkpt>
      <trkpt lat="43.25365" lon="-1.68748">
        <ele>80</ele>
        <time>2026-03-06T13:15:21.000Z</time>
      </trkpt>
      <trkpt lat="43.25359" lon="-1.68717">
        <ele>78</ele>
        <time>2026-03-06T13:15:25.000Z</time>
      </trkpt>
      <trkpt lat="43.25356" lon="-1.68702">
        <ele>78</ele>
        <time>2026-03-06T13:15:27.000Z</time>
      </trkpt>
      <trkpt lat="43.25351" lon="-1.68678">
        <ele>76</ele>
        <time>2026-03-06T13:15:30.000Z</time>
      </trkpt>
      <trkpt lat="43.2535" lon="-1.68658">
        <ele>75</ele>
        <time>2026-03-06T13:15:33.000Z</time>
      </trkpt>
      <trkpt lat="43.25351" lon="-1.68646">
        <ele>74</ele>
        <time>2026-03-06T13:15:34.000Z</time>
      </trkpt>
      <trkpt lat="43.25356" lon="-1.68632">
        <ele>74</ele>
        <time>2026-03-06T13:15:36.000Z</time>
      </trkpt>
      <trkpt lat="43.25366" lon="-1.68619">
        <ele>73</ele>
        <time>2026-03-06T13:15:39.000Z</time>
      </trkpt>
      <trkpt lat="43.25375" lon="-1.68613">
        <ele>72</ele>
        <time>2026-03-06T13:15:40.000Z</time>
      </trkpt>
      <trkpt lat="43.2542" lon="-1.68591">
        <ele>70</ele>
        <time>2026-03-06T13:15:49.000Z</time>
      </trkpt>
      <trkpt lat="43.25427" lon="-1.68584">
        <ele>73</ele>
        <time>2026-03-06T13:15:50.000Z</time>
      </trkpt>
      <trkpt lat="43.25434" lon="-1.68568">
        <ele>75</ele>
        <time>2026-03-06T13:15:53.000Z</time>
      </trkpt>
      <trkpt lat="43.25435" lon="-1.68554">
        <ele>75</ele>
        <time>2026-03-06T13:15:55.000Z</time>
      </trkpt>
      <trkpt lat="43.25432" lon="-1.68458">
        <ele>74</ele>
        <time>2026-03-06T13:16:07.000Z</time>
      </trkpt>
      <trkpt lat="43.25444" lon="-1.68412">
        <ele>76</ele>
        <time>2026-03-06T13:16:13.000Z</time>
      </trkpt>
      <trkpt lat="43.25465" lon="-1.68359">
        <ele>75</ele>
        <time>2026-03-06T13:16:21.000Z</time>
      </trkpt>
      <trkpt lat="43.2547" lon="-1.68305">
        <ele>71</ele>
        <time>2026-03-06T13:16:28.000Z</time>
      </trkpt>
      <trkpt lat="43.25458" lon="-1.68221">
        <ele>60</ele>
        <time>2026-03-06T13:16:39.000Z</time>
      </trkpt>
      <trkpt lat="43.25459" lon="-1.68185">
        <ele>54</ele>
        <time>2026-03-06T13:16:44.000Z</time>
      </trkpt>
      <trkpt lat="43.25464" lon="-1.68118">
        <ele>50</ele>
        <time>2026-03-06T13:16:53.000Z</time>
      </trkpt>
      <trkpt lat="43.25468" lon="-1.68073">
        <ele>52</ele>
        <time>2026-03-06T13:16:59.000Z</time>
      </trkpt>
      <trkpt lat="43.25465" lon="-1.68067">
        <ele>54</ele>
        <time>2026-03-06T13:17:00.000Z</time>
      </trkpt>
      <trkpt lat="43.25467" lon="-1.68044">
        <ele>61</ele>
        <time>2026-03-06T13:17:03.000Z</time>
      </trkpt>
      <trkpt lat="43.2552" lon="-1.68052">
        <ele>57</ele>
        <time>2026-03-06T13:17:12.000Z</time>
      </trkpt>
      <trkpt lat="43.25544" lon="-1.68051">
        <ele>57</ele>
        <time>2026-03-06T13:17:16.000Z</time>
      </trkpt>
      <trkpt lat="43.25568" lon="-1.68047">
        <ele>58</ele>
        <time>2026-03-06T13:17:21.000Z</time>
      </trkpt>
      <trkpt lat="43.25628" lon="-1.68023">
        <ele>57</ele>
        <time>2026-03-06T13:17:32.000Z</time>
      </trkpt>
      <trkpt lat="43.25661" lon="-1.68003">
        <ele>53</ele>
        <time>2026-03-06T13:17:38.000Z</time>
      </trkpt>
      <trkpt lat="43.25692" lon="-1.67974">
        <ele>53</ele>
        <time>2026-03-06T13:17:45.000Z</time>
      </trkpt>
      <trkpt lat="43.25707" lon="-1.67953">
        <ele>55</ele>
        <time>2026-03-06T13:17:49.000Z</time>
      </trkpt>
      <trkpt lat="43.25727" lon="-1.6793">
        <ele>59</ele>
        <time>2026-03-06T13:17:53.000Z</time>
      </trkpt>
      <trkpt lat="43.25748" lon="-1.67917">
        <ele>61</ele>
        <time>2026-03-06T13:17:57.000Z</time>
      </trkpt>
      <trkpt lat="43.25769" lon="-1.67909">
        <ele>62</ele>
        <time>2026-03-06T13:18:01.000Z</time>
      </trkpt>
      <trkpt lat="43.25808" lon="-1.67892">
        <ele>64</ele>
        <time>2026-03-06T13:18:09.000Z</time>
      </trkpt>
      <trkpt lat="43.25936" lon="-1.67841">
        <ele>70</ele>
        <time>2026-03-06T13:18:32.000Z</time>
      </trkpt>
      <trkpt lat="43.2596" lon="-1.67838">
        <ele>70</ele>
        <time>2026-03-06T13:18:37.000Z</time>
      </trkpt>
      <trkpt lat="43.25985" lon="-1.67843">
        <ele>68</ele>
        <time>2026-03-06T13:18:41.000Z</time>
      </trkpt>
      <trkpt lat="43.26031" lon="-1.67855">
        <ele>68</ele>
        <time>2026-03-06T13:18:49.000Z</time>
      </trkpt>
      <trkpt lat="43.26064" lon="-1.67875">
        <ele>65</ele>
        <time>2026-03-06T13:18:56.000Z</time>
      </trkpt>
      <trkpt lat="43.26091" lon="-1.67899">
        <ele>63</ele>
        <time>2026-03-06T13:19:02.000Z</time>
      </trkpt>
      <trkpt lat="43.26098" lon="-1.67914">
        <ele>62</ele>
        <time>2026-03-06T13:19:04.000Z</time>
      </trkpt>
      <trkpt lat="43.26115" lon="-1.67948">
        <ele>66</ele>
        <time>2026-03-06T13:19:09.000Z</time>
      </trkpt>
      <trkpt lat="43.26122" lon="-1.67972">
        <ele>67</ele>
        <time>2026-03-06T13:19:13.000Z</time>
      </trkpt>
      <trkpt lat="43.26125" lon="-1.68002">
        <ele>67</ele>
        <time>2026-03-06T13:19:16.000Z</time>
      </trkpt>
      <trkpt lat="43.26122" lon="-1.68055">
        <ele>66</ele>
        <time>2026-03-06T13:19:23.000Z</time>
      </trkpt>
      <trkpt lat="43.26099" lon="-1.68237">
        <ele>59</ele>
        <time>2026-03-06T13:19:47.000Z</time>
      </trkpt>
      <trkpt lat="43.26099" lon="-1.68268">
        <ele>59</ele>
        <time>2026-03-06T13:19:51.000Z</time>
      </trkpt>
      <trkpt lat="43.26101" lon="-1.68294">
        <ele>59</ele>
        <time>2026-03-06T13:19:55.000Z</time>
      </trkpt>
      <trkpt lat="43.26116" lon="-1.68361">
        <ele>60</ele>
        <time>2026-03-06T13:20:04.000Z</time>
      </trkpt>
      <trkpt lat="43.26118" lon="-1.68379">
        <ele>59</ele>
        <time>2026-03-06T13:20:06.000Z</time>
      </trkpt>
      <trkpt lat="43.26134" lon="-1.68412">
        <ele>56</ele>
        <time>2026-03-06T13:20:11.000Z</time>
      </trkpt>
      <trkpt lat="43.26162" lon="-1.68454">
        <ele>52</ele>
        <time>2026-03-06T13:20:19.000Z</time>
      </trkpt>
      <trkpt lat="43.26183" lon="-1.68479">
        <ele>51</ele>
        <time>2026-03-06T13:20:24.000Z</time>
      </trkpt>
      <trkpt lat="43.26207" lon="-1.68499">
        <ele>49</ele>
        <time>2026-03-06T13:20:29.000Z</time>
      </trkpt>
      <trkpt lat="43.26225" lon="-1.68512">
        <ele>49</ele>
        <time>2026-03-06T13:20:32.000Z</time>
      </trkpt>
      <trkpt lat="43.26255" lon="-1.68527">
        <ele>47</ele>
        <time>2026-03-06T13:20:38.000Z</time>
      </trkpt>
      <trkpt lat="43.26284" lon="-1.68538">
        <ele>48</ele>
        <time>2026-03-06T13:20:43.000Z</time>
      </trkpt>
      <trkpt lat="43.26309" lon="-1.68542">
        <ele>50</ele>
        <time>2026-03-06T13:20:48.000Z</time>
      </trkpt>
      <trkpt lat="43.26336" lon="-1.68543">
        <ele>53</ele>
        <time>2026-03-06T13:20:53.000Z</time>
      </trkpt>
      <trkpt lat="43.26393" lon="-1.68539">
        <ele>53</ele>
        <time>2026-03-06T13:21:03.000Z</time>
      </trkpt>
      <trkpt lat="43.26425" lon="-1.68532">
        <ele>53</ele>
        <time>2026-03-06T13:21:08.000Z</time>
      </trkpt>
      <trkpt lat="43.26463" lon="-1.6852">
        <ele>53</ele>
        <time>2026-03-06T13:21:15.000Z</time>
      </trkpt>
      <trkpt lat="43.2649" lon="-1.68508">
        <ele>52</ele>
        <time>2026-03-06T13:21:20.000Z</time>
      </trkpt>
      <trkpt lat="43.26531" lon="-1.68485">
        <ele>52</ele>
        <time>2026-03-06T13:21:28.000Z</time>
      </trkpt>
      <trkpt lat="43.26572" lon="-1.68456">
        <ele>53</ele>
        <time>2026-03-06T13:21:37.000Z</time>
      </trkpt>
      <trkpt lat="43.26715" lon="-1.68348">
        <ele>54</ele>
        <time>2026-03-06T13:22:06.000Z</time>
      </trkpt>
      <trkpt lat="43.26744" lon="-1.68328">
        <ele>54</ele>
        <time>2026-03-06T13:22:11.000Z</time>
      </trkpt>
      <trkpt lat="43.2677" lon="-1.68316">
        <ele>57</ele>
        <time>2026-03-06T13:22:16.000Z</time>
      </trkpt>
      <trkpt lat="43.26791" lon="-1.6831">
        <ele>59</ele>
        <time>2026-03-06T13:22:20.000Z</time>
      </trkpt>
      <trkpt lat="43.26814" lon="-1.68307">
        <ele>60</ele>
        <time>2026-03-06T13:22:24.000Z</time>
      </trkpt>
      <trkpt lat="43.26836" lon="-1.68308">
        <ele>60</ele>
        <time>2026-03-06T13:22:28.000Z</time>
      </trkpt>
      <trkpt lat="43.26857" lon="-1.68311">
        <ele>63</ele>
        <time>2026-03-06T13:22:32.000Z</time>
      </trkpt>
      <trkpt lat="43.26883" lon="-1.6832">
        <ele>64</ele>
        <time>2026-03-06T13:22:37.000Z</time>
      </trkpt>
      <trkpt lat="43.26905" lon="-1.68331">
        <ele>63</ele>
        <time>2026-03-06T13:22:41.000Z</time>
      </trkpt>
      <trkpt lat="43.26935" lon="-1.68354">
        <ele>65</ele>
        <time>2026-03-06T13:22:47.000Z</time>
      </trkpt>
      <trkpt lat="43.26953" lon="-1.68373">
        <ele>64</ele>
        <time>2026-03-06T13:22:51.000Z</time>
      </trkpt>
      <trkpt lat="43.2697" lon="-1.68395">
        <ele>61</ele>
        <time>2026-03-06T13:22:55.000Z</time>
      </trkpt>
      <trkpt lat="43.26983" lon="-1.68416">
        <ele>56</ele>
        <time>2026-03-06T13:22:59.000Z</time>
      </trkpt>
      <trkpt lat="43.27003" lon="-1.6846">
        <ele>50</ele>
        <time>2026-03-06T13:23:05.000Z</time>
      </trkpt>
      <trkpt lat="43.27014" lon="-1.685">
        <ele>42</ele>
        <time>2026-03-06T13:23:11.000Z</time>
      </trkpt>
      <trkpt lat="43.27034" lon="-1.68614">
        <ele>40</ele>
        <time>2026-03-06T13:23:26.000Z</time>
      </trkpt>
      <trkpt lat="43.27044" lon="-1.6866">
        <ele>39</ele>
        <time>2026-03-06T13:23:32.000Z</time>
      </trkpt>
      <trkpt lat="43.27055" lon="-1.68698">
        <ele>38</ele>
        <time>2026-03-06T13:23:38.000Z</time>
      </trkpt>
      <trkpt lat="43.27077" lon="-1.68735">
        <ele>35</ele>
        <time>2026-03-06T13:23:44.000Z</time>
      </trkpt>
      <trkpt lat="43.27102" lon="-1.68762">
        <ele>36</ele>
        <time>2026-03-06T13:23:49.000Z</time>
      </trkpt>
      <trkpt lat="43.27119" lon="-1.68774">
        <ele>37</ele>
        <time>2026-03-06T13:23:53.000Z</time>
      </trkpt>
      <trkpt lat="43.27137" lon="-1.68783">
        <ele>37</ele>
        <time>2026-03-06T13:23:56.000Z</time>
      </trkpt>
      <trkpt lat="43.27182" lon="-1.68792">
        <ele>38</ele>
        <time>2026-03-06T13:24:04.000Z</time>
      </trkpt>
      <trkpt lat="43.27527" lon="-1.68832">
        <ele>39</ele>
        <time>2026-03-06T13:25:06.000Z</time>
      </trkpt>
      <trkpt lat="43.2753" lon="-1.68826">
        <ele>39</ele>
        <time>2026-03-06T13:25:07.000Z</time>
      </trkpt>
      <trkpt lat="43.27533" lon="-1.68825">
        <ele>39</ele>
        <time>2026-03-06T13:25:07.000Z</time>
      </trkpt>
      <trkpt lat="43.27537" lon="-1.68826">
        <ele>39</ele>
        <time>2026-03-06T13:25:08.000Z</time>
      </trkpt>
      <trkpt lat="43.27539" lon="-1.6883">
        <ele>39</ele>
        <time>2026-03-06T13:25:09.000Z</time>
      </trkpt>
      <trkpt lat="43.2754" lon="-1.68836">
        <ele>39</ele>
        <time>2026-03-06T13:25:10.000Z</time>
      </trkpt>
      <trkpt lat="43.27865" lon="-1.68877">
        <ele>36</ele>
        <time>2026-03-06T13:26:08.000Z</time>
      </trkpt>
      <trkpt lat="43.27889" lon="-1.68872">
        <ele>36</ele>
        <time>2026-03-06T13:26:12.000Z</time>
      </trkpt>
      <trkpt lat="43.27991" lon="-1.68811">
        <ele>37</ele>
        <time>2026-03-06T13:26:32.000Z</time>
      </trkpt>
      <trkpt lat="43.27997" lon="-1.68725">
        <ele>40</ele>
        <time>2026-03-06T13:26:43.000Z</time>
      </trkpt>
      <trkpt lat="43.28024" lon="-1.6853">
        <ele>45</ele>
        <time>2026-03-06T13:27:09.000Z</time>
      </trkpt>
      <trkpt lat="43.28031" lon="-1.68459">
        <ele>47</ele>
        <time>2026-03-06T13:27:18.000Z</time>
      </trkpt>
      <trkpt lat="43.28033" lon="-1.68418">
        <ele>48</ele>
        <time>2026-03-06T13:27:23.000Z</time>
      </trkpt>
      <trkpt lat="43.28029" lon="-1.68362">
        <ele>47</ele>
        <time>2026-03-06T13:27:31.000Z</time>
      </trkpt>
      <trkpt lat="43.28034" lon="-1.68331">
        <ele>46</ele>
        <time>2026-03-06T13:27:35.000Z</time>
      </trkpt>
      <trkpt lat="43.28061" lon="-1.68234">
        <ele>43</ele>
        <time>2026-03-06T13:27:48.000Z</time>
      </trkpt>
      <trkpt lat="43.28079" lon="-1.68178">
        <ele>42</ele>
        <time>2026-03-06T13:27:56.000Z</time>
      </trkpt>
      <trkpt lat="43.28082" lon="-1.68168">
        <ele>42</ele>
        <time>2026-03-06T13:27:57.000Z</time>
      </trkpt>
      <trkpt lat="43.28098" lon="-1.68119">
        <ele>42</ele>
        <time>2026-03-06T13:28:04.000Z</time>
      </trkpt>
      <trkpt lat="43.28103" lon="-1.68106">
        <ele>42</ele>
        <time>2026-03-06T13:28:06.000Z</time>
      </trkpt>
      <trkpt lat="43.28113" lon="-1.68096">
        <ele>42</ele>
        <time>2026-03-06T13:28:09.000Z</time>
      </trkpt>
      <trkpt lat="43.28143" lon="-1.68082">
        <ele>41</ele>
        <time>2026-03-06T13:28:14.000Z</time>
      </trkpt>
      <trkpt lat="43.2815" lon="-1.68075">
        <ele>41</ele>
        <time>2026-03-06T13:28:16.000Z</time>
      </trkpt>
      <trkpt lat="43.28155" lon="-1.68066">
        <ele>41</ele>
        <time>2026-03-06T13:28:17.000Z</time>
      </trkpt>
      <trkpt lat="43.28157" lon="-1.68057">
        <ele>42</ele>
        <time>2026-03-06T13:28:18.000Z</time>
      </trkpt>
      <trkpt lat="43.28155" lon="-1.68012">
        <ele>43</ele>
        <time>2026-03-06T13:28:24.000Z</time>
      </trkpt>
      <trkpt lat="43.28158" lon="-1.67999">
        <ele>43</ele>
        <time>2026-03-06T13:28:26.000Z</time>
      </trkpt>
      <trkpt lat="43.28165" lon="-1.67985">
        <ele>43</ele>
        <time>2026-03-06T13:28:28.000Z</time>
      </trkpt>
      <trkpt lat="43.28168" lon="-1.67971">
        <ele>44</ele>
        <time>2026-03-06T13:28:30.000Z</time>
      </trkpt>
      <trkpt lat="43.28177" lon="-1.67967">
        <ele>44</ele>
        <time>2026-03-06T13:28:32.000Z</time>
      </trkpt>
      <trkpt lat="43.2822" lon="-1.67922">
        <ele>44</ele>
        <time>2026-03-06T13:28:41.000Z</time>
      </trkpt>
      <trkpt lat="43.28224" lon="-1.6791">
        <ele>44</ele>
        <time>2026-03-06T13:28:43.000Z</time>
      </trkpt>
      <trkpt lat="43.2823" lon="-1.67884">
        <ele>44</ele>
        <time>2026-03-06T13:28:47.000Z</time>
      </trkpt>
      <trkpt lat="43.28233" lon="-1.67857">
        <ele>45</ele>
        <time>2026-03-06T13:28:50.000Z</time>
      </trkpt>
      <trkpt lat="43.28273" lon="-1.67872">
        <ele>46</ele>
        <time>2026-03-06T13:28:58.000Z</time>
      </trkpt>
      <trkpt lat="43.2828" lon="-1.67877">
        <ele>46</ele>
        <time>2026-03-06T13:28:59.000Z</time>
      </trkpt>
      <trkpt lat="43.28353" lon="-1.67919">
        <ele>53</ele>
        <time>2026-03-06T13:29:13.000Z</time>
      </trkpt>
      <trkpt lat="43.28406" lon="-1.67939">
        <ele>63</ele>
        <time>2026-03-06T13:29:23.000Z</time>
      </trkpt>
      <trkpt lat="43.28443" lon="-1.67962">
        <ele>73</ele>
        <time>2026-03-06T13:29:30.000Z</time>
      </trkpt>
      <trkpt lat="43.28452" lon="-1.67965">
        <ele>74</ele>
        <time>2026-03-06T13:29:32.000Z</time>
      </trkpt>
      <trkpt lat="43.28496" lon="-1.67967">
        <ele>76</ele>
        <time>2026-03-06T13:29:40.000Z</time>
      </trkpt>
      <trkpt lat="43.28536" lon="-1.67964">
        <ele>72</ele>
        <time>2026-03-06T13:29:47.000Z</time>
      </trkpt>
      <trkpt lat="43.28543" lon="-1.67961">
        <ele>71</ele>
        <time>2026-03-06T13:29:48.000Z</time>
      </trkpt>
      <trkpt lat="43.28568" lon="-1.67943">
        <ele>65</ele>
        <time>2026-03-06T13:29:53.000Z</time>
      </trkpt>
      <trkpt lat="43.28578" lon="-1.67944">
        <ele>65</ele>
        <time>2026-03-06T13:29:55.000Z</time>
      </trkpt>
      <trkpt lat="43.28587" lon="-1.6795">
        <ele>66</ele>
        <time>2026-03-06T13:29:57.000Z</time>
      </trkpt>
      <trkpt lat="43.28629" lon="-1.68004">
        <ele>74</ele>
        <time>2026-03-06T13:30:07.000Z</time>
      </trkpt>
      <trkpt lat="43.28651" lon="-1.68019">
        <ele>78</ele>
        <time>2026-03-06T13:30:11.000Z</time>
      </trkpt>
      <trkpt lat="43.28667" lon="-1.68022">
        <ele>78</ele>
        <time>2026-03-06T13:30:14.000Z</time>
      </trkpt>
      <trkpt lat="43.28709" lon="-1.68004">
        <ele>77</ele>
        <time>2026-03-06T13:30:22.000Z</time>
      </trkpt>
      <trkpt lat="43.28757" lon="-1.67994">
        <ele>81</ele>
        <time>2026-03-06T13:30:30.000Z</time>
      </trkpt>
      <trkpt lat="43.28774" lon="-1.67984">
        <ele>81</ele>
        <time>2026-03-06T13:30:34.000Z</time>
      </trkpt>
      <trkpt lat="43.28783" lon="-1.67981">
        <ele>82</ele>
        <time>2026-03-06T13:30:35.000Z</time>
      </trkpt>
      <trkpt lat="43.28793" lon="-1.67981">
        <ele>82</ele>
        <time>2026-03-06T13:30:37.000Z</time>
      </trkpt>
      <trkpt lat="43.28814" lon="-1.67991">
        <ele>83</ele>
        <time>2026-03-06T13:30:41.000Z</time>
      </trkpt>
      <trkpt lat="43.28855" lon="-1.68017">
        <ele>90</ele>
        <time>2026-03-06T13:30:49.000Z</time>
      </trkpt>
      <trkpt lat="43.28881" lon="-1.6803">
        <ele>92</ele>
        <time>2026-03-06T13:30:54.000Z</time>
      </trkpt>
      <trkpt lat="43.28898" lon="-1.68034">
        <ele>92</ele>
        <time>2026-03-06T13:30:57.000Z</time>
      </trkpt>
      <trkpt lat="43.28953" lon="-1.68037">
        <ele>89</ele>
        <time>2026-03-06T13:31:07.000Z</time>
      </trkpt>
      <trkpt lat="43.28974" lon="-1.68046">
        <ele>89</ele>
        <time>2026-03-06T13:31:11.000Z</time>
      </trkpt>
      <trkpt lat="43.28988" lon="-1.68062">
        <ele>91</ele>
        <time>2026-03-06T13:31:14.000Z</time>
      </trkpt>
      <trkpt lat="43.29003" lon="-1.68103">
        <ele>98</ele>
        <time>2026-03-06T13:31:20.000Z</time>
      </trkpt>
      <trkpt lat="43.29042" lon="-1.68245">
        <ele>101</ele>
        <time>2026-03-06T13:31:40.000Z</time>
      </trkpt>
      <trkpt lat="43.29045" lon="-1.68284">
        <ele>103</ele>
        <time>2026-03-06T13:31:45.000Z</time>
      </trkpt>
      <trkpt lat="43.29021" lon="-1.68351">
        <ele>119</ele>
        <time>2026-03-06T13:31:54.000Z</time>
      </trkpt>
      <trkpt lat="43.29015" lon="-1.68376">
        <ele>123</ele>
        <time>2026-03-06T13:31:58.000Z</time>
      </trkpt>
      <trkpt lat="43.29024" lon="-1.68385">
        <ele>120</ele>
        <time>2026-03-06T13:32:00.000Z</time>
      </trkpt>
      <trkpt lat="43.29062" lon="-1.68399">
        <ele>109</ele>
        <time>2026-03-06T13:32:07.000Z</time>
      </trkpt>
      <trkpt lat="43.29095" lon="-1.68438">
        <ele>110</ele>
        <time>2026-03-06T13:32:15.000Z</time>
      </trkpt>
      <trkpt lat="43.29113" lon="-1.68464">
        <ele>116</ele>
        <time>2026-03-06T13:32:19.000Z</time>
      </trkpt>
      <trkpt lat="43.29135" lon="-1.6848">
        <ele>117</ele>
        <time>2026-03-06T13:32:24.000Z</time>
      </trkpt>
      <trkpt lat="43.29159" lon="-1.68483">
        <ele>113</ele>
        <time>2026-03-06T13:32:28.000Z</time>
      </trkpt>
      <trkpt lat="43.2918" lon="-1.68492">
        <ele>111</ele>
        <time>2026-03-06T13:32:32.000Z</time>
      </trkpt>
      <trkpt lat="43.29188" lon="-1.68511">
        <ele>111</ele>
        <time>2026-03-06T13:32:35.000Z</time>
      </trkpt>
      <trkpt lat="43.29179" lon="-1.68537">
        <ele>117</ele>
        <time>2026-03-06T13:32:38.000Z</time>
      </trkpt>
      <trkpt lat="43.29163" lon="-1.68557">
        <ele>123</ele>
        <time>2026-03-06T13:32:42.000Z</time>
      </trkpt>
      <trkpt lat="43.29136" lon="-1.68577">
        <ele>132</ele>
        <time>2026-03-06T13:32:48.000Z</time>
      </trkpt>
      <trkpt lat="43.29128" lon="-1.68594">
        <ele>136</ele>
        <time>2026-03-06T13:32:50.000Z</time>
      </trkpt>
      <trkpt lat="43.2912" lon="-1.68624">
        <ele>142</ele>
        <time>2026-03-06T13:32:55.000Z</time>
      </trkpt>
      <trkpt lat="43.29124" lon="-1.68657">
        <ele>145</ele>
        <time>2026-03-06T13:32:59.000Z</time>
      </trkpt>
      <trkpt lat="43.29131" lon="-1.68677">
        <ele>146</ele>
        <time>2026-03-06T13:33:02.000Z</time>
      </trkpt>
      <trkpt lat="43.29145" lon="-1.68677">
        <ele>142</ele>
        <time>2026-03-06T13:33:04.000Z</time>
      </trkpt>
      <trkpt lat="43.29167" lon="-1.68669">
        <ele>134</ele>
        <time>2026-03-06T13:33:08.000Z</time>
      </trkpt>
      <trkpt lat="43.29171" lon="-1.68683">
        <ele>137</ele>
        <time>2026-03-06T13:33:10.000Z</time>
      </trkpt>
      <trkpt lat="43.29151" lon="-1.68707">
        <ele>146</ele>
        <time>2026-03-06T13:33:15.000Z</time>
      </trkpt>
      <trkpt lat="43.29129" lon="-1.68706">
        <ele>152</ele>
        <time>2026-03-06T13:33:19.000Z</time>
      </trkpt>
      <trkpt lat="43.29117" lon="-1.68687">
        <ele>151</ele>
        <time>2026-03-06T13:33:22.000Z</time>
      </trkpt>
      <trkpt lat="43.29094" lon="-1.68631">
        <ele>150</ele>
        <time>2026-03-06T13:33:30.000Z</time>
      </trkpt>
      <trkpt lat="43.29092" lon="-1.68597">
        <ele>147</ele>
        <time>2026-03-06T13:33:35.000Z</time>
      </trkpt>
      <trkpt lat="43.29104" lon="-1.68572">
        <ele>140</ele>
        <time>2026-03-06T13:33:39.000Z</time>
      </trkpt>
      <trkpt lat="43.29109" lon="-1.68539">
        <ele>134</ele>
        <time>2026-03-06T13:33:43.000Z</time>
      </trkpt>
      <trkpt lat="43.29093" lon="-1.6853">
        <ele>136</ele>
        <time>2026-03-06T13:33:46.000Z</time>
      </trkpt>
      <trkpt lat="43.29075" lon="-1.68516">
        <ele>137</ele>
        <time>2026-03-06T13:33:50.000Z</time>
      </trkpt>
      <trkpt lat="43.29031" lon="-1.68516">
        <ele>145</ele>
        <time>2026-03-06T13:33:58.000Z</time>
      </trkpt>
      <trkpt lat="43.28986" lon="-1.6853">
        <ele>159</ele>
        <time>2026-03-06T13:34:06.000Z</time>
      </trkpt>
      <trkpt lat="43.28988" lon="-1.68549">
        <ele>162</ele>
        <time>2026-03-06T13:34:08.000Z</time>
      </trkpt>
      <trkpt lat="43.29003" lon="-1.68561">
        <ele>159</ele>
        <time>2026-03-06T13:34:11.000Z</time>
      </trkpt>
      <trkpt lat="43.29021" lon="-1.68553">
        <ele>154</ele>
        <time>2026-03-06T13:34:15.000Z</time>
      </trkpt>
      <trkpt lat="43.29042" lon="-1.68537">
        <ele>147</ele>
        <time>2026-03-06T13:34:19.000Z</time>
      </trkpt>
      <trkpt lat="43.29063" lon="-1.68544">
        <ele>145</ele>
        <time>2026-03-06T13:34:23.000Z</time>
      </trkpt>
      <trkpt lat="43.29065" lon="-1.68575">
        <ele>150</ele>
        <time>2026-03-06T13:34:27.000Z</time>
      </trkpt>
      <trkpt lat="43.29059" lon="-1.68606">
        <ele>156</ele>
        <time>2026-03-06T13:34:31.000Z</time>
      </trkpt>
      <trkpt lat="43.29045" lon="-1.68656">
        <ele>167</ele>
        <time>2026-03-06T13:34:38.000Z</time>
      </trkpt>
      <trkpt lat="43.29056" lon="-1.68669">
        <ele>166</ele>
        <time>2026-03-06T13:34:41.000Z</time>
      </trkpt>
      <trkpt lat="43.29074" lon="-1.68696">
        <ele>164</ele>
        <time>2026-03-06T13:34:45.000Z</time>
      </trkpt>
      <trkpt lat="43.29081" lon="-1.68728">
        <ele>167</ele>
        <time>2026-03-06T13:34:50.000Z</time>
      </trkpt>
      <trkpt lat="43.29071" lon="-1.68754">
        <ele>175</ele>
        <time>2026-03-06T13:34:54.000Z</time>
      </trkpt>
      <trkpt lat="43.2908" lon="-1.6878">
        <ele>177</ele>
        <time>2026-03-06T13:34:57.000Z</time>
      </trkpt>
      <trkpt lat="43.29086" lon="-1.68791">
        <ele>177</ele>
        <time>2026-03-06T13:34:59.000Z</time>
      </trkpt>
      <trkpt lat="43.29099" lon="-1.68795">
        <ele>177</ele>
        <time>2026-03-06T13:35:01.000Z</time>
      </trkpt>
      <trkpt lat="43.29114" lon="-1.68795">
        <ele>174</ele>
        <time>2026-03-06T13:35:04.000Z</time>
      </trkpt>
      <trkpt lat="43.29166" lon="-1.68788">
        <ele>165</ele>
        <time>2026-03-06T13:35:13.000Z</time>
      </trkpt>
      <trkpt lat="43.2919" lon="-1.68796">
        <ele>162</ele>
        <time>2026-03-06T13:35:18.000Z</time>
      </trkpt>
      <trkpt lat="43.29205" lon="-1.68826">
        <ele>166</ele>
        <time>2026-03-06T13:35:23.000Z</time>
      </trkpt>
      <trkpt lat="43.29209" lon="-1.68874">
        <ele>177</ele>
        <time>2026-03-06T13:35:29.000Z</time>
      </trkpt>
      <trkpt lat="43.29228" lon="-1.68895">
        <ele>176</ele>
        <time>2026-03-06T13:35:33.000Z</time>
      </trkpt>
      <trkpt lat="43.2925" lon="-1.68915">
        <ele>174</ele>
        <time>2026-03-06T13:35:38.000Z</time>
      </trkpt>
      <trkpt lat="43.29272" lon="-1.68987">
        <ele>188</ele>
        <time>2026-03-06T13:35:48.000Z</time>
      </trkpt>
      <trkpt lat="43.29288" lon="-1.68993">
        <ele>187</ele>
        <time>2026-03-06T13:35:51.000Z</time>
      </trkpt>
      <trkpt lat="43.29306" lon="-1.6899">
        <ele>183</ele>
        <time>2026-03-06T13:35:54.000Z</time>
      </trkpt>
      <trkpt lat="43.29326" lon="-1.68974">
        <ele>175</ele>
        <time>2026-03-06T13:35:58.000Z</time>
      </trkpt>
      <trkpt lat="43.29345" lon="-1.68974">
        <ele>171</ele>
        <time>2026-03-06T13:36:02.000Z</time>
      </trkpt>
      <trkpt lat="43.29354" lon="-1.68998">
        <ele>177</ele>
        <time>2026-03-06T13:36:05.000Z</time>
      </trkpt>
      <trkpt lat="43.29359" lon="-1.6905">
        <ele>192</ele>
        <time>2026-03-06T13:36:12.000Z</time>
      </trkpt>
      <trkpt lat="43.2937" lon="-1.69063">
        <ele>195</ele>
        <time>2026-03-06T13:36:14.000Z</time>
      </trkpt>
      <trkpt lat="43.29394" lon="-1.69064">
        <ele>192</ele>
        <time>2026-03-06T13:36:19.000Z</time>
      </trkpt>
      <trkpt lat="43.29433" lon="-1.6911">
        <ele>202</ele>
        <time>2026-03-06T13:36:28.000Z</time>
      </trkpt>
      <trkpt lat="43.29449" lon="-1.69104">
        <ele>199</ele>
        <time>2026-03-06T13:36:31.000Z</time>
      </trkpt>
      <trkpt lat="43.29459" lon="-1.69085">
        <ele>194</ele>
        <time>2026-03-06T13:36:34.000Z</time>
      </trkpt>
      <trkpt lat="43.29472" lon="-1.69071">
        <ele>189</ele>
        <time>2026-03-06T13:36:37.000Z</time>
      </trkpt>
      <trkpt lat="43.29482" lon="-1.6908">
        <ele>192</ele>
        <time>2026-03-06T13:36:39.000Z</time>
      </trkpt>
      <trkpt lat="43.29498" lon="-1.69104">
        <ele>198</ele>
        <time>2026-03-06T13:36:43.000Z</time>
      </trkpt>
      <trkpt lat="43.29533" lon="-1.69128">
        <ele>209</ele>
        <time>2026-03-06T13:36:50.000Z</time>
      </trkpt>
      <trkpt lat="43.29548" lon="-1.69128">
        <ele>211</ele>
        <time>2026-03-06T13:36:53.000Z</time>
      </trkpt>
      <trkpt lat="43.29558" lon="-1.69116">
        <ele>211</ele>
        <time>2026-03-06T13:36:55.000Z</time>
      </trkpt>
      <trkpt lat="43.29562" lon="-1.69053">
        <ele>198</ele>
        <time>2026-03-06T13:37:03.000Z</time>
      </trkpt>
      <trkpt lat="43.29585" lon="-1.69016">
        <ele>195</ele>
        <time>2026-03-06T13:37:10.000Z</time>
      </trkpt>
      <trkpt lat="43.29631" lon="-1.68998">
        <ele>201</ele>
        <time>2026-03-06T13:37:18.000Z</time>
      </trkpt>
      <trkpt lat="43.29669" lon="-1.68993">
        <ele>208</ele>
        <time>2026-03-06T13:37:25.000Z</time>
      </trkpt>
      <trkpt lat="43.29682" lon="-1.68967">
        <ele>205</ele>
        <time>2026-03-06T13:37:29.000Z</time>
      </trkpt>
      <trkpt lat="43.29698" lon="-1.68946">
        <ele>202</ele>
        <time>2026-03-06T13:37:33.000Z</time>
      </trkpt>
      <trkpt lat="43.29754" lon="-1.68949">
        <ele>208</ele>
        <time>2026-03-06T13:37:43.000Z</time>
      </trkpt>
      <trkpt lat="43.29814" lon="-1.68964">
        <ele>217</ele>
        <time>2026-03-06T13:37:54.000Z</time>
      </trkpt>
      <trkpt lat="43.29829" lon="-1.68963">
        <ele>218</ele>
        <time>2026-03-06T13:37:56.000Z</time>
      </trkpt>
      <trkpt lat="43.29841" lon="-1.68957">
        <ele>217</ele>
        <time>2026-03-06T13:37:59.000Z</time>
      </trkpt>
      <trkpt lat="43.29855" lon="-1.68946">
        <ele>215</ele>
        <time>2026-03-06T13:38:02.000Z</time>
      </trkpt>
      <trkpt lat="43.29862" lon="-1.68944">
        <ele>214</ele>
        <time>2026-03-06T13:38:03.000Z</time>
      </trkpt>
      <trkpt lat="43.29868" lon="-1.68945">
        <ele>215</ele>
        <time>2026-03-06T13:38:04.000Z</time>
      </trkpt>
      <trkpt lat="43.29895" lon="-1.6897">
        <ele>222</ele>
        <time>2026-03-06T13:38:10.000Z</time>
      </trkpt>
      <trkpt lat="43.29933" lon="-1.68987">
        <ele>228</ele>
        <time>2026-03-06T13:38:17.000Z</time>
      </trkpt>
      <trkpt lat="43.29941" lon="-1.68994">
        <ele>230</ele>
        <time>2026-03-06T13:38:19.000Z</time>
      </trkpt>
      <trkpt lat="43.29951" lon="-1.69009">
        <ele>234</ele>
        <time>2026-03-06T13:38:21.000Z</time>
      </trkpt>
      <trkpt lat="43.2996" lon="-1.69027">
        <ele>241</ele>
        <time>2026-03-06T13:38:24.000Z</time>
      </trkpt>
      <trkpt lat="43.29965" lon="-1.69035">
        <ele>243</ele>
        <time>2026-03-06T13:38:25.000Z</time>
      </trkpt>
      <trkpt lat="43.29969" lon="-1.69038">
        <ele>244</ele>
        <time>2026-03-06T13:38:26.000Z</time>
      </trkpt>
      <trkpt lat="43.29977" lon="-1.69037">
        <ele>244</ele>
        <time>2026-03-06T13:38:28.000Z</time>
      </trkpt>
      <trkpt lat="43.29983" lon="-1.69033">
        <ele>242</ele>
        <time>2026-03-06T13:38:29.000Z</time>
      </trkpt>
      <trkpt lat="43.30014" lon="-1.6897">
        <ele>229</ele>
        <time>2026-03-06T13:38:39.000Z</time>
      </trkpt>
      <trkpt lat="43.30032" lon="-1.68943">
        <ele>227</ele>
        <time>2026-03-06T13:38:43.000Z</time>
      </trkpt>
      <trkpt lat="43.30045" lon="-1.68931">
        <ele>227</ele>
        <time>2026-03-06T13:38:46.000Z</time>
      </trkpt>
      <trkpt lat="43.3006" lon="-1.68924">
        <ele>228</ele>
        <time>2026-03-06T13:38:49.000Z</time>
      </trkpt>
      <trkpt lat="43.30083" lon="-1.68922">
        <ele>231</ele>
        <time>2026-03-06T13:38:53.000Z</time>
      </trkpt>
      <trkpt lat="43.30117" lon="-1.68926">
        <ele>236</ele>
        <time>2026-03-06T13:38:59.000Z</time>
      </trkpt>
      <trkpt lat="43.30163" lon="-1.68919">
        <ele>239</ele>
        <time>2026-03-06T13:39:07.000Z</time>
      </trkpt>
      <trkpt lat="43.30211" lon="-1.6894">
        <ele>251</ele>
        <time>2026-03-06T13:39:16.000Z</time>
      </trkpt>
      <trkpt lat="43.30227" lon="-1.68945">
        <ele>254</ele>
        <time>2026-03-06T13:39:19.000Z</time>
      </trkpt>
      <trkpt lat="43.30235" lon="-1.68946">
        <ele>255</ele>
        <time>2026-03-06T13:39:21.000Z</time>
      </trkpt>
      <trkpt lat="43.30282" lon="-1.68943">
        <ele>255</ele>
        <time>2026-03-06T13:39:29.000Z</time>
      </trkpt>
      <trkpt lat="43.30292" lon="-1.68946">
        <ele>256</ele>
        <time>2026-03-06T13:39:31.000Z</time>
      </trkpt>
      <trkpt lat="43.30332" lon="-1.68969">
        <ele>266</ele>
        <time>2026-03-06T13:39:39.000Z</time>
      </trkpt>
      <trkpt lat="43.3034" lon="-1.68971">
        <ele>267</ele>
        <time>2026-03-06T13:39:40.000Z</time>
      </trkpt>
      <trkpt lat="43.30349" lon="-1.68969">
        <ele>266</ele>
        <time>2026-03-06T13:39:42.000Z</time>
      </trkpt>
      <trkpt lat="43.30394" lon="-1.68956">
        <ele>261</ele>
        <time>2026-03-06T13:39:50.000Z</time>
      </trkpt>
      <trkpt lat="43.30404" lon="-1.68951">
        <ele>259</ele>
        <time>2026-03-06T13:39:52.000Z</time>
      </trkpt>
      <trkpt lat="43.30412" lon="-1.68944">
        <ele>257</ele>
        <time>2026-03-06T13:39:53.000Z</time>
      </trkpt>
      <trkpt lat="43.30428" lon="-1.68922">
        <ele>251</ele>
        <time>2026-03-06T13:39:57.000Z</time>
      </trkpt>
      <trkpt lat="43.30436" lon="-1.68915">
        <ele>250</ele>
        <time>2026-03-06T13:39:59.000Z</time>
      </trkpt>
      <trkpt lat="43.30473" lon="-1.68905">
        <ele>254</ele>
        <time>2026-03-06T13:40:06.000Z</time>
      </trkpt>
      <trkpt lat="43.30483" lon="-1.68898">
        <ele>254</ele>
        <time>2026-03-06T13:40:08.000Z</time>
      </trkpt>
      <trkpt lat="43.30516" lon="-1.68864">
        <ele>249</ele>
        <time>2026-03-06T13:40:15.000Z</time>
      </trkpt>
      <trkpt lat="43.30522" lon="-1.68862">
        <ele>248</ele>
        <time>2026-03-06T13:40:16.000Z</time>
      </trkpt>
      <trkpt lat="43.30529" lon="-1.68862">
        <ele>248</ele>
        <time>2026-03-06T13:40:18.000Z</time>
      </trkpt>
      <trkpt lat="43.30535" lon="-1.68868">
        <ele>250</ele>
        <time>2026-03-06T13:40:19.000Z</time>
      </trkpt>
      <trkpt lat="43.30564" lon="-1.68907">
        <ele>259</ele>
        <time>2026-03-06T13:40:26.000Z</time>
      </trkpt>
      <trkpt lat="43.30583" lon="-1.68966">
        <ele>272</ele>
        <time>2026-03-06T13:40:34.000Z</time>
      </trkpt>
      <trkpt lat="43.30594" lon="-1.68989">
        <ele>276</ele>
        <time>2026-03-06T13:40:38.000Z</time>
      </trkpt>
      <trkpt lat="43.306" lon="-1.69019">
        <ele>283</ele>
        <time>2026-03-06T13:40:42.000Z</time>
      </trkpt>
      <trkpt lat="43.30603" lon="-1.69025">
        <ele>285</ele>
        <time>2026-03-06T13:40:43.000Z</time>
      </trkpt>
      <trkpt lat="43.30609" lon="-1.69025">
        <ele>284</ele>
        <time>2026-03-06T13:40:44.000Z</time>
      </trkpt>
      <trkpt lat="43.30613" lon="-1.69021">
        <ele>283</ele>
        <time>2026-03-06T13:40:45.000Z</time>
      </trkpt>
      <trkpt lat="43.3062" lon="-1.69009">
        <ele>280</ele>
        <time>2026-03-06T13:40:47.000Z</time>
      </trkpt>
      <trkpt lat="43.30632" lon="-1.68978">
        <ele>273</ele>
        <time>2026-03-06T13:40:51.000Z</time>
      </trkpt>
      <trkpt lat="43.30652" lon="-1.6895">
        <ele>267</ele>
        <time>2026-03-06T13:40:57.000Z</time>
      </trkpt>
      <trkpt lat="43.30669" lon="-1.68937">
        <ele>264</ele>
        <time>2026-03-06T13:41:00.000Z</time>
      </trkpt>
      <trkpt lat="43.30678" lon="-1.68933">
        <ele>265</ele>
        <time>2026-03-06T13:41:02.000Z</time>
      </trkpt>
      <trkpt lat="43.30697" lon="-1.68934">
        <ele>267</ele>
        <time>2026-03-06T13:41:05.000Z</time>
      </trkpt>
      <trkpt lat="43.30732" lon="-1.68948">
        <ele>274</ele>
        <time>2026-03-06T13:41:12.000Z</time>
      </trkpt>
      <trkpt lat="43.3075" lon="-1.68958">
        <ele>278</ele>
        <time>2026-03-06T13:41:15.000Z</time>
      </trkpt>
      <trkpt lat="43.30772" lon="-1.68974">
        <ele>284</ele>
        <time>2026-03-06T13:41:19.000Z</time>
      </trkpt>
      <trkpt lat="43.3078" lon="-1.68978">
        <ele>285</ele>
        <time>2026-03-06T13:41:21.000Z</time>
      </trkpt>
      <trkpt lat="43.30786" lon="-1.68976">
        <ele>285</ele>
        <time>2026-03-06T13:41:22.000Z</time>
      </trkpt>
      <trkpt lat="43.30792" lon="-1.68971">
        <ele>285</ele>
        <time>2026-03-06T13:41:23.000Z</time>
      </trkpt>
      <trkpt lat="43.30805" lon="-1.68939">
        <ele>282</ele>
        <time>2026-03-06T13:41:28.000Z</time>
      </trkpt>
      <trkpt lat="43.30816" lon="-1.68928">
        <ele>282</ele>
        <time>2026-03-06T13:41:30.000Z</time>
      </trkpt>
      <trkpt lat="43.3083" lon="-1.68926">
        <ele>284</ele>
        <time>2026-03-06T13:41:33.000Z</time>
      </trkpt>
      <trkpt lat="43.30839" lon="-1.68931">
        <ele>287</ele>
        <time>2026-03-06T13:41:35.000Z</time>
      </trkpt>
      <trkpt lat="43.30852" lon="-1.68942">
        <ele>291</ele>
        <time>2026-03-06T13:41:37.000Z</time>
      </trkpt>
      <trkpt lat="43.30864" lon="-1.6895">
        <ele>294</ele>
        <time>2026-03-06T13:41:40.000Z</time>
      </trkpt>
      <trkpt lat="43.30871" lon="-1.6895">
        <ele>296</ele>
        <time>2026-03-06T13:41:41.000Z</time>
      </trkpt>
      <trkpt lat="43.30876" lon="-1.68947">
        <ele>297</ele>
        <time>2026-03-06T13:41:42.000Z</time>
      </trkpt>
      <trkpt lat="43.3088" lon="-1.6894">
        <ele>297</ele>
        <time>2026-03-06T13:41:43.000Z</time>
      </trkpt>
      <trkpt lat="43.30882" lon="-1.68934">
        <ele>297</ele>
        <time>2026-03-06T13:41:44.000Z</time>
      </trkpt>
      <trkpt lat="43.30882" lon="-1.68926">
        <ele>297</ele>
        <time>2026-03-06T13:41:45.000Z</time>
      </trkpt>
      <trkpt lat="43.30881" lon="-1.68915">
        <ele>296</ele>
        <time>2026-03-06T13:41:46.000Z</time>
      </trkpt>
      <trkpt lat="43.30865" lon="-1.68879">
        <ele>296</ele>
        <time>2026-03-06T13:41:52.000Z</time>
      </trkpt>
      <trkpt lat="43.30858" lon="-1.68856">
        <ele>297</ele>
        <time>2026-03-06T13:41:55.000Z</time>
      </trkpt>
      <trkpt lat="43.30855" lon="-1.68822">
        <ele>300</ele>
        <time>2026-03-06T13:42:00.000Z</time>
      </trkpt>
      <trkpt lat="43.30853" lon="-1.68812">
        <ele>302</ele>
        <time>2026-03-06T13:42:01.000Z</time>
      </trkpt>
      <trkpt lat="43.30846" lon="-1.68803">
        <ele>301</ele>
        <time>2026-03-06T13:42:03.000Z</time>
      </trkpt>
      <trkpt lat="43.3084" lon="-1.68801">
        <ele>300</ele>
        <time>2026-03-06T13:42:04.000Z</time>
      </trkpt>
      <trkpt lat="43.30824" lon="-1.68809">
        <ele>294</ele>
        <time>2026-03-06T13:42:07.000Z</time>
      </trkpt>
      <trkpt lat="43.30816" lon="-1.68809">
        <ele>292</ele>
        <time>2026-03-06T13:42:08.000Z</time>
      </trkpt>
      <trkpt lat="43.30806" lon="-1.68804">
        <ele>291</ele>
        <time>2026-03-06T13:42:10.000Z</time>
      </trkpt>
      <trkpt lat="43.30775" lon="-1.68774">
        <ele>290</ele>
        <time>2026-03-06T13:42:17.000Z</time>
      </trkpt>
      <trkpt lat="43.30766" lon="-1.6876">
        <ele>290</ele>
        <time>2026-03-06T13:42:19.000Z</time>
      </trkpt>
      <trkpt lat="43.30762" lon="-1.68745">
        <ele>291</ele>
        <time>2026-03-06T13:42:21.000Z</time>
      </trkpt>
      <trkpt lat="43.30763" lon="-1.68715">
        <ele>291</ele>
        <time>2026-03-06T13:42:25.000Z</time>
      </trkpt>
      <trkpt lat="43.30775" lon="-1.68671">
        <ele>294</ele>
        <time>2026-03-06T13:42:31.000Z</time>
      </trkpt>
      <trkpt lat="43.30783" lon="-1.68659">
        <ele>295</ele>
        <time>2026-03-06T13:42:33.000Z</time>
      </trkpt>
      <trkpt lat="43.30791" lon="-1.68651">
        <ele>296</ele>
        <time>2026-03-06T13:42:35.000Z</time>
      </trkpt>
      <trkpt lat="43.30808" lon="-1.68644">
        <ele>299</ele>
        <time>2026-03-06T13:42:38.000Z</time>
      </trkpt>
      <trkpt lat="43.30829" lon="-1.6864">
        <ele>305</ele>
        <time>2026-03-06T13:42:42.000Z</time>
      </trkpt>
      <trkpt lat="43.30849" lon="-1.68631">
        <ele>308</ele>
        <time>2026-03-06T13:42:46.000Z</time>
      </trkpt>
      <trkpt lat="43.3086" lon="-1.68618">
        <ele>309</ele>
        <time>2026-03-06T13:42:48.000Z</time>
      </trkpt>
      <trkpt lat="43.30863" lon="-1.68609">
        <ele>308</ele>
        <time>2026-03-06T13:42:50.000Z</time>
      </trkpt>
      <trkpt lat="43.30864" lon="-1.68581">
        <ele>305</ele>
        <time>2026-03-06T13:42:53.000Z</time>
      </trkpt>
      <trkpt lat="43.30865" lon="-1.68526">
        <ele>302</ele>
        <time>2026-03-06T13:43:00.000Z</time>
      </trkpt>
      <trkpt lat="43.30867" lon="-1.68515">
        <ele>301</ele>
        <time>2026-03-06T13:43:02.000Z</time>
      </trkpt>
      <trkpt lat="43.30877" lon="-1.68497">
        <ele>303</ele>
        <time>2026-03-06T13:43:05.000Z</time>
      </trkpt>
      <trkpt lat="43.30897" lon="-1.68473">
        <ele>308</ele>
        <time>2026-03-06T13:43:10.000Z</time>
      </trkpt>
      <trkpt lat="43.30911" lon="-1.68438">
        <ele>311</ele>
        <time>2026-03-06T13:43:15.000Z</time>
      </trkpt>
      <trkpt lat="43.30922" lon="-1.68426">
        <ele>313</ele>
        <time>2026-03-06T13:43:17.000Z</time>
      </trkpt>
      <trkpt lat="43.30927" lon="-1.68423">
        <ele>314</ele>
        <time>2026-03-06T13:43:18.000Z</time>
      </trkpt>
      <trkpt lat="43.30939" lon="-1.68422">
        <ele>315</ele>
        <time>2026-03-06T13:43:20.000Z</time>
      </trkpt>
      <trkpt lat="43.30959" lon="-1.68429">
        <ele>316</ele>
        <time>2026-03-06T13:43:24.000Z</time>
      </trkpt>
      <trkpt lat="43.30963" lon="-1.68433">
        <ele>316</ele>
        <time>2026-03-06T13:43:25.000Z</time>
      </trkpt>
      <trkpt lat="43.30967" lon="-1.68431">
        <ele>317</ele>
        <time>2026-03-06T13:43:26.000Z</time>
      </trkpt>
      <trkpt lat="43.3097" lon="-1.68432">
        <ele>317</ele>
        <time>2026-03-06T13:43:26.000Z</time>
      </trkpt>
      <trkpt lat="43.30972" lon="-1.68437">
        <ele>317</ele>
        <time>2026-03-06T13:43:27.000Z</time>
      </trkpt>
      <trkpt lat="43.3098" lon="-1.68437">
        <ele>317</ele>
        <time>2026-03-06T13:43:28.000Z</time>
      </trkpt>
      <trkpt lat="43.31034" lon="-1.68456">
        <ele>316</ele>
        <time>2026-03-06T13:43:38.000Z</time>
      </trkpt>
      <trkpt lat="43.31148" lon="-1.68488">
        <ele>310</ele>
        <time>2026-03-06T13:43:59.000Z</time>
      </trkpt>
      <trkpt lat="43.31185" lon="-1.68492">
        <ele>309</ele>
        <time>2026-03-06T13:44:06.000Z</time>
      </trkpt>
      <trkpt lat="43.31213" lon="-1.68482">
        <ele>309</ele>
        <time>2026-03-06T13:44:11.000Z</time>
      </trkpt>
      <trkpt lat="43.31276" lon="-1.68498">
        <ele>302</ele>
        <time>2026-03-06T13:44:22.000Z</time>
      </trkpt>
      <trkpt lat="43.31288" lon="-1.68499">
        <ele>301</ele>
        <time>2026-03-06T13:44:24.000Z</time>
      </trkpt>
      <trkpt lat="43.31295" lon="-1.68497">
        <ele>301</ele>
        <time>2026-03-06T13:44:26.000Z</time>
      </trkpt>
      <trkpt lat="43.31318" lon="-1.68483">
        <ele>303</ele>
        <time>2026-03-06T13:44:30.000Z</time>
      </trkpt>
      <trkpt lat="43.31333" lon="-1.68482">
        <ele>302</ele>
        <time>2026-03-06T13:44:33.000Z</time>
      </trkpt>
      <trkpt lat="43.31347" lon="-1.68486">
        <ele>301</ele>
        <time>2026-03-06T13:44:35.000Z</time>
      </trkpt>
      <trkpt lat="43.31362" lon="-1.68495">
        <ele>298</ele>
        <time>2026-03-06T13:44:38.000Z</time>
      </trkpt>
      <trkpt lat="43.31374" lon="-1.68498">
        <ele>298</ele>
        <time>2026-03-06T13:44:40.000Z</time>
      </trkpt>
      <trkpt lat="43.31408" lon="-1.68494">
        <ele>299</ele>
        <time>2026-03-06T13:44:46.000Z</time>
      </trkpt>
      <trkpt lat="43.31459" lon="-1.68492">
        <ele>296</ele>
        <time>2026-03-06T13:44:55.000Z</time>
      </trkpt>
      <trkpt lat="43.31465" lon="-1.68495">
        <ele>294</ele>
        <time>2026-03-06T13:44:57.000Z</time>
      </trkpt>
      <trkpt lat="43.31485" lon="-1.68512">
        <ele>289</ele>
        <time>2026-03-06T13:45:01.000Z</time>
      </trkpt>
      <trkpt lat="43.31497" lon="-1.68514">
        <ele>287</ele>
        <time>2026-03-06T13:45:03.000Z</time>
      </trkpt>
      <trkpt lat="43.31519" lon="-1.68509">
        <ele>287</ele>
        <time>2026-03-06T13:45:07.000Z</time>
      </trkpt>
      <trkpt lat="43.31549" lon="-1.68514">
        <ele>284</ele>
        <time>2026-03-06T13:45:12.000Z</time>
      </trkpt>
      <trkpt lat="43.31582" lon="-1.68499">
        <ele>284</ele>
        <time>2026-03-06T13:45:18.000Z</time>
      </trkpt>
      <trkpt lat="43.3163" lon="-1.68519">
        <ele>278</ele>
        <time>2026-03-06T13:45:27.000Z</time>
      </trkpt>
      <trkpt lat="43.31657" lon="-1.68524">
        <ele>275</ele>
        <time>2026-03-06T13:45:32.000Z</time>
      </trkpt>
      <trkpt lat="43.31675" lon="-1.68524">
        <ele>273</ele>
        <time>2026-03-06T13:45:35.000Z</time>
      </trkpt>
      <trkpt lat="43.31693" lon="-1.6852">
        <ele>272</ele>
        <time>2026-03-06T13:45:39.000Z</time>
      </trkpt>
      <trkpt lat="43.31708" lon="-1.68512">
        <ele>273</ele>
        <time>2026-03-06T13:45:42.000Z</time>
      </trkpt>
      <trkpt lat="43.31721" lon="-1.68501">
        <ele>275</ele>
        <time>2026-03-06T13:45:44.000Z</time>
      </trkpt>
      <trkpt lat="43.31726" lon="-1.68499">
        <ele>275</ele>
        <time>2026-03-06T13:45:45.000Z</time>
      </trkpt>
      <trkpt lat="43.31738" lon="-1.68499">
        <ele>274</ele>
        <time>2026-03-06T13:45:47.000Z</time>
      </trkpt>
      <trkpt lat="43.31758" lon="-1.68505">
        <ele>270</ele>
        <time>2026-03-06T13:45:51.000Z</time>
      </trkpt>
      <trkpt lat="43.31769" lon="-1.68505">
        <ele>268</ele>
        <time>2026-03-06T13:45:53.000Z</time>
      </trkpt>
      <trkpt lat="43.31791" lon="-1.68502">
        <ele>267</ele>
        <time>2026-03-06T13:45:57.000Z</time>
      </trkpt>
      <trkpt lat="43.31817" lon="-1.68494">
        <ele>266</ele>
        <time>2026-03-06T13:46:02.000Z</time>
      </trkpt>
      <trkpt lat="43.31844" lon="-1.68502">
        <ele>262</ele>
        <time>2026-03-06T13:46:07.000Z</time>
      </trkpt>
      <trkpt lat="43.3188" lon="-1.68496">
        <ele>261</ele>
        <time>2026-03-06T13:46:13.000Z</time>
      </trkpt>
      <trkpt lat="43.31902" lon="-1.68502">
        <ele>258</ele>
        <time>2026-03-06T13:46:17.000Z</time>
      </trkpt>
      <trkpt lat="43.31924" lon="-1.685">
        <ele>257</ele>
        <time>2026-03-06T13:46:21.000Z</time>
      </trkpt>
      <trkpt lat="43.31964" lon="-1.68515">
        <ele>251</ele>
        <time>2026-03-06T13:46:28.000Z</time>
      </trkpt>
      <trkpt lat="43.31986" lon="-1.68518">
        <ele>249</ele>
        <time>2026-03-06T13:46:32.000Z</time>
      </trkpt>
      <trkpt lat="43.32" lon="-1.68524">
        <ele>247</ele>
        <time>2026-03-06T13:46:35.000Z</time>
      </trkpt>
      <trkpt lat="43.32007" lon="-1.68524">
        <ele>246</ele>
        <time>2026-03-06T13:46:36.000Z</time>
      </trkpt>
      <trkpt lat="43.32023" lon="-1.68519">
        <ele>246</ele>
        <time>2026-03-06T13:46:39.000Z</time>
      </trkpt>
      <trkpt lat="43.3203" lon="-1.68514">
        <ele>246</ele>
        <time>2026-03-06T13:46:40.000Z</time>
      </trkpt>
      <trkpt lat="43.32036" lon="-1.68507">
        <ele>246</ele>
        <time>2026-03-06T13:46:42.000Z</time>
      </trkpt>
      <trkpt lat="43.32041" lon="-1.68499">
        <ele>247</ele>
        <time>2026-03-06T13:46:43.000Z</time>
      </trkpt>
      <trkpt lat="43.32061" lon="-1.68451">
        <ele>248</ele>
        <time>2026-03-06T13:46:50.000Z</time>
      </trkpt>
      <trkpt lat="43.32071" lon="-1.68432">
        <ele>249</ele>
        <time>2026-03-06T13:46:53.000Z</time>
      </trkpt>
      <trkpt lat="43.32076" lon="-1.68429">
        <ele>248</ele>
        <time>2026-03-06T13:46:54.000Z</time>
      </trkpt>
      <trkpt lat="43.32084" lon="-1.68427">
        <ele>247</ele>
        <time>2026-03-06T13:46:56.000Z</time>
      </trkpt>
      <trkpt lat="43.32091" lon="-1.68432">
        <ele>248</ele>
        <time>2026-03-06T13:46:57.000Z</time>
      </trkpt>
      <trkpt lat="43.32094" lon="-1.68437">
        <ele>248</ele>
        <time>2026-03-06T13:46:58.000Z</time>
      </trkpt>
      <trkpt lat="43.32109" lon="-1.68481">
        <ele>247</ele>
        <time>2026-03-06T13:47:04.000Z</time>
      </trkpt>
      <trkpt lat="43.32112" lon="-1.68487">
        <ele>247</ele>
        <time>2026-03-06T13:47:05.000Z</time>
      </trkpt>
      <trkpt lat="43.32127" lon="-1.68505">
        <ele>247</ele>
        <time>2026-03-06T13:47:09.000Z</time>
      </trkpt>
      <trkpt lat="43.32131" lon="-1.68519">
        <ele>244</ele>
        <time>2026-03-06T13:47:11.000Z</time>
      </trkpt>
      <trkpt lat="43.32133" lon="-1.68552">
        <ele>237</ele>
        <time>2026-03-06T13:47:15.000Z</time>
      </trkpt>
      <trkpt lat="43.32136" lon="-1.68568">
        <ele>234</ele>
        <time>2026-03-06T13:47:17.000Z</time>
      </trkpt>
      <trkpt lat="43.32143" lon="-1.68582">
        <ele>231</ele>
        <time>2026-03-06T13:47:19.000Z</time>
      </trkpt>
      <trkpt lat="43.32149" lon="-1.68587">
        <ele>231</ele>
        <time>2026-03-06T13:47:21.000Z</time>
      </trkpt>
      <trkpt lat="43.32162" lon="-1.68593">
        <ele>231</ele>
        <time>2026-03-06T13:47:23.000Z</time>
      </trkpt>
      <trkpt lat="43.32196" lon="-1.68592">
        <ele>233</ele>
        <time>2026-03-06T13:47:29.000Z</time>
      </trkpt>
      <trkpt lat="43.32227" lon="-1.68596">
        <ele>235</ele>
        <time>2026-03-06T13:47:35.000Z</time>
      </trkpt>
      <trkpt lat="43.32233" lon="-1.68598">
        <ele>235</ele>
        <time>2026-03-06T13:47:36.000Z</time>
      </trkpt>
      <trkpt lat="43.32292" lon="-1.68632">
        <ele>229</ele>
        <time>2026-03-06T13:47:47.000Z</time>
      </trkpt>
      <trkpt lat="43.32324" lon="-1.68641">
        <ele>226</ele>
        <time>2026-03-06T13:47:53.000Z</time>
      </trkpt>
      <trkpt lat="43.3233" lon="-1.68645">
        <ele>224</ele>
        <time>2026-03-06T13:47:54.000Z</time>
      </trkpt>
      <trkpt lat="43.32348" lon="-1.68664">
        <ele>218</ele>
        <time>2026-03-06T13:47:58.000Z</time>
      </trkpt>
      <trkpt lat="43.32357" lon="-1.68667">
        <ele>216</ele>
        <time>2026-03-06T13:48:00.000Z</time>
      </trkpt>
      <trkpt lat="43.32377" lon="-1.68661">
        <ele>216</ele>
        <time>2026-03-06T13:48:03.000Z</time>
      </trkpt>
      <trkpt lat="43.32418" lon="-1.68631">
        <ele>223</ele>
        <time>2026-03-06T13:48:12.000Z</time>
      </trkpt>
      <trkpt lat="43.32437" lon="-1.68629">
        <ele>224</ele>
        <time>2026-03-06T13:48:15.000Z</time>
      </trkpt>
      <trkpt lat="43.32457" lon="-1.68633">
        <ele>222</ele>
        <time>2026-03-06T13:48:19.000Z</time>
      </trkpt>
      <trkpt lat="43.32469" lon="-1.68639">
        <ele>219</ele>
        <time>2026-03-06T13:48:21.000Z</time>
      </trkpt>
      <trkpt lat="43.32482" lon="-1.68648">
        <ele>216</ele>
        <time>2026-03-06T13:48:24.000Z</time>
      </trkpt>
      <trkpt lat="43.32524" lon="-1.68687">
        <ele>206</ele>
        <time>2026-03-06T13:48:33.000Z</time>
      </trkpt>
      <trkpt lat="43.32534" lon="-1.68691">
        <ele>205</ele>
        <time>2026-03-06T13:48:34.000Z</time>
      </trkpt>
      <trkpt lat="43.32547" lon="-1.68689">
        <ele>206</ele>
        <time>2026-03-06T13:48:37.000Z</time>
      </trkpt>
      <trkpt lat="43.32559" lon="-1.68684">
        <ele>207</ele>
        <time>2026-03-06T13:48:39.000Z</time>
      </trkpt>
      <trkpt lat="43.32585" lon="-1.68679">
        <ele>208</ele>
        <time>2026-03-06T13:48:44.000Z</time>
      </trkpt>
      <trkpt lat="43.32609" lon="-1.68665">
        <ele>210</ele>
        <time>2026-03-06T13:48:48.000Z</time>
      </trkpt>
      <trkpt lat="43.32613" lon="-1.68665">
        <ele>210</ele>
        <time>2026-03-06T13:48:49.000Z</time>
      </trkpt>
      <trkpt lat="43.32646" lon="-1.68676">
        <ele>205</ele>
        <time>2026-03-06T13:48:55.000Z</time>
      </trkpt>
      <trkpt lat="43.32686" lon="-1.68683">
        <ele>201</ele>
        <time>2026-03-06T13:49:02.000Z</time>
      </trkpt>
      <trkpt lat="43.32743" lon="-1.68712">
        <ele>190</ele>
        <time>2026-03-06T13:49:13.000Z</time>
      </trkpt>
      <trkpt lat="43.3276" lon="-1.68719">
        <ele>186</ele>
        <time>2026-03-06T13:49:16.000Z</time>
      </trkpt>
      <trkpt lat="43.32788" lon="-1.68723">
        <ele>183</ele>
        <time>2026-03-06T13:49:21.000Z</time>
      </trkpt>
      <trkpt lat="43.32821" lon="-1.68723">
        <ele>180</ele>
        <time>2026-03-06T13:49:27.000Z</time>
      </trkpt>
      <trkpt lat="43.32844" lon="-1.68719">
        <ele>178</ele>
        <time>2026-03-06T13:49:31.000Z</time>
      </trkpt>
      <trkpt lat="43.32869" lon="-1.68707">
        <ele>175</ele>
        <time>2026-03-06T13:49:36.000Z</time>
      </trkpt>
      <trkpt lat="43.32895" lon="-1.6869">
        <ele>173</ele>
        <time>2026-03-06T13:49:41.000Z</time>
      </trkpt>
      <trkpt lat="43.32927" lon="-1.68667">
        <ele>170</ele>
        <time>2026-03-06T13:49:47.000Z</time>
      </trkpt>
      <trkpt lat="43.32935" lon="-1.68659">
        <ele>168</ele>
        <time>2026-03-06T13:49:49.000Z</time>
      </trkpt>
      <trkpt lat="43.32944" lon="-1.68645">
        <ele>166</ele>
        <time>2026-03-06T13:49:52.000Z</time>
      </trkpt>
      <trkpt lat="43.32946" lon="-1.68628">
        <ele>166</ele>
        <time>2026-03-06T13:49:54.000Z</time>
      </trkpt>
      <trkpt lat="43.32946" lon="-1.68619">
        <ele>167</ele>
        <time>2026-03-06T13:49:55.000Z</time>
      </trkpt>
      <trkpt lat="43.32922" lon="-1.68535">
        <ele>170</ele>
        <time>2026-03-06T13:50:07.000Z</time>
      </trkpt>
      <trkpt lat="43.32915" lon="-1.6852">
        <ele>170</ele>
        <time>2026-03-06T13:50:09.000Z</time>
      </trkpt>
      <trkpt lat="43.32896" lon="-1.68499">
        <ele>172</ele>
        <time>2026-03-06T13:50:13.000Z</time>
      </trkpt>
      <trkpt lat="43.32891" lon="-1.68491">
        <ele>172</ele>
        <time>2026-03-06T13:50:15.000Z</time>
      </trkpt>
      <trkpt lat="43.3288" lon="-1.68468">
        <ele>173</ele>
        <time>2026-03-06T13:50:18.000Z</time>
      </trkpt>
      <trkpt lat="43.32874" lon="-1.68447">
        <ele>173</ele>
        <time>2026-03-06T13:50:21.000Z</time>
      </trkpt>
      <trkpt lat="43.32873" lon="-1.68429">
        <ele>171</ele>
        <time>2026-03-06T13:50:24.000Z</time>
      </trkpt>
      <trkpt lat="43.32874" lon="-1.68421">
        <ele>170</ele>
        <time>2026-03-06T13:50:25.000Z</time>
      </trkpt>
      <trkpt lat="43.32879" lon="-1.68408">
        <ele>168</ele>
        <time>2026-03-06T13:50:26.000Z</time>
      </trkpt>
      <trkpt lat="43.32894" lon="-1.68375">
        <ele>163</ele>
        <time>2026-03-06T13:50:32.000Z</time>
      </trkpt>
      <trkpt lat="43.32897" lon="-1.68362">
        <ele>162</ele>
        <time>2026-03-06T13:50:33.000Z</time>
      </trkpt>
      <trkpt lat="43.32893" lon="-1.68342">
        <ele>163</ele>
        <time>2026-03-06T13:50:36.000Z</time>
      </trkpt>
      <trkpt lat="43.32886" lon="-1.68322">
        <ele>164</ele>
        <time>2026-03-06T13:50:39.000Z</time>
      </trkpt>
      <trkpt lat="43.32884" lon="-1.6831">
        <ele>164</ele>
        <time>2026-03-06T13:50:40.000Z</time>
      </trkpt>
      <trkpt lat="43.32892" lon="-1.68262">
        <ele>157</ele>
        <time>2026-03-06T13:50:47.000Z</time>
      </trkpt>
      <trkpt lat="43.32893" lon="-1.68252">
        <ele>156</ele>
        <time>2026-03-06T13:50:48.000Z</time>
      </trkpt>
      <trkpt lat="43.32888" lon="-1.68221">
        <ele>153</ele>
        <time>2026-03-06T13:50:52.000Z</time>
      </trkpt>
      <trkpt lat="43.3288" lon="-1.68197">
        <ele>151</ele>
        <time>2026-03-06T13:50:56.000Z</time>
      </trkpt>
      <trkpt lat="43.32871" lon="-1.68181">
        <ele>151</ele>
        <time>2026-03-06T13:50:58.000Z</time>
      </trkpt>
      <trkpt lat="43.32854" lon="-1.68164">
        <ele>152</ele>
        <time>2026-03-06T13:51:02.000Z</time>
      </trkpt>
      <trkpt lat="43.32853" lon="-1.68156">
        <ele>150</ele>
        <time>2026-03-06T13:51:03.000Z</time>
      </trkpt>
      <trkpt lat="43.32856" lon="-1.68149">
        <ele>147</ele>
        <time>2026-03-06T13:51:04.000Z</time>
      </trkpt>
      <trkpt lat="43.32859" lon="-1.68147">
        <ele>146</ele>
        <time>2026-03-06T13:51:05.000Z</time>
      </trkpt>
      <trkpt lat="43.32866" lon="-1.68149">
        <ele>145</ele>
        <time>2026-03-06T13:51:06.000Z</time>
      </trkpt>
      <trkpt lat="43.32901" lon="-1.68189">
        <ele>144</ele>
        <time>2026-03-06T13:51:14.000Z</time>
      </trkpt>
      <trkpt lat="43.32912" lon="-1.68206">
        <ele>143</ele>
        <time>2026-03-06T13:51:17.000Z</time>
      </trkpt>
      <trkpt lat="43.32916" lon="-1.68216">
        <ele>143</ele>
        <time>2026-03-06T13:51:18.000Z</time>
      </trkpt>
      <trkpt lat="43.3292" lon="-1.68239">
        <ele>144</ele>
        <time>2026-03-06T13:51:22.000Z</time>
      </trkpt>
      <trkpt lat="43.3292" lon="-1.68288">
        <ele>149</ele>
        <time>2026-03-06T13:51:28.000Z</time>
      </trkpt>
      <trkpt lat="43.32921" lon="-1.68296">
        <ele>149</ele>
        <time>2026-03-06T13:51:29.000Z</time>
      </trkpt>
      <trkpt lat="43.32926" lon="-1.68306">
        <ele>148</ele>
        <time>2026-03-06T13:51:31.000Z</time>
      </trkpt>
      <trkpt lat="43.32932" lon="-1.68309">
        <ele>146</ele>
        <time>2026-03-06T13:51:32.000Z</time>
      </trkpt>
      <trkpt lat="43.32948" lon="-1.68306">
        <ele>140</ele>
        <time>2026-03-06T13:51:35.000Z</time>
      </trkpt>
      <trkpt lat="43.32959" lon="-1.68306">
        <ele>136</ele>
        <time>2026-03-06T13:51:36.000Z</time>
      </trkpt>
      <trkpt lat="43.32968" lon="-1.68314">
        <ele>134</ele>
        <time>2026-03-06T13:51:38.000Z</time>
      </trkpt>
      <trkpt lat="43.32973" lon="-1.68322">
        <ele>133</ele>
        <time>2026-03-06T13:51:40.000Z</time>
      </trkpt>
      <trkpt lat="43.32981" lon="-1.68344">
        <ele>132</ele>
        <time>2026-03-06T13:51:43.000Z</time>
      </trkpt>
      <trkpt lat="43.32983" lon="-1.68362">
        <ele>133</ele>
        <time>2026-03-06T13:51:45.000Z</time>
      </trkpt>
      <trkpt lat="43.32981" lon="-1.68376">
        <ele>135</ele>
        <time>2026-03-06T13:51:47.000Z</time>
      </trkpt>
      <trkpt lat="43.32971" lon="-1.68401">
        <ele>141</ele>
        <time>2026-03-06T13:51:51.000Z</time>
      </trkpt>
      <trkpt lat="43.32972" lon="-1.68412">
        <ele>141</ele>
        <time>2026-03-06T13:51:52.000Z</time>
      </trkpt>
      <trkpt lat="43.32976" lon="-1.6842">
        <ele>141</ele>
        <time>2026-03-06T13:51:54.000Z</time>
      </trkpt>
      <trkpt lat="43.3298" lon="-1.68424">
        <ele>140</ele>
        <time>2026-03-06T13:51:54.000Z</time>
      </trkpt>
      <trkpt lat="43.32988" lon="-1.68424">
        <ele>138</ele>
        <time>2026-03-06T13:51:56.000Z</time>
      </trkpt>
      <trkpt lat="43.33012" lon="-1.68418">
        <ele>131</ele>
        <time>2026-03-06T13:52:00.000Z</time>
      </trkpt>
      <trkpt lat="43.33028" lon="-1.68417">
        <ele>128</ele>
        <time>2026-03-06T13:52:03.000Z</time>
      </trkpt>
      <trkpt lat="43.33046" lon="-1.68427">
        <ele>125</ele>
        <time>2026-03-06T13:52:06.000Z</time>
      </trkpt>
      <trkpt lat="43.33073" lon="-1.68461">
        <ele>122</ele>
        <time>2026-03-06T13:52:13.000Z</time>
      </trkpt>
      <trkpt lat="43.33096" lon="-1.6851">
        <ele>122</ele>
        <time>2026-03-06T13:52:21.000Z</time>
      </trkpt>
      <trkpt lat="43.33113" lon="-1.68554">
        <ele>120</ele>
        <time>2026-03-06T13:52:27.000Z</time>
      </trkpt>
      <trkpt lat="43.33129" lon="-1.68575">
        <ele>118</ele>
        <time>2026-03-06T13:52:31.000Z</time>
      </trkpt>
      <trkpt lat="43.33145" lon="-1.68586">
        <ele>115</ele>
        <time>2026-03-06T13:52:34.000Z</time>
      </trkpt>
      <trkpt lat="43.33166" lon="-1.68591">
        <ele>110</ele>
        <time>2026-03-06T13:52:38.000Z</time>
      </trkpt>
      <trkpt lat="43.33176" lon="-1.68602">
        <ele>109</ele>
        <time>2026-03-06T13:52:40.000Z</time>
      </trkpt>
      <trkpt lat="43.33178" lon="-1.68622">
        <ele>109</ele>
        <time>2026-03-06T13:52:43.000Z</time>
      </trkpt>
      <trkpt lat="43.33177" lon="-1.68656">
        <ele>111</ele>
        <time>2026-03-06T13:52:47.000Z</time>
      </trkpt>
      <trkpt lat="43.33183" lon="-1.68678">
        <ele>110</ele>
        <time>2026-03-06T13:52:50.000Z</time>
      </trkpt>
      <trkpt lat="43.33201" lon="-1.68704">
        <ele>109</ele>
        <time>2026-03-06T13:52:55.000Z</time>
      </trkpt>
      <trkpt lat="43.33222" lon="-1.68721">
        <ele>107</ele>
        <time>2026-03-06T13:52:59.000Z</time>
      </trkpt>
      <trkpt lat="43.33262" lon="-1.68737">
        <ele>103</ele>
        <time>2026-03-06T13:53:07.000Z</time>
      </trkpt>
      <trkpt lat="43.33297" lon="-1.68742">
        <ele>100</ele>
        <time>2026-03-06T13:53:13.000Z</time>
      </trkpt>
      <trkpt lat="43.33377" lon="-1.6874">
        <ele>98</ele>
        <time>2026-03-06T13:53:27.000Z</time>
      </trkpt>
      <trkpt lat="43.33394" lon="-1.68738">
        <ele>98</ele>
        <time>2026-03-06T13:53:30.000Z</time>
      </trkpt>
      <trkpt lat="43.33391" lon="-1.68727">
        <ele>97</ele>
        <time>2026-03-06T13:53:32.000Z</time>
      </trkpt>
      <trkpt lat="43.33392" lon="-1.68671">
        <ele>95</ele>
        <time>2026-03-06T13:53:39.000Z</time>
      </trkpt>
      <trkpt lat="43.33402" lon="-1.68459">
        <ele>86</ele>
        <time>2026-03-06T13:54:06.000Z</time>
      </trkpt>
      <trkpt lat="43.33417" lon="-1.68082">
        <ele>75</ele>
        <time>2026-03-06T13:54:55.000Z</time>
      </trkpt>
      <trkpt lat="43.33424" lon="-1.67866">
        <ele>69</ele>
        <time>2026-03-06T13:55:23.000Z</time>
      </trkpt>
      <trkpt lat="43.33429" lon="-1.67776">
        <ele>66</ele>
        <time>2026-03-06T13:55:35.000Z</time>
      </trkpt>
      <trkpt lat="43.33431" lon="-1.67754">
        <ele>66</ele>
        <time>2026-03-06T13:55:38.000Z</time>
      </trkpt>
      <trkpt lat="43.33458" lon="-1.67596">
        <ele>62</ele>
        <time>2026-03-06T13:55:59.000Z</time>
      </trkpt>
      <trkpt lat="43.33465" lon="-1.67543">
        <ele>60</ele>
        <time>2026-03-06T13:56:06.000Z</time>
      </trkpt>
      <trkpt lat="43.33471" lon="-1.67453">
        <ele>58</ele>
        <time>2026-03-06T13:56:17.000Z</time>
      </trkpt>
      <trkpt lat="43.33472" lon="-1.67396">
        <ele>57</ele>
        <time>2026-03-06T13:56:25.000Z</time>
      </trkpt>
      <trkpt lat="43.3347" lon="-1.67366">
        <ele>56</ele>
        <time>2026-03-06T13:56:29.000Z</time>
      </trkpt>
      <trkpt lat="43.33465" lon="-1.67337">
        <ele>55</ele>
        <time>2026-03-06T13:56:33.000Z</time>
      </trkpt>
      <trkpt lat="43.33438" lon="-1.67201">
        <ele>52</ele>
        <time>2026-03-06T13:56:51.000Z</time>
      </trkpt>
      <trkpt lat="43.33438" lon="-1.6714">
        <ele>51</ele>
        <time>2026-03-06T13:56:59.000Z</time>
      </trkpt>
      <trkpt lat="43.33449" lon="-1.66967">
        <ele>52</ele>
        <time>2026-03-06T13:57:21.000Z</time>
      </trkpt>
      <trkpt lat="43.33452" lon="-1.6695">
        <ele>53</ele>
        <time>2026-03-06T13:57:24.000Z</time>
      </trkpt>
      <trkpt lat="43.33463" lon="-1.66919">
        <ele>52</ele>
        <time>2026-03-06T13:57:28.000Z</time>
      </trkpt>
      <trkpt lat="43.33472" lon="-1.669">
        <ele>51</ele>
        <time>2026-03-06T13:57:31.000Z</time>
      </trkpt>
      <trkpt lat="43.33517" lon="-1.66837">
        <ele>46</ele>
        <time>2026-03-06T13:57:42.000Z</time>
      </trkpt>
      <trkpt lat="43.3354" lon="-1.66811">
        <ele>45</ele>
        <time>2026-03-06T13:57:48.000Z</time>
      </trkpt>
      <trkpt lat="43.33551" lon="-1.66806">
        <ele>45</ele>
        <time>2026-03-06T13:57:50.000Z</time>
      </trkpt>
      <trkpt lat="43.3358" lon="-1.668">
        <ele>45</ele>
        <time>2026-03-06T13:57:55.000Z</time>
      </trkpt>
      <trkpt lat="43.33596" lon="-1.66791">
        <ele>45</ele>
        <time>2026-03-06T13:57:58.000Z</time>
      </trkpt>
      <trkpt lat="43.33597" lon="-1.66783">
        <ele>45</ele>
        <time>2026-03-06T13:57:59.000Z</time>
      </trkpt>
      <trkpt lat="43.33602" lon="-1.66779">
        <ele>45</ele>
        <time>2026-03-06T13:58:00.000Z</time>
      </trkpt>
      <trkpt lat="43.33606" lon="-1.66779">
        <ele>45</ele>
        <time>2026-03-06T13:58:01.000Z</time>
      </trkpt>
      <trkpt lat="43.33611" lon="-1.66782">
        <ele>45</ele>
        <time>2026-03-06T13:58:02.000Z</time>
      </trkpt>
      <trkpt lat="43.33612" lon="-1.66786">
        <ele>45</ele>
        <time>2026-03-06T13:58:02.000Z</time>
      </trkpt>
      <trkpt lat="43.33613" lon="-1.66794">
        <ele>45</ele>
        <time>2026-03-06T13:58:03.000Z</time>
      </trkpt>
      <trkpt lat="43.3361" lon="-1.66799">
        <ele>45</ele>
        <time>2026-03-06T13:58:04.000Z</time>
      </trkpt>
      <trkpt lat="43.33606" lon="-1.66802">
        <ele>45</ele>
        <time>2026-03-06T13:58:05.000Z</time>
      </trkpt>
      <trkpt lat="43.3361" lon="-1.66812">
        <ele>45</ele>
        <time>2026-03-06T13:58:06.000Z</time>
      </trkpt>
      <trkpt lat="43.3362" lon="-1.66822">
        <ele>44</ele>
        <time>2026-03-06T13:58:09.000Z</time>
      </trkpt>
      <trkpt lat="43.33683" lon="-1.66831">
        <ele>43</ele>
        <time>2026-03-06T13:58:20.000Z</time>
      </trkpt>
      <trkpt lat="43.337" lon="-1.66832">
        <ele>42</ele>
        <time>2026-03-06T13:58:23.000Z</time>
      </trkpt>
      <trkpt lat="43.33747" lon="-1.66824">
        <ele>42</ele>
        <time>2026-03-06T13:58:31.000Z</time>
      </trkpt>
      <trkpt lat="43.33782" lon="-1.66811">
        <ele>41</ele>
        <time>2026-03-06T13:58:38.000Z</time>
      </trkpt>
      <trkpt lat="43.33831" lon="-1.66786">
        <ele>39</ele>
        <time>2026-03-06T13:58:47.000Z</time>
      </trkpt>
      <trkpt lat="43.33878" lon="-1.66755">
        <ele>37</ele>
        <time>2026-03-06T13:58:56.000Z</time>
      </trkpt>
      <trkpt lat="43.3392" lon="-1.66705">
        <ele>37</ele>
        <time>2026-03-06T13:59:06.000Z</time>
      </trkpt>
      <trkpt lat="43.33975" lon="-1.66648">
        <ele>34</ele>
        <time>2026-03-06T13:59:19.000Z</time>
      </trkpt>
      <trkpt lat="43.33996" lon="-1.66637">
        <ele>33</ele>
        <time>2026-03-06T13:59:23.000Z</time>
      </trkpt>
      <trkpt lat="43.34014" lon="-1.66632">
        <ele>33</ele>
        <time>2026-03-06T13:59:26.000Z</time>
      </trkpt>
      <trkpt lat="43.34031" lon="-1.6663">
        <ele>34</ele>
        <time>2026-03-06T13:59:29.000Z</time>
      </trkpt>
      <trkpt lat="43.34045" lon="-1.66632">
        <ele>35</ele>
        <time>2026-03-06T13:59:31.000Z</time>
      </trkpt>
      <trkpt lat="43.34055" lon="-1.66636">
        <ele>35</ele>
        <time>2026-03-06T13:59:33.000Z</time>
      </trkpt>
      <trkpt lat="43.34059" lon="-1.66639">
        <ele>36</ele>
        <time>2026-03-06T13:59:34.000Z</time>
      </trkpt>
      <trkpt lat="43.3409" lon="-1.66655">
        <ele>38</ele>
        <time>2026-03-06T13:59:40.000Z</time>
      </trkpt>
      <trkpt lat="43.34167" lon="-1.66684">
        <ele>44</ele>
        <time>2026-03-06T13:59:54.000Z</time>
      </trkpt>
      <trkpt lat="43.34291" lon="-1.66741">
        <ele>53</ele>
        <time>2026-03-06T14:00:17.000Z</time>
      </trkpt>
      <trkpt lat="43.3432" lon="-1.66746">
        <ele>54</ele>
        <time>2026-03-06T14:00:23.000Z</time>
      </trkpt>
      <trkpt lat="43.34348" lon="-1.66741">
        <ele>57</ele>
        <time>2026-03-06T14:00:28.000Z</time>
      </trkpt>
      <trkpt lat="43.34368" lon="-1.66726">
        <ele>61</ele>
        <time>2026-03-06T14:00:32.000Z</time>
      </trkpt>
      <trkpt lat="43.34419" lon="-1.66665">
        <ele>71</ele>
        <time>2026-03-06T14:00:44.000Z</time>
      </trkpt>
      <trkpt lat="43.34436" lon="-1.66659">
        <ele>72</ele>
        <time>2026-03-06T14:00:47.000Z</time>
      </trkpt>
      <trkpt lat="43.34498" lon="-1.66656">
        <ele>72</ele>
        <time>2026-03-06T14:00:58.000Z</time>
      </trkpt>
      <trkpt lat="43.34535" lon="-1.66657">
        <ele>74</ele>
        <time>2026-03-06T14:01:04.000Z</time>
      </trkpt>
      <trkpt lat="43.34553" lon="-1.66663">
        <ele>75</ele>
        <time>2026-03-06T14:01:08.000Z</time>
      </trkpt>
      <trkpt lat="43.34569" lon="-1.66676">
        <ele>76</ele>
        <time>2026-03-06T14:01:11.000Z</time>
      </trkpt>
      <trkpt lat="43.34676" lon="-1.66789">
        <ele>73</ele>
        <time>2026-03-06T14:01:35.000Z</time>
      </trkpt>
      <trkpt lat="43.34741" lon="-1.66805">
        <ele>72</ele>
        <time>2026-03-06T14:01:47.000Z</time>
      </trkpt>
      <trkpt lat="43.34795" lon="-1.6681">
        <ele>73</ele>
        <time>2026-03-06T14:01:56.000Z</time>
      </trkpt>
      <trkpt lat="43.3482" lon="-1.66817">
        <ele>74</ele>
        <time>2026-03-06T14:02:01.000Z</time>
      </trkpt>
      <trkpt lat="43.34917" lon="-1.66871">
        <ele>83</ele>
        <time>2026-03-06T14:02:20.000Z</time>
      </trkpt>
      <trkpt lat="43.34942" lon="-1.66882">
        <ele>87</ele>
        <time>2026-03-06T14:02:24.000Z</time>
      </trkpt>
      <trkpt lat="43.34958" lon="-1.6688">
        <ele>89</ele>
        <time>2026-03-06T14:02:27.000Z</time>
      </trkpt>
      <trkpt lat="43.3497" lon="-1.6687">
        <ele>90</ele>
        <time>2026-03-06T14:02:30.000Z</time>
      </trkpt>
      <trkpt lat="43.34977" lon="-1.66826">
        <ele>86</ele>
        <time>2026-03-06T14:02:35.000Z</time>
      </trkpt>
      <trkpt lat="43.34985" lon="-1.66811">
        <ele>85</ele>
        <time>2026-03-06T14:02:38.000Z</time>
      </trkpt>
      <trkpt lat="43.34998" lon="-1.66803">
        <ele>86</ele>
        <time>2026-03-06T14:02:40.000Z</time>
      </trkpt>
      <trkpt lat="43.35013" lon="-1.668">
        <ele>86</ele>
        <time>2026-03-06T14:02:43.000Z</time>
      </trkpt>
      <trkpt lat="43.35023" lon="-1.66806">
        <ele>87</ele>
        <time>2026-03-06T14:02:45.000Z</time>
      </trkpt>
      <trkpt lat="43.35074" lon="-1.66853">
        <ele>92</ele>
        <time>2026-03-06T14:02:56.000Z</time>
      </trkpt>
      <trkpt lat="43.35089" lon="-1.66859">
        <ele>92</ele>
        <time>2026-03-06T14:02:59.000Z</time>
      </trkpt>
      <trkpt lat="43.35108" lon="-1.66858">
        <ele>93</ele>
        <time>2026-03-06T14:03:02.000Z</time>
      </trkpt>
      <trkpt lat="43.35124" lon="-1.66846">
        <ele>93</ele>
        <time>2026-03-06T14:03:05.000Z</time>
      </trkpt>
      <trkpt lat="43.3518" lon="-1.66752">
        <ele>92</ele>
        <time>2026-03-06T14:03:21.000Z</time>
      </trkpt>
      <trkpt lat="43.35199" lon="-1.66734">
        <ele>91</ele>
        <time>2026-03-06T14:03:25.000Z</time>
      </trkpt>
      <trkpt lat="43.35212" lon="-1.66731">
        <ele>91</ele>
        <time>2026-03-06T14:03:28.000Z</time>
      </trkpt>
      <trkpt lat="43.35246" lon="-1.66735">
        <ele>93</ele>
        <time>2026-03-06T14:03:34.000Z</time>
      </trkpt>
      <trkpt lat="43.35265" lon="-1.66731">
        <ele>92</ele>
        <time>2026-03-06T14:03:37.000Z</time>
      </trkpt>
      <trkpt lat="43.35289" lon="-1.66718">
        <ele>91</ele>
        <time>2026-03-06T14:03:42.000Z</time>
      </trkpt>
      <trkpt lat="43.35301" lon="-1.66706">
        <ele>91</ele>
        <time>2026-03-06T14:03:44.000Z</time>
      </trkpt>
      <trkpt lat="43.35386" lon="-1.66666">
        <ele>97</ele>
        <time>2026-03-06T14:04:00.000Z</time>
      </trkpt>
      <trkpt lat="43.35428" lon="-1.6664">
        <ele>96</ele>
        <time>2026-03-06T14:04:08.000Z</time>
      </trkpt>
      <trkpt lat="43.35456" lon="-1.66613">
        <ele>94</ele>
        <time>2026-03-06T14:04:15.000Z</time>
      </trkpt>
      <trkpt lat="43.35478" lon="-1.66603">
        <ele>94</ele>
        <time>2026-03-06T14:04:19.000Z</time>
      </trkpt>
      <trkpt lat="43.3556" lon="-1.66589">
        <ele>90</ele>
        <time>2026-03-06T14:04:33.000Z</time>
      </trkpt>
      <trkpt lat="43.35628" lon="-1.66587">
        <ele>86</ele>
        <time>2026-03-06T14:04:45.000Z</time>
      </trkpt>
      <trkpt lat="43.3565" lon="-1.66574">
        <ele>84</ele>
        <time>2026-03-06T14:04:50.000Z</time>
      </trkpt>
      <trkpt lat="43.35682" lon="-1.66548">
        <ele>80</ele>
        <time>2026-03-06T14:04:56.000Z</time>
      </trkpt>
      <trkpt lat="43.35721" lon="-1.66497">
        <ele>77</ele>
        <time>2026-03-06T14:05:06.000Z</time>
      </trkpt>
      <trkpt lat="43.35739" lon="-1.66481">
        <ele>76</ele>
        <time>2026-03-06T14:05:10.000Z</time>
      </trkpt>
      <trkpt lat="43.35756" lon="-1.66471">
        <ele>76</ele>
        <time>2026-03-06T14:05:13.000Z</time>
      </trkpt>
      <trkpt lat="43.35819" lon="-1.66448">
        <ele>75</ele>
        <time>2026-03-06T14:05:25.000Z</time>
      </trkpt>
      <trkpt lat="43.35843" lon="-1.66442">
        <ele>76</ele>
        <time>2026-03-06T14:05:29.000Z</time>
      </trkpt>
      <trkpt lat="43.35868" lon="-1.66434">
        <ele>77</ele>
        <time>2026-03-06T14:05:33.000Z</time>
      </trkpt>
      <trkpt lat="43.35879" lon="-1.66427">
        <ele>78</ele>
        <time>2026-03-06T14:05:36.000Z</time>
      </trkpt>
      <trkpt lat="43.35887" lon="-1.66408">
        <ele>77</ele>
        <time>2026-03-06T14:05:38.000Z</time>
      </trkpt>
      <trkpt lat="43.35891" lon="-1.6638">
        <ele>76</ele>
        <time>2026-03-06T14:05:42.000Z</time>
      </trkpt>
      <trkpt lat="43.35896" lon="-1.66356">
        <ele>75</ele>
        <time>2026-03-06T14:05:45.000Z</time>
      </trkpt>
      <trkpt lat="43.35904" lon="-1.66343">
        <ele>75</ele>
        <time>2026-03-06T14:05:48.000Z</time>
      </trkpt>
      <trkpt lat="43.35921" lon="-1.66334">
        <ele>76</ele>
        <time>2026-03-06T14:05:51.000Z</time>
      </trkpt>
      <trkpt lat="43.35958" lon="-1.66324">
        <ele>76</ele>
        <time>2026-03-06T14:05:58.000Z</time>
      </trkpt>
      <trkpt lat="43.36052" lon="-1.66192">
        <ele>82</ele>
        <time>2026-03-06T14:06:21.000Z</time>
      </trkpt>
      <trkpt lat="43.36088" lon="-1.66137">
        <ele>83</ele>
        <time>2026-03-06T14:06:31.000Z</time>
      </trkpt>
      <trkpt lat="43.36116" lon="-1.66099">
        <ele>84</ele>
        <time>2026-03-06T14:06:38.000Z</time>
      </trkpt>
      <trkpt lat="43.36176" lon="-1.66069">
        <ele>86</ele>
        <time>2026-03-06T14:06:49.000Z</time>
      </trkpt>
      <trkpt lat="43.36203" lon="-1.66064">
        <ele>84</ele>
        <time>2026-03-06T14:06:54.000Z</time>
      </trkpt>
      <trkpt lat="43.36233" lon="-1.66076">
        <ele>81</ele>
        <time>2026-03-06T14:07:00.000Z</time>
      </trkpt>
      <trkpt lat="43.36256" lon="-1.66092">
        <ele>78</ele>
        <time>2026-03-06T14:07:04.000Z</time>
      </trkpt>
      <trkpt lat="43.3627" lon="-1.66093">
        <ele>77</ele>
        <time>2026-03-06T14:07:07.000Z</time>
      </trkpt>
      <trkpt lat="43.36327" lon="-1.66082">
        <ele>76</ele>
        <time>2026-03-06T14:07:17.000Z</time>
      </trkpt>
      <trkpt lat="43.3637" lon="-1.66054">
        <ele>75</ele>
        <time>2026-03-06T14:07:26.000Z</time>
      </trkpt>
      <trkpt lat="43.36417" lon="-1.65987">
        <ele>74</ele>
        <time>2026-03-06T14:07:38.000Z</time>
      </trkpt>
      <trkpt lat="43.36511" lon="-1.6582">
        <ele>68</ele>
        <time>2026-03-06T14:08:05.000Z</time>
      </trkpt>
      <trkpt lat="43.36524" lon="-1.65795">
        <ele>68</ele>
        <time>2026-03-06T14:08:09.000Z</time>
      </trkpt>
      <trkpt lat="43.36536" lon="-1.65765">
        <ele>68</ele>
        <time>2026-03-06T14:08:13.000Z</time>
      </trkpt>
      <trkpt lat="43.36558" lon="-1.65684">
        <ele>72</ele>
        <time>2026-03-06T14:08:25.000Z</time>
      </trkpt>
      <trkpt lat="43.36565" lon="-1.65674">
        <ele>74</ele>
        <time>2026-03-06T14:08:26.000Z</time>
      </trkpt>
      <trkpt lat="43.36584" lon="-1.65655">
        <ele>75</ele>
        <time>2026-03-06T14:08:31.000Z</time>
      </trkpt>
      <trkpt lat="43.36597" lon="-1.65644">
        <ele>73</ele>
        <time>2026-03-06T14:08:33.000Z</time>
      </trkpt>
      <trkpt lat="43.36614" lon="-1.65635">
        <ele>72</ele>
        <time>2026-03-06T14:08:36.000Z</time>
      </trkpt>
      <trkpt lat="43.36636" lon="-1.65628">
        <ele>71</ele>
        <time>2026-03-06T14:08:40.000Z</time>
      </trkpt>
      <trkpt lat="43.36653" lon="-1.65628">
        <ele>70</ele>
        <time>2026-03-06T14:08:44.000Z</time>
      </trkpt>
      <trkpt lat="43.36676" lon="-1.65632">
        <ele>69</ele>
        <time>2026-03-06T14:08:48.000Z</time>
      </trkpt>
      <trkpt lat="43.36703" lon="-1.65641">
        <ele>67</ele>
        <time>2026-03-06T14:08:53.000Z</time>
      </trkpt>
      <trkpt lat="43.36733" lon="-1.65656">
        <ele>66</ele>
        <time>2026-03-06T14:08:58.000Z</time>
      </trkpt>
      <trkpt lat="43.36766" lon="-1.6568">
        <ele>65</ele>
        <time>2026-03-06T14:09:05.000Z</time>
      </trkpt>
      <trkpt lat="43.36853" lon="-1.65724">
        <ele>63</ele>
        <time>2026-03-06T14:09:21.000Z</time>
      </trkpt>
      <trkpt lat="43.36916" lon="-1.65752">
        <ele>60</ele>
        <time>2026-03-06T14:09:33.000Z</time>
      </trkpt>
      <trkpt lat="43.36982" lon="-1.65775">
        <ele>57</ele>
        <time>2026-03-06T14:09:45.000Z</time>
      </trkpt>
      <trkpt lat="43.37079" lon="-1.6583">
        <ele>60</ele>
        <time>2026-03-06T14:10:04.000Z</time>
      </trkpt>
      <trkpt lat="43.37089" lon="-1.65839">
        <ele>59</ele>
        <time>2026-03-06T14:10:06.000Z</time>
      </trkpt>
      <trkpt lat="43.37097" lon="-1.65849">
        <ele>57</ele>
        <time>2026-03-06T14:10:08.000Z</time>
      </trkpt>
      <trkpt lat="43.37109" lon="-1.65882">
        <ele>52</ele>
        <time>2026-03-06T14:10:13.000Z</time>
      </trkpt>
      <trkpt lat="43.37114" lon="-1.65888">
        <ele>52</ele>
        <time>2026-03-06T14:10:14.000Z</time>
      </trkpt>
      <trkpt lat="43.37122" lon="-1.65894">
        <ele>52</ele>
        <time>2026-03-06T14:10:16.000Z</time>
      </trkpt>
      <trkpt lat="43.37138" lon="-1.65898">
        <ele>52</ele>
        <time>2026-03-06T14:10:18.000Z</time>
      </trkpt>
      <trkpt lat="43.37323" lon="-1.65911">
        <ele>39</ele>
        <time>2026-03-06T14:10:51.000Z</time>
      </trkpt>
      <trkpt lat="43.37333" lon="-1.65911">
        <ele>38</ele>
        <time>2026-03-06T14:10:53.000Z</time>
      </trkpt>
      <trkpt lat="43.37349" lon="-1.65906">
        <ele>38</ele>
        <time>2026-03-06T14:10:56.000Z</time>
      </trkpt>
      <trkpt lat="43.37401" lon="-1.65886">
        <ele>37</ele>
        <time>2026-03-06T14:11:06.000Z</time>
      </trkpt>
      <trkpt lat="43.37425" lon="-1.65876">
        <ele>37</ele>
        <time>2026-03-06T14:11:10.000Z</time>
      </trkpt>
      <trkpt lat="43.37455" lon="-1.65872">
        <ele>39</ele>
        <time>2026-03-06T14:11:16.000Z</time>
      </trkpt>
      <trkpt lat="43.37463" lon="-1.65873">
        <ele>40</ele>
        <time>2026-03-06T14:11:17.000Z</time>
      </trkpt>
      <trkpt lat="43.37461" lon="-1.65846">
        <ele>40</ele>
        <time>2026-03-06T14:11:21.000Z</time>
      </trkpt>
      <trkpt lat="43.37462" lon="-1.6584">
        <ele>40</ele>
        <time>2026-03-06T14:11:21.000Z</time>
      </trkpt>
      <trkpt lat="43.37541" lon="-1.65803">
        <ele>46</ele>
        <time>2026-03-06T14:11:36.000Z</time>
      </trkpt>
      <trkpt lat="43.3758" lon="-1.65811">
        <ele>48</ele>
        <time>2026-03-06T14:11:43.000Z</time>
      </trkpt>
      <trkpt lat="43.37634" lon="-1.65834">
        <ele>40</ele>
        <time>2026-03-06T14:11:53.000Z</time>
      </trkpt>
      <trkpt lat="43.37684" lon="-1.65844">
        <ele>33</ele>
        <time>2026-03-06T14:12:02.000Z</time>
      </trkpt>
      <trkpt lat="43.37723" lon="-1.65853">
        <ele>26</ele>
        <time>2026-03-06T14:12:09.000Z</time>
      </trkpt>
      <trkpt lat="43.3774" lon="-1.65864">
        <ele>24</ele>
        <time>2026-03-06T14:12:13.000Z</time>
      </trkpt>
      <trkpt lat="43.37752" lon="-1.65881">
        <ele>22</ele>
        <time>2026-03-06T14:12:16.000Z</time>
      </trkpt>
      <trkpt lat="43.37756" lon="-1.65879">
        <ele>22</ele>
        <time>2026-03-06T14:12:16.000Z</time>
      </trkpt>
      <trkpt lat="43.37766" lon="-1.65881">
        <ele>21</ele>
        <time>2026-03-06T14:12:18.000Z</time>
      </trkpt>
      <trkpt lat="43.37817" lon="-1.65922">
        <ele>17</ele>
        <time>2026-03-06T14:12:29.000Z</time>
      </trkpt>
      <trkpt lat="43.37834" lon="-1.65938">
        <ele>15</ele>
        <time>2026-03-06T14:12:32.000Z</time>
      </trkpt>
      <trkpt lat="43.37845" lon="-1.65954">
        <ele>14</ele>
        <time>2026-03-06T14:12:35.000Z</time>
      </trkpt>
      <trkpt lat="43.37862" lon="-1.65988">
        <ele>12</ele>
        <time>2026-03-06T14:12:41.000Z</time>
      </trkpt>
      <trkpt lat="43.37871" lon="-1.66002">
        <ele>11</ele>
        <time>2026-03-06T14:12:43.000Z</time>
      </trkpt>
      <trkpt lat="43.37878" lon="-1.66012">
        <ele>10</ele>
        <time>2026-03-06T14:12:45.000Z</time>
      </trkpt>
      <trkpt lat="43.3789" lon="-1.66023">
        <ele>9</ele>
        <time>2026-03-06T14:12:47.000Z</time>
      </trkpt>
      <trkpt lat="43.37923" lon="-1.66042">
        <ele>8</ele>
        <time>2026-03-06T14:12:54.000Z</time>
      </trkpt>
      <trkpt lat="43.37967" lon="-1.66075">
        <ele>6</ele>
        <time>2026-03-06T14:13:03.000Z</time>
      </trkpt>
      <trkpt lat="43.37989" lon="-1.66095">
        <ele>5</ele>
        <time>2026-03-06T14:13:07.000Z</time>
      </trkpt>
      <trkpt lat="43.38005" lon="-1.66115">
        <ele>5</ele>
        <time>2026-03-06T14:13:11.000Z</time>
      </trkpt>
      <trkpt lat="43.38033" lon="-1.6614">
        <ele>6</ele>
        <time>2026-03-06T14:13:17.000Z</time>
      </trkpt>
      <trkpt lat="43.38015" lon="-1.6616">
        <ele>5</ele>
        <time>2026-03-06T14:13:21.000Z</time>
      </trkpt>
      <trkpt lat="43.38001" lon="-1.66189">
        <ele>5</ele>
        <time>2026-03-06T14:13:26.000Z</time>
      </trkpt>
      <trkpt lat="43.38012" lon="-1.66221">
        <ele>5</ele>
        <time>2026-03-06T14:13:30.000Z</time>
      </trkpt>
      <trkpt lat="43.38026" lon="-1.66242">
        <ele>4</ele>
        <time>2026-03-06T14:13:34.000Z</time>
      </trkpt>
      <trkpt lat="43.38037" lon="-1.66252">
        <ele>4</ele>
        <time>2026-03-06T14:13:36.000Z</time>
      </trkpt>
      <trkpt lat="43.38072" lon="-1.6627">
        <ele>5</ele>
        <time>2026-03-06T14:13:43.000Z</time>
      </trkpt>
      <trkpt lat="43.38085" lon="-1.66281">
        <ele>5</ele>
        <time>2026-03-06T14:13:46.000Z</time>
      </trkpt>
      <trkpt lat="43.38093" lon="-1.66296">
        <ele>5</ele>
        <time>2026-03-06T14:13:48.000Z</time>
      </trkpt>
      <trkpt lat="43.38108" lon="-1.66404">
        <ele>6</ele>
        <time>2026-03-06T14:14:02.000Z</time>
      </trkpt>
      <trkpt lat="43.38118" lon="-1.66429">
        <ele>5</ele>
        <time>2026-03-06T14:14:06.000Z</time>
      </trkpt>
      <trkpt lat="43.38129" lon="-1.66448">
        <ele>5</ele>
        <time>2026-03-06T14:14:09.000Z</time>
      </trkpt>
      <trkpt lat="43.38141" lon="-1.66462">
        <ele>4</ele>
        <time>2026-03-06T14:14:12.000Z</time>
      </trkpt>
      <trkpt lat="43.38223" lon="-1.66552">
        <ele>3</ele>
        <time>2026-03-06T14:14:31.000Z</time>
      </trkpt>
      <trkpt lat="43.38274" lon="-1.66679">
        <ele>5</ele>
        <time>2026-03-06T14:14:49.000Z</time>
      </trkpt>
      <trkpt lat="43.38286" lon="-1.66703">
        <ele>6</ele>
        <time>2026-03-06T14:14:53.000Z</time>
      </trkpt>
      <trkpt lat="43.38305" lon="-1.66747">
        <ele>7</ele>
        <time>2026-03-06T14:15:00.000Z</time>
      </trkpt>
      <trkpt lat="43.38314" lon="-1.6676">
        <ele>7</ele>
        <time>2026-03-06T14:15:02.000Z</time>
      </trkpt>
      <trkpt lat="43.38344" lon="-1.66759">
        <ele>7</ele>
        <time>2026-03-06T14:15:07.000Z</time>
      </trkpt>
      <trkpt lat="43.38366" lon="-1.66755">
        <ele>6</ele>
        <time>2026-03-06T14:15:11.000Z</time>
      </trkpt>
      <trkpt lat="43.38373" lon="-1.6675">
        <ele>6</ele>
        <time>2026-03-06T14:15:13.000Z</time>
      </trkpt>
      <trkpt lat="43.38449" lon="-1.66646">
        <ele>4</ele>
        <time>2026-03-06T14:15:32.000Z</time>
      </trkpt>
      <trkpt lat="43.38446" lon="-1.66639">
        <ele>4</ele>
        <time>2026-03-06T14:15:33.000Z</time>
      </trkpt>
      <trkpt lat="43.38446" lon="-1.66631">
        <ele>4</ele>
        <time>2026-03-06T14:15:34.000Z</time>
      </trkpt>
      <trkpt lat="43.38411" lon="-1.66589">
        <ele>4</ele>
        <time>2026-03-06T14:15:42.000Z</time>
      </trkpt>
      <trkpt lat="43.38408" lon="-1.66568">
        <ele>4</ele>
        <time>2026-03-06T14:15:45.000Z</time>
      </trkpt>
      <trkpt lat="43.38416" lon="-1.66546">
        <ele>4</ele>
        <time>2026-03-06T14:15:48.000Z</time>
      </trkpt>
      <trkpt lat="43.38482" lon="-1.6642">
        <ele>5</ele>
        <time>2026-03-06T14:16:08.000Z</time>
      </trkpt>
      <trkpt lat="43.38517" lon="-1.66346">
        <ele>2</ele>
        <time>2026-03-06T14:16:20.000Z</time>
      </trkpt>
      <trkpt lat="43.38548" lon="-1.66274">
        <ele>3</ele>
        <time>2026-03-06T14:16:30.000Z</time>
      </trkpt>
      <trkpt lat="43.38558" lon="-1.6625">
        <ele>3</ele>
        <time>2026-03-06T14:16:34.000Z</time>
      </trkpt>
      <trkpt lat="43.38566" lon="-1.66229">
        <ele>3</ele>
        <time>2026-03-06T14:16:37.000Z</time>
      </trkpt>
      <trkpt lat="43.38574" lon="-1.66212">
        <ele>4</ele>
        <time>2026-03-06T14:16:40.000Z</time>
      </trkpt>
      <trkpt lat="43.38589" lon="-1.66194">
        <ele>4</ele>
        <time>2026-03-06T14:16:43.000Z</time>
      </trkpt>
      <trkpt lat="43.3859" lon="-1.66189">
        <ele>4</ele>
        <time>2026-03-06T14:16:44.000Z</time>
      </trkpt>
      <trkpt lat="43.38593" lon="-1.66178">
        <ele>4</ele>
        <time>2026-03-06T14:16:45.000Z</time>
      </trkpt>
      <trkpt lat="43.38598" lon="-1.66173">
        <ele>5</ele>
        <time>2026-03-06T14:16:47.000Z</time>
      </trkpt>
      <trkpt lat="43.38603" lon="-1.6617">
        <ele>5</ele>
        <time>2026-03-06T14:16:48.000Z</time>
      </trkpt>
      <trkpt lat="43.38609" lon="-1.6617">
        <ele>5</ele>
        <time>2026-03-06T14:16:49.000Z</time>
      </trkpt>
      <trkpt lat="43.38615" lon="-1.66172">
        <ele>6</ele>
        <time>2026-03-06T14:16:50.000Z</time>
      </trkpt>
      <trkpt lat="43.38623" lon="-1.66181">
        <ele>6</ele>
        <time>2026-03-06T14:16:52.000Z</time>
      </trkpt>
      <trkpt lat="43.38625" lon="-1.66195">
        <ele>5</ele>
        <time>2026-03-06T14:16:53.000Z</time>
      </trkpt>
      <trkpt lat="43.3863" lon="-1.66198">
        <ele>6</ele>
        <time>2026-03-06T14:16:54.000Z</time>
      </trkpt>
      <trkpt lat="43.38654" lon="-1.66271">
        <ele>3</ele>
        <time>2026-03-06T14:17:05.000Z</time>
      </trkpt>
      <trkpt lat="43.38665" lon="-1.66299">
        <ele>2</ele>
        <time>2026-03-06T14:17:09.000Z</time>
      </trkpt>
      <trkpt lat="43.38674" lon="-1.66306">
        <ele>2</ele>
        <time>2026-03-06T14:17:11.000Z</time>
      </trkpt>
      <trkpt lat="43.3868" lon="-1.66306">
        <ele>2</ele>
        <time>2026-03-06T14:17:12.000Z</time>
      </trkpt>
      <trkpt lat="43.38685" lon="-1.66309">
        <ele>2</ele>
        <time>2026-03-06T14:17:13.000Z</time>
      </trkpt>
      <trkpt lat="43.38688" lon="-1.66317">
        <ele>2</ele>
        <time>2026-03-06T14:17:14.000Z</time>
      </trkpt>
      <trkpt lat="43.38687" lon="-1.66329">
        <ele>1</ele>
        <time>2026-03-06T14:17:15.000Z</time>
      </trkpt>
      <trkpt lat="43.38682" lon="-1.66334">
        <ele>1</ele>
        <time>2026-03-06T14:17:17.000Z</time>
      </trkpt>
      <trkpt lat="43.38678" lon="-1.66335">
        <ele>1</ele>
        <time>2026-03-06T14:17:17.000Z</time>
      </trkpt>
      <trkpt lat="43.3867" lon="-1.66331">
        <ele>4</ele>
        <time>2026-03-06T14:17:19.000Z</time>
      </trkpt>
      <trkpt lat="43.38668" lon="-1.66327">
        <ele>4</ele>
        <time>2026-03-06T14:17:19.000Z</time>
      </trkpt>
      <trkpt lat="43.38651" lon="-1.66328">
        <ele>4</ele>
        <time>2026-03-06T14:17:22.000Z</time>
      </trkpt>
      <trkpt lat="43.38636" lon="-1.66325">
        <ele>3.9</ele>
        <time>2026-03-06T14:17:25.000Z</time>
      </trkpt>
      <trkpt lat="43.38617" lon="-1.66317">
        <ele>3.4</ele>
        <time>2026-03-06T14:17:29.000Z</time>
      </trkpt>
      <trkpt lat="43.386" lon="-1.66303">
        <ele>1</ele>
        <time>2026-03-06T14:17:32.000Z</time>
      </trkpt>
      <trkpt lat="43.3857" lon="-1.66267">
        <ele>2</ele>
        <time>2026-03-06T14:17:39.000Z</time>
      </trkpt>
      <trkpt lat="43.38503" lon="-1.66208">
        <ele>4</ele>
        <time>2026-03-06T14:17:53.000Z</time>
      </trkpt>
      <trkpt lat="43.38496" lon="-1.66199">
        <ele>5</ele>
        <time>2026-03-06T14:17:55.000Z</time>
      </trkpt>
      <trkpt lat="43.38487" lon="-1.66173">
        <ele>5</ele>
        <time>2026-03-06T14:17:59.000Z</time>
      </trkpt>
      <trkpt lat="43.38481" lon="-1.66172">
        <ele>5</ele>
        <time>2026-03-06T14:18:00.000Z</time>
      </trkpt>
      <trkpt lat="43.38478" lon="-1.66167">
        <ele>6</ele>
        <time>2026-03-06T14:18:01.000Z</time>
      </trkpt>
      <trkpt lat="43.38477" lon="-1.66161">
        <ele>5</ele>
        <time>2026-03-06T14:18:02.000Z</time>
      </trkpt>
      <trkpt lat="43.38479" lon="-1.66155">
        <ele>5</ele>
        <time>2026-03-06T14:18:02.000Z</time>
      </trkpt>
      <trkpt lat="43.38462" lon="-1.66121">
        <ele>5</ele>
        <time>2026-03-06T14:18:08.000Z</time>
      </trkpt>
      <trkpt lat="43.38445" lon="-1.66095">
        <ele>5</ele>
        <time>2026-03-06T14:18:12.000Z</time>
      </trkpt>
      <trkpt lat="43.38347" lon="-1.65961">
        <ele>6</ele>
        <time>2026-03-06T14:18:37.000Z</time>
      </trkpt>
      <trkpt lat="43.3834" lon="-1.65943">
        <ele>6</ele>
        <time>2026-03-06T14:18:40.000Z</time>
      </trkpt>
      <trkpt lat="43.38333" lon="-1.65943">
        <ele>6</ele>
        <time>2026-03-06T14:18:41.000Z</time>
      </trkpt>
      <trkpt lat="43.3833" lon="-1.65941">
        <ele>6</ele>
        <time>2026-03-06T14:18:41.000Z</time>
      </trkpt>
      <trkpt lat="43.38329" lon="-1.65932">
        <ele>6</ele>
        <time>2026-03-06T14:18:43.000Z</time>
      </trkpt>
      <trkpt lat="43.3833" lon="-1.65928">
        <ele>6</ele>
        <time>2026-03-06T14:18:43.000Z</time>
      </trkpt>
      <trkpt lat="43.38324" lon="-1.65923">
        <ele>6</ele>
        <time>2026-03-06T14:18:44.000Z</time>
      </trkpt>
      <trkpt lat="43.38312" lon="-1.65906">
        <ele>5</ele>
        <time>2026-03-06T14:18:47.000Z</time>
      </trkpt>
    </trkseg>
  </trk>
</gpx>